[[{"header":{"parameterUnit":"m.s-1","parameterCategory":1,"la1":31.0,"la2":29.5877,"lo1":-88.7671,"lo2":-86.6584,"dy":0.0162,"dx":0.0185,"nx":115,"ny":88,"refTime":"2024-04-10T12:00:00:Z","depth":0,"parameterNumber":2,"parameterNumberName":"U-component_of_WINDS"},"data":[0.0,0.0,0.0,0.0,0.0,0.0,0.0,0.0,0.0,0.0,0.0,0.0,0.0,0.0,0.0,0.0,0.0,0.0,0.0,0.0,0.0,0.0,0.0,0.0,0.0,0.0,0.0,0.0,0.0,0.0,0.0,0.0,0.0,0.0,0.0,0.0,0.0,0.0,0.0,0.0,0.0,0.0,0.0,0.0,0.0,0.0,0.0,0.0,0.0,0.0,0.0,0.0,0.0,0.0,0.0,0.0,0.0,0.0,0.0,0.0,0.0,0.0,0.0,0.0,0.0,0.0,0.0,0.0,0.0,0.0,0.0,0.0,0.0,0.0,0.0,0.0,0.0,0.0,0.0,0.0,0.0,0.0,0.0,0.0,0.0,0.0,0.0,0.0,0.0,0.0,0.0,0.0,0.0,0.0,0.0,0.0,0.0,0.0,0.0,0.0,0.0,0.0,0.0,0.0,0.0,0.0,0.0,0.0,0.0,0.0,0.0,0.0,0.0,0.0,0.0,0.0,0.0,0.0,0.0,0.0,0.0,0.0,0.0,0.0,0.0,0.0,0.0,0.0,0.0,0.0,0.0,0.0,0.0,0.0,0.0,0.0,0.0,0.0,0.0,0.0,0.0,0.0,0.0,0.0,0.0,0.0,0.0,0.0,0.0,0.0,0.0,0.0,0.0,0.0,0.0,0.0,0.0,0.0,0.0,0.0,0.0,0.0,0.0,0.0,0.0,0.0,0.0,0.0,0.0,0.0,0.0,0.0,0.0,0.0,0.0,0.0,0.0,0.0,0.0,0.0,0.0,0.0,0.0,0.0,0.0,0.0,0.0,0.0,0.0,0.0,0.0,0.0,0.0,0.0,0.0,0.0,0.0,0.0,0.0,0.0,0.0,0.0,0.0,0.0,0.0,0.0,0.0,0.0,0.0,0.0,0.0,0.0,0.0,0.0,0.0,0.0,0.0,0.0,0.0,0.0,0.0,0.0,0.0,0.0,0.0,0.0,0.0,0.0,0.0,0.0,0.0,0.0,0.0,0.0,0.0,0.0,0.0,0.0,0.0,0.0,0.0,0.0,0.0,0.0,0.0,0.0,0.0,0.0,0.0,0.0,0.0,0.0,0.0,0.0,0.0,0.0,0.0,0.0,0.0,0.0,0.0,0.0,0.0,0.0,0.0,0.0,0.0,0.0,0.0,0.0,0.0,0.0,0.0,0.0,0.0,0.0,0.0,0.0,0.0,0.0,0.0,0.0,0.0,0.0,0.0,0.0,0.0,0.0,0.0,0.0,0.0,0.0,0.0,0.0,0.0,0.0,0.0,0.0,0.0,0.0,0.0,0.0,0.0,0.0,0.0,0.0,0.0,0.0,0.0,0.0,0.0,0.0,0.0,0.0,0.0,0.0,0.0,0.0,0.0,0.0,0.0,0.0,0.0,0.0,0.0,0.0,0.0,0.0,0.0,0.0,0.0,0.0,0.0,0.0,0.0,0.0,0.0,0.0,0.0,0.0,0.0,0.0,0.0,0.0,0.0,0.0,0.0,0.0,0.0,0.0,0.0,0.0,0.0,0.0,0.0,0.0,0.0,0.0,0.0,0.0,0.0,0.0,0.0,0.0,0.0,0.0,0.0,0.0,0.0,0.0,0.0,0.0,0.0,0.0,0.0,0.0,0.0,0.0,0.0,0.0,0.0,0.0,0.0,0.0,0.0,0.0,0.0,0.0,0.0,0.0,0.0,0.0,0.0,0.0,0.0,0.0,0.0,0.0,0.0,0.0,0.0,0.0,0.0,0.0,0.0,0.0,0.0,0.0,0.0,0.0,0.0,0.0,0.0,0.0,0.0,0.0,0.0,0.0,0.0,0.0,0.0,0.0,0.0,0.0,0.0,0.0,0.0,0.0,0.0,0.0,0.0,0.0,0.0,0.0,0.0,0.0,0.0,0.0,0.0,0.0,0.0,0.0,0.0,0.0,0.0,0.0,0.0,0.0,0.0,0.0,0.0,0.0,0.0,0.0,0.0,0.0,0.0,0.0,0.0,0.0,0.0,0.0,0.0,0.0,0.0,0.0,0.0,0.0,0.0,0.0,0.0,0.0,0.0,0.0,0.0,0.0,0.0,0.0,0.0,0.0,0.0,0.0,0.0,0.0,0.0,0.0,0.0,0.0,0.0,0.0,0.0,0.0,0.0,0.0,0.0,0.0,0.0,0.0,0.0,0.0,0.0,0.0,0.0,0.0,0.0,0.0,0.0,0.0,0.0,0.0,0.0,0.0,0.0,0.0,0.0,0.0,0.0,0.0,0.0,0.0,0.0,0.0,0.0,0.0,0.0,0.0,0.0,0.0,0.0,0.0,0.0,0.0,0.0,0.0,0.0,0.0,0.0,0.0,0.0,0.0,0.0,0.0,0.0,0.0,0.0,0.0,0.0,0.0,0.0,0.0,0.0,0.0,0.0,0.0,0.0,0.0,0.0,0.0,0.0,0.0,0.0,0.0,0.0,0.0,0.0,0.0,0.0,0.0,0.0,0.0,0.0,0.0,0.0,0.0,0.0,0.0,0.0,0.0,0.0,0.0,0.0,0.0,0.0,0.0,0.0,0.0,0.0,0.0,0.0,0.0,0.0,0.0,0.0,0.0,0.0,0.0,0.0,0.0,0.0,0.0,0.0,0.0,0.0,0.0,0.0,0.0,0.0,0.0,0.0,0.0,0.0,0.0,0.0,0.0,0.0,0.0,0.0,0.0,0.0,0.0,0.0,0.0,0.0,0.0,0.0,0.0,0.0,0.0,0.0,0.0,0.0,0.0,0.0,0.0,0.0,0.0,0.0,0.0,0.0,0.0,0.0,0.0,0.0,0.0,0.0,0.0,0.0,0.0,0.0,0.0,0.0,0.0,0.0,0.0,0.0,0.0,0.0,0.0,0.0,0.0,0.0,0.0,0.0,0.0,0.0,0.0,0.0,0.0,0.0,0.0,0.0,0.0,0.0,0.0,0.0,0.0,0.0,0.0,0.0,0.0,0.0,0.0,0.0,0.0,0.0,0.0,0.0,0.0,0.0,0.0,0.0,0.0,0.0,0.0,0.0,0.0,0.0,0.0,0.0,0.0,0.0,0.0,0.0,0.0,0.0,0.0,0.0,0.0,0.0,0.0,0.0,0.0,0.0,0.0,0.0,0.0,0.0,0.0,0.0,0.0,0.0,0.0,0.0,0.0,0.0,0.0,0.0,0.0,0.0,0.0,0.0,0.0,0.0,0.0,0.0,0.0,0.0,0.0,0.0,0.0,0.0,0.0,0.0,0.0,0.0,0.0,0.0,0.0,0.0,0.0,0.0,0.0,0.0,0.0,0.0,0.0,0.0,0.0,0.0,0.0,0.0,0.0,0.0,0.0,0.0,0.0,0.0,0.0,0.0,0.0,0.0,0.0,0.0,0.0,0.0,0.0,0.0,0.0,0.0,0.0,0.0,0.0,0.0,0.0,0.0,0.0,0.0,0.0,0.0,0.0,0.0,0.0,0.0,0.0,0.0,0.0,0.0,0.0,0.0,0.0,0.0,0.0,0.0,0.0,0.0,0.0,0.0,0.0,0.0,0.0,0.0,0.0,0.0,0.0,0.0,0.0,0.0,0.0,0.0,0.0,0.0,0.0,0.0,0.0,0.0,0.0,0.0,0.0,0.0,0.0,0.0,0.0,0.0,0.0,0.0,0.0,0.0,0.0,0.0,0.0,0.0,0.0,0.0,0.0,0.0,0.0,0.0,0.0,0.0,0.0,0.0,0.0,0.0,0.0,0.0,0.0,0.0,0.0,0.0,0.0,0.0,0.0,0.0,0.0,0.0,0.0,0.0,0.0,0.0,0.0,0.0,0.0,0.0,0.0,0.0,0.0,0.0,0.0,0.0,0.0,0.0,0.0,0.0,0.0,0.0,0.0,0.0,0.0,0.0,0.0,0.0,0.0,0.0,0.0,0.0,0.0,0.0,0.0,0.0,0.0,0.0,0.0,0.0,0.0,0.0,0.0,0.0,0.0,0.0,0.0,0.0,0.0,0.0,0.0,0.0,0.0,0.0,0.0,0.0,0.0,0.0,0.0,0.0,0.0,0.0,0.0,0.0,0.0,0.0,0.0,0.0,0.0,0.0,0.0,0.0,0.0,0.0,0.0,0.0,0.0,0.0,0.0,0.0,0.0,0.0,0.0,0.0,0.0,0.0,0.0,0.0,0.0,0.0,0.0,0.0,0.0,0.0,0.0,0.0,0.0,0.0,0.0,0.0,0.0,0.0,0.0,0.0,0.0,0.0,0.0,0.0,0.0,0.0,0.0,0.0,0.0,0.0,0.0,0.0,0.0,0.0,0.0,0.0,0.0,0.0,0.0,0.0,0.0,0.0,0.0,0.0,0.0,0.0,0.0,0.0,0.0,0.0,0.0,0.0,0.0,0.0,0.0,0.0,0.0,0.0,0.0,0.0,0.0,0.0,0.0,0.0,0.0,0.0,0.0,0.0,0.0,0.0,0.0,0.0,0.0,0.0,0.0,0.0,0.0,0.0,0.0,0.0,0.0,0.0,0.0,0.0,0.0,0.0,0.0,0.0,0.0,0.0,0.0,0.0,0.0,0.0,0.0,0.0,0.0,0.0,0.0,0.0,0.0,0.0,0.0,0.0,0.0,0.0,0.0,0.0,0.0,0.0,0.0,0.0,0.0,0.0,0.0,0.0,0.0,0.0,0.0,0.0,0.0,0.0,0.0,0.0,0.0,0.0,0.0,0.0,0.0,0.0,0.0,0.0,0.0,0.0,0.0,0.0,0.0,0.0,0.0,0.0,0.0,0.0,0.0,0.0,0.0,0.0,0.0,0.0,0.0,0.0,0.0,0.0,0.0,0.0,0.0,0.0,0.0,0.0,0.0,0.0,0.0,0.0,0.0,0.0,0.0,0.0,0.0,0.0,0.0,0.0,0.0,0.0,0.0,0.0,0.0,0.0,0.0,0.0,0.0,0.0,0.0,0.0,0.0,0.0,0.0,0.0,0.0,0.0,0.0,0.0,0.0,0.0,0.0,0.0,0.0,0.0,0.0,0.0,0.0,0.0,0.0,0.0,0.0,0.0,0.0,0.0,0.0,0.0,0.0,0.0,0.0,0.0,0.0,0.0,0.0,0.0,0.0,0.0,0.0,0.0,0.0,0.0,0.0,0.0,0.0,0.0,0.0,0.0,0.0,0.0,0.0,0.0,0.0,0.0,0.0,0.0,0.0,0.0,0.0,0.0,0.0,0.0,0.0,0.0,0.0,0.0,0.0,0.0,0.0,0.0,0.0,0.0,0.0,0.0,0.0,0.0,0.0,0.0,0.0,0.0,0.0,0.0,0.0,0.0,0.0,0.0,0.0,0.0,0.0,0.0,0.0,0.0,0.0,0.0,0.0,0.0,0.0,0.0,0.0,0.0,0.0,0.0,0.0,0.0,0.0,0.0,0.0,0.0,0.0,0.0,0.0,0.0,0.0,0.0,0.0,0.0,0.0,0.0,0.0,0.0,0.0,0.0,0.0,0.0,0.0,0.0,0.0,0.0,0.0,0.0,0.0,0.0,0.0,0.0,0.0,0.0,0.0,0.0,0.0,0.0,0.0,0.0,0.0,0.0,0.0,0.0,0.0,0.0,0.0,0.0,0.0,0.0,0.0,0.0,0.0,0.0,0.0,0.0,0.0,0.0,0.0,0.0,0.0,0.0,0.0,0.0,0.0,0.0,0.0,0.0,0.0,0.0,0.0,0.0,0.0,0.0,0.0,0.0,0.0,0.0,0.0,0.0,0.0,0.0,0.0,0.0,0.0,0.0,0.0,0.0,0.0,0.0,0.0,0.0,0.0,0.0,0.0,0.0,0.0,0.0,0.0,0.0,0.0,0.0,0.0,0.0,0.0,0.0,0.0,0.0,0.0,0.0,0.0,0.0,0.0,0.0,0.0,0.0,0.0,0.0,0.0,0.0,0.0,0.0,0.0,0.0,0.0,0.0,0.0,0.0,0.0,0.0,0.0,0.0,0.0,0.0,0.0,0.0,0.0,0.0,0.0,0.0,0.0,0.0,0.0,0.0,0.0,0.0,0.0,0.0,0.0,0.0,0.0,0.0,0.0,0.0,0.0,0.0,0.0,0.0,0.0,0.0,0.0,0.0,0.0,0.0,0.0,0.0,0.0,0.0,0.0,0.0,0.0,0.0,0.0,0.0,0.0,0.0,0.0,0.0,0.0,0.0,0.0,0.0,0.0,0.0,0.0,0.0,0.0,0.0,0.0,0.0,0.0,0.0,0.0,0.0,0.0,0.0,0.0,0.0,0.0,0.0,0.0,0.0,0.0,0.0,0.0,0.0,0.0,0.0,0.0,0.0,0.0,0.0,0.0,0.0,0.0,0.0,0.0,0.0,0.0,0.0,0.0,0.0,0.0,0.0,0.0,0.0,0.0,0.0,0.0,0.0,0.0,0.0,0.0,0.0,0.0,0.0,0.0,0.0,0.0,0.0,0.0,0.0,0.0,0.0,0.0,0.0,0.0,0.0,0.0,0.0,0.0,0.0,0.0,0.0,0.0,0.0,0.0,0.0,0.0,0.0,0.0,0.0,0.0,0.0,0.0,0.0,0.0,0.0,0.0,0.0,0.0,0.0,0.0,0.0,0.0,0.0,0.0,0.0,0.0,0.0,0.0,0.0,0.0,0.0,0.0,0.0,0.0,0.0,0.0,0.0,0.0,0.0,0.0,0.0,0.0,0.0,0.0,0.0,0.0,0.0,0.0,0.0,0.0,0.0,0.0,0.0,0.0,0.0,0.0,0.0,0.0,0.0,0.0,0.0,0.0,0.0,0.0,0.0,0.0,0.0,0.0,0.0,0.0,0.0,0.0,0.0,0.0,0.0,0.0,0.0,0.0,0.0,0.0,0.0,0.0,0.0,0.0,0.0,0.0,0.0,0.0,0.0,0.0,0.0,0.0,0.0,0.0,0.0,0.0,0.0,0.0,0.0,0.0,0.0,0.0,0.0,0.0,0.0,0.0,0.0,0.0,0.0,0.0,0.0,0.0,0.0,0.0,0.0,0.0,0.0,0.0,0.0,0.0,0.0,0.0,0.0,0.0,0.0,0.0,0.0,0.0,0.0,0.0,0.0,0.0,0.0,0.0,0.0,0.0,0.0,0.0,0.0,0.0,0.0,0.0,0.0,0.0,0.0,0.0,0.0,0.0,0.0,0.0,0.0,0.0,0.0,0.0,0.0,0.0,0.0,0.0,0.0,0.0,0.0,0.0,0.0,0.0,0.0,0.0,0.0,0.0,0.0,0.0,0.0,0.0,0.0,0.0,0.0,0.0,0.0,0.0,0.0,0.0,0.0,0.0,0.0,0.0,0.0,0.0,0.0,0.0,0.0,0.0,0.0,0.0,0.0,0.0,0.0,0.0,0.0,0.0,0.0,0.0,0.0,0.0,0.0,0.0,0.0,0.0,0.0,0.0,0.0,0.0,0.0,0.0,0.0,0.0,0.0,0.0,0.0,0.0,0.0,0.0,0.0,0.0,0.0,0.0,0.0,0.0,0.0,0.0,0.0,0.0,0.0,0.0,0.0,0.0,0.0,0.0,0.0,0.0,0.0,0.0,0.0,0.0,0.0,0.0,0.0,0.0,0.0,0.0,0.0,0.0,0.0,0.0,0.0,0.0,0.0,0.0,0.0,0.0,0.0,0.0,0.0,0.0,0.0,0.0,0.0,0.0,0.0,0.0,0.0,0.0,0.0,0.0,0.0,0.0,0.0,0.0,0.0,0.0,0.0,0.0,0.0,0.0,0.0,0.0,0.0,0.0,0.0,0.0,0.0,0.0,0.0,0.0,0.0,0.0,0.0,0.0,0.0,0.0,0.0,0.0,0.0,0.0,0.0,0.0,0.0,0.0,0.0,0.0,0.0,0.0,0.0,0.0,0.0,0.0,0.0,0.0,0.0,0.0,0.0,0.0,0.0,0.0,0.0,0.0,0.0,0.0,0.0,0.0,0.0,0.0,0.0,0.0,0.0,0.0,0.0,0.0,0.0,0.0,0.0,0.0,0.0,0.0,0.0,0.0,0.0,0.0,0.0,0.0,0.0,0.0,0.0,0.0,0.0,0.0,0.0,0.0,0.0,0.0,0.0,0.0,0.0,0.0,0.0,0.0,0.0,0.0,0.0,0.0,0.0,0.0,0.0,0.0,0.0,0.0,0.0,0.0,0.0,0.0,0.0,0.0,0.0,0.0,0.0,0.0,0.0,0.0,0.0,0.0,0.0,0.0,0.0,0.0,0.0,0.0,0.0,0.0,0.0,0.0,0.0,0.0,0.0,0.0,0.0,0.0,0.0,0.0,0.0,0.0,0.0,0.0,0.0,0.0,0.0,0.0,0.0,0.0,0.0,0.0,0.0,0.0,0.0,0.0,0.0,0.0,0.0,0.0,0.0,0.0,0.0,0.0,0.0,0.0,0.0,0.0,0.0,0.0,0.0,0.0,0.0,0.0,0.0,0.0,0.0,0.0,0.0,0.0,0.0,0.0,0.0,0.0,0.0,0.0,0.0,0.0,0.0,0.0,0.0,0.0,0.0,0.0,0.0,0.0,0.0,0.0,0.0,0.0,0.0,0.0,0.0,0.0,0.0,0.0,0.0,0.0,0.0,0.0,0.0,0.0,0.0,0.0,0.0,0.0,0.0,0.0,0.0,0.0,0.0,0.0,0.0,0.0,0.0,0.0,0.0,0.0,0.0,0.0,0.0,0.0,0.0,0.0,0.0,0.0,0.0,0.0,0.0,0.0,0.0,0.0,0.0,0.0,0.0,0.0,0.0,0.0,0.0,0.0,0.0,0.0,0.0,0.0,0.0,0.0,0.0,0.0,0.0,0.0,0.0,0.0,0.0,0.0,0.0,0.0,0.0,0.0,0.0,0.0,0.0,0.0,0.0,0.0,0.0,0.0,0.0,0.0,0.0,0.0,0.0,0.0,0.0,0.0,0.0,0.0,0.0,0.0,0.0,0.0,0.0,0.0,0.0,0.0,0.0,0.0,0.0,0.0,0.0,0.0,0.0,0.0,0.0,0.0,0.0,0.0,0.0,0.0,0.0,0.0,0.0,0.0,0.0,0.0,0.0,0.0,0.0,0.0,0.0,0.0,0.0,0.0,0.0,0.0,0.0,0.0,0.0,0.0,0.0,0.0,0.0,0.0,0.0,0.0,0.0,0.0,0.0,0.0,0.0,0.0,0.0,0.0,0.0,0.0,0.0,0.0,0.0,0.0,0.0,0.0,0.0,0.0,0.0,0.0,0.0,0.0,0.0,0.0,0.0,0.0,0.0,0.0,0.0,0.0,0.0,0.0,0.0,0.0,0.0,0.0,0.0,0.0,0.0,0.0,0.0,0.0,0.0,0.0,0.0,0.0,0.0,0.0,0.0,0.0,0.0,0.0,0.0,0.0,0.0,0.0,0.0,0.0,0.0,0.0,0.0,0.0,0.0,0.0,0.0,0.0,0.0,0.0,0.0,0.0,0.0,0.0,0.0,0.0,0.0,0.0,0.0,0.0,0.0,0.0,0.0,0.0,0.0,0.0,0.0,0.0,0.0,0.0,0.0,0.0,0.0,0.0,0.0,0.0,0.0,0.0,0.0,0.0,0.0,0.0,0.0,0.0,0.0,0.0,0.0,0.0,0.0,0.0,0.0,0.0,0.0,0.0,0.0,0.0,0.0,0.0,0.0,0.0,0.0,0.0,0.0,0.0,0.0,0.0,0.0,0.0,0.0,0.0,0.0,0.0,0.0,0.0,0.0,0.0,0.0,0.0,0.0,0.0,0.0,0.0,0.0,0.0,0.0,0.0,0.0,0.0,0.0,0.0,0.0,0.0,0.0,0.0,0.0,0.0,0.0,0.0,0.0,0.0,0.0,0.0,0.0,0.0,0.0,0.0,0.0,0.0,0.0,0.0,0.0,0.0,0.0,0.0,0.0,0.0,0.0,0.0,0.0,0.0,0.0,0.0,0.0,0.0,0.0,0.0,0.0,0.0,0.0,0.0,0.0,0.0,0.0,0.0,0.0,0.0,0.0,0.0,0.0,0.0,0.0,0.0,0.0,0.0,0.0,0.0,0.0,0.0,0.0,0.0,0.0,0.0,0.0,0.0,0.0,0.0,0.0,0.0,0.0,0.0,0.0,0.0,0.0,0.0,0.0,0.0,0.0,0.0,0.0,0.0,0.0,0.0,0.0,0.0,0.0,0.0,0.0,0.0,0.0,0.0,0.0,0.0,0.0,0.0,0.0,0.0,0.0,0.0,0.0,0.0,0.0,0.0,0.0,0.0,0.0,0.0,0.0,0.0,0.0,0.0,0.0,0.0,0.0,0.0,0.0,0.0,0.0,0.0,0.0,0.0,0.0,0.0,0.0,0.0,0.0,0.0,0.0,0.0,0.0,0.0,0.0,0.0,0.0,0.0,0.0,0.0,0.0,0.0,0.0,0.0,0.0,0.0,0.0,0.0,0.0,0.0,0.0,0.0,0.0,0.0,0.0,0.0,0.0,0.0,0.0,0.0,0.0,0.0,0.0,0.0,0.0,0.0,0.0,0.0,0.0,0.0,0.0,0.0,0.0,0.0,0.0,0.0,0.0,0.0,0.0,0.0,0.0,0.0,0.0,0.0,0.0,0.0,0.0,0.0,0.0,0.0,0.0,0.0,0.0,0.0,0.0,0.0,0.0,0.0,0.0,0.0,0.0,0.0,0.0,0.0,0.0,0.0,0.0,0.0,0.0,0.0,0.0,0.0,0.0,0.0,0.0,0.0,0.0,0.0,0.0,0.0,0.0,0.0,0.0,0.0,0.0,0.0,0.0,0.0,0.0,0.0,0.0,0.0,0.0,0.0,0.0,0.0,0.0,0.0,0.0,0.0,0.0,0.0,0.0,0.0,0.0,0.0,0.0,0.0,0.0,0.0,0.0,0.0,0.0,0.0,0.0,0.0,0.0,0.0,0.0,0.0,0.0,0.0,0.0,0.0,0.0,0.0,0.0,0.0,0.0,0.0,0.0,0.0,0.0,0.0,0.0,0.0,0.0,0.0,0.0,0.0,0.0,0.0,0.0,0.0,0.0,0.0,0.0,0.0,0.0,0.0,0.0,0.0,0.0,0.0,0.0,0.0,0.0,0.0,0.0,0.0,0.0,0.0,0.0,0.0,0.0,0.0,0.0,0.0,0.0,0.0,0.0,0.0,0.0,0.0,0.0,0.0,0.0,0.0,0.0,0.0,0.0,0.0,0.0,0.0,0.0,0.0,0.0,0.0,0.0,0.0,0.0,0.0,0.0,0.0,0.0,0.0,0.0,0.0,0.0,0.0,0.0,0.0,0.0,0.0,0.0,0.0,0.0,0.0,0.0,0.0,0.0,0.0,0.0,0.0,0.0,0.0,0.0,0.0,0.0,0.0,0.0,0.0,0.0,0.0,0.0,0.0,0.0,0.0,0.0,0.0,0.0,0.0,0.0,0.0,0.0,0.0,0.0,0.0,0.0,0.0,0.0,0.0,0.0,0.0,0.0,0.0,0.0,0.0,0.0,0.0,0.0,0.0,0.0,0.0,0.0,0.0,0.0,0.0,0.0,0.0,0.0,0.0,0.0,0.0,0.0,0.0,0.0,0.0,0.0,0.0,0.0,0.0,0.0,0.0,0.0,0.0,0.0,0.0,0.0,0.0,0.0,0.0,0.0,0.0,0.0,0.0,0.0,0.0,0.0,0.0,0.0,0.0,0.0,0.0,0.0,0.0,0.0,0.0,0.0,0.0,0.0,0.0,0.0,0.0,0.0,0.0,0.0,0.0,0.0,0.0,0.0,0.0,0.0,0.0,0.0,0.0,0.0,0.0,0.0,0.0,0.0,0.0,0.0,0.0,0.0,0.0,0.0,0.0,0.0,0.0,0.0,0.0,0.0,0.0,0.0,0.0,0.0,0.0,0.0,0.0,0.0,0.0,0.0,0.0,0.0,0.0,0.0,0.0,0.0,0.0,0.0,0.0,0.0,0.0,0.0,0.0,0.0,0.0,0.0,0.0,0.0,0.0,0.0,0.0,0.0,0.0,0.0,0.0,0.0,0.0,0.0,0.0,0.0,0.0,0.0,0.0,0.0,0.0,0.0,0.0,0.0,0.0,0.0,0.0,0.0,0.0,0.0,0.0,0.0,0.0,0.0,0.0,0.0,0.0,0.0,0.0,0.0,0.0,0.0,0.0,0.0,0.0,0.0,0.0,0.0,0.0,0.0,0.0,0.0,0.0,0.0,0.0,0.0,0.0,0.0,0.0,0.0,0.0,0.0,0.0,0.0,0.0,0.0,0.0,0.0,0.0,0.0,0.0,0.0,0.0,0.0,0.0,0.0,0.0,0.0,0.0,0.0,0.0,0.0,0.0,0.0,0.0,0.0,0.0,0.0,0.0,0.0,0.0,0.0,0.0,0.0,0.0,0.0,0.0,0.0,0.0,0.0,0.0,0.0,0.0,0.0,0.0,0.0,0.0,0.0,0.0,0.0,0.0,0.0,0.0,0.0,0.0,0.0,0.0,0.0,0.0,0.0,0.0,0.0,0.0,0.0,0.0,0.0,0.0,0.0,0.0,0.0,0.0,0.8844,0.0,0.0,0.0,0.0,0.0,0.0,0.0,0.0,0.0,0.0,0.0,0.0,0.0,0.0,0.0,0.0,0.0,0.0,0.0,0.0,0.0,0.0,0.0,0.0,0.0,0.0,0.0,0.0,0.0,0.0,0.0,0.0,0.0,0.0,0.0,0.0,0.0,0.0,0.0,0.0,0.0,0.0,0.0,0.0,0.0,0.0,0.0,0.0,0.0,0.0,0.0,0.0,0.0,0.0,0.0,0.0,0.0,0.0,0.0,0.0,0.0,0.0,0.0,0.0,0.0328,0.0364,0.0,0.0,0.0,0.0,0.0,0.0,0.0,0.0,0.0,0.0,0.0,0.0,0.0,0.0,0.0,0.0,0.0,0.0,0.0,0.0,0.0,0.0,0.0,0.0,0.0,0.0,0.0,0.0,0.0,0.0,0.0,0.0,0.0,0.0,0.0,0.0,0.0,0.0,0.0,0.0,0.0,0.0,0.0,0.0,0.0,0.0,0.0,0.0,0.0,0.0,0.0,0.0,0.0,0.0,0.0,0.0,0.0,0.0,0.0,0.0,0.0,0.0,0.0,0.0,0.0,0.0,0.0,0.0,0.0,0.0,0.0,0.0,0.0,0.0,0.0,0.0,0.0,0.0,0.0,0.0,0.0,0.0,0.0,0.0,0.0,0.0,0.0,0.0,0.0,0.0,0.0,0.0,0.0,0.0,0.0,0.0,0.0,0.0,0.0,0.0,0.0,0.0,0.0,0.0,0.0,0.0,0.0,0.0,0.0,0.0,0.0,0.0,0.0,0.0828,0.0867,0.0056,0.0,0.0,0.0,0.0,0.0,0.0,0.0,0.0,0.0,0.0,0.0,0.0,0.0,0.0,0.0,0.0,0.0,0.0,0.0,0.0,0.0,0.0,0.0,0.0,0.0,0.0,0.0,0.0,0.0,0.0,0.0,0.0,0.0,0.0,0.0,0.0,0.0,0.0,0.8785,0.9031,0.0,0.0,0.0,0.0,0.0,0.0,0.0,0.0,0.9365,0.0,0.0,0.0,0.0,0.0,0.0,0.0,0.0,0.0,0.0,0.0,0.0,0.0,0.0,0.0,0.0,0.0,0.0,0.0,0.0,0.0,0.0,0.0,0.0,0.0,0.0,0.0,0.0,0.0,0.0,0.0,0.0,0.0,0.0,0.0,0.0,0.0,0.0,0.0,0.0,0.0,0.0,0.0,0.0,0.0,0.0,0.0,0.0,0.0,0.0,0.0,0.0,0.0,0.0,0.0,0.0,0.0,0.0,0.0,0.0,0.0,0.0,0.0,0.1312,0.1369,0.0154,0.0,0.0,0.0,0.0,0.0,0.0,0.0,0.0,0.0,0.0,0.0,0.0,0.0,0.0,0.0,0.0,0.0,0.0,0.0,0.0,0.0,0.0,0.0,0.0,0.0,0.0,0.0,0.0,0.0,0.0,0.0,0.0,0.0,0.0,0.0,0.0,0.0,0.0,0.0,0.9031,0.9304,0.0,0.0,0.0,0.0,0.0,0.0,0.0,0.0,0.9932,0.0,0.0,0.0,0.0,0.0,0.0,0.0,0.0,0.0,0.0,0.0,0.0,0.0,0.0,0.0,0.0,0.0,0.0,0.0,0.0,0.0,0.0,0.0,0.0,0.0,0.0,0.0,0.0,0.0,0.0,0.0,0.0,0.0,0.0,0.0,0.0,0.0,0.0,0.0,0.0,0.0,0.0,0.0,0.0,0.0,0.0,0.0,0.0,0.0,0.0,0.0,0.0,0.0,0.0,0.0,0.0,0.0,0.0,0.0,0.0,0.0,0.0,0.1057,0.1118,0.0,0.0,0.0,0.0,0.0,0.0,0.0,0.0,0.0,0.0,0.0,0.0,0.0,0.0,0.0,0.0,0.0,0.0,0.0,0.0,0.0,0.0,0.0,0.0,0.0,0.0,0.0,0.0,0.0,0.0,0.0,0.0,0.0,0.0,0.0,0.0,0.0,0.0,0.0,0.0,0.9111,0.9317,0.966,0.0,0.0,0.0,0.0,0.0,0.0,0.9818,1.0052,0.0,0.0,0.0,0.0,0.0,0.0,0.0,0.0,0.0,0.0,0.0,0.0,0.0,0.0,0.0,0.0,0.0,0.0,0.0,0.0,0.0,0.0,0.0,0.0,0.0,0.0,0.0,0.0,0.0,0.0,0.0,0.0,0.0,0.0,0.0,0.0,0.0,0.0,0.0,0.0,0.0,0.0,0.0,0.0,0.0,0.0,0.0,0.0,0.0,0.0,0.0,0.0,0.0,0.0,0.0,0.0,0.0,0.0,0.0,0.0,0.0,0.0,0.0707,0.0825,0.0,0.0,0.0,0.0,0.0,0.0,0.0,0.0,0.0,0.0,0.0,0.0,0.0,0.0,0.0,0.0,0.0,0.0,0.0,0.0,0.0,0.0,0.0,0.0,0.0,0.0,0.0,0.0,0.0,0.0,0.0,0.0,0.0,0.0,0.0,0.0,0.0,0.0,0.0,0.0,0.0,0.9471,0.9733,0.9734,0.0,0.0,0.0,0.0,0.9788,1.006,0.0,0.0,0.0,0.0,0.0,0.0,0.0,0.0,0.0,0.0,0.0,0.0,0.0,0.0,0.0,0.0,0.0,0.0,0.0,0.0,0.0,0.0,0.0,0.0,0.0,0.0,0.0,0.0,0.0,0.0,0.0,0.0,0.0,0.0,0.0,0.0,0.0,0.0,0.0,0.0,0.0,0.0,0.0,0.0,0.0,0.0,0.0,0.0,0.0,0.0,0.0,0.0,0.0,0.0,0.0,0.0,0.0,0.0,0.0,0.0,0.0,0.0,0.0,0.0714,0.1062,0.0,0.0,0.0,0.0,0.0,0.0,0.0,0.0,0.0,0.0,0.0,0.0,0.0,0.0,0.0,0.0,0.0,0.0,0.0,0.0,0.0,0.0,0.0,0.0,0.0,0.0,0.0,0.0,0.0,0.0,0.0,0.0,0.0,0.0,0.0,0.0,0.0,0.0,0.0,0.0,0.0,1.0012,1.0045,0.9853,0.978,0.0,0.0,1.0052,1.0052,1.0528,0.0,0.0,0.0,0.0,0.0,0.0,0.0,0.0,0.0,0.0,0.0,0.0,0.0,0.0,0.0,0.0,0.0,0.0,0.0,0.0,0.0,0.0,0.0,0.0,0.0,0.0,0.0,0.0,0.0,0.0,0.0,0.0,0.0,0.0,0.0,0.0,0.0,0.0,0.0,0.0,0.0,0.0,0.0,0.0,0.0,0.0,0.0,0.0,0.0,0.0,0.0,0.0,0.0,0.0,0.0,0.0,0.0,0.0,0.0,0.0,0.0,0.0,0.0,0.0302,0.0476,0.0,0.0,0.0,0.0,0.0,0.0,0.0,0.0,0.0,0.0,0.0,0.0,0.0,0.0,0.0,0.0,0.0,0.0,0.0,0.0,0.0,0.0,0.0,0.0,0.0,0.0,0.0,0.0,0.0,0.0,0.0,0.0,0.0,0.0,0.0,0.0,0.0,0.0,0.0,0.0,0.0,0.0,1.0105,1.0294,0.0,0.0,0.0,1.0621,1.0615,0.0,0.0,0.0,0.0,0.0,0.0,0.0,0.0,0.0,0.0,0.0,0.0,0.0,0.0,0.0,0.0,0.0,0.0,0.0,0.0,0.0,0.0,0.0,0.0,0.0,0.0,0.0,0.0,0.0,0.0,0.0,0.0,0.0,0.0,0.0,0.0,0.0,0.0,0.0,0.0,0.0,0.0,0.0,0.0,0.0,0.0,0.0,0.0,0.0,0.0,0.0,0.0,0.0,0.0,0.0,0.0,0.0,0.0,0.0,0.0,0.0,0.0,0.0,0.0,0.0,0.0,0.0,0.0,0.0,0.0,0.0,0.0,0.0,0.0,0.0,0.0,0.0,0.0,0.0,0.0,0.0,0.0,0.0,0.0,0.0,0.0,0.0,0.0,0.0,0.0,0.0,0.0,0.0,0.0,0.0,0.0,0.0,0.0,0.0,0.0,0.0,0.0,0.0,0.0,0.0,0.0,0.0,1.0086,1.0303,1.0775,1.1086,0.0,0.0,1.1076,1.1025,1.1072,1.0992,0.0,0.0,0.0,0.0,0.0,0.0,0.0,0.0,0.0,0.0,0.0,0.0,0.0,0.0,0.0,0.0,0.0,0.0,0.0,0.0,0.0,0.0,0.0,0.0,0.0,0.0,0.0,0.0,0.0,0.0,0.0,0.0,0.0,0.0,0.0,0.0,0.0,0.0,0.0,0.0,0.0,0.0,0.0,0.0,0.0,0.0,0.0,0.0,0.0,0.0,0.0,0.0,0.0,0.0,0.0,0.0,0.0,0.0,0.0,0.0,0.0,0.0,0.0,0.0322,0.0,0.0,0.0,0.0,0.0,0.0,0.0,0.0,0.0,0.0,0.0,0.0,0.0,0.0,0.0,0.0,0.0,0.0,0.0,0.0,0.0,0.0,0.0,0.0,0.0,0.0,0.0,0.0,0.0,0.0,0.0,0.0,0.0,0.0,0.0,0.0,0.0,0.0,0.0,0.0,0.0,1.004,1.082,1.1186,1.1362,0.0,0.0,1.1303,1.1052,1.1223,1.1186,1.0687,0.0,0.0,0.0,0.0,0.0,0.0,0.0,0.0,0.0,0.0,0.0,0.0,0.0,0.0,0.0,0.0,0.0,0.0,0.0,0.0,0.0,0.0,0.0,0.0,0.0,0.0,0.0,0.0,0.0,0.0,0.0,0.0,0.0,0.0,0.0,0.0,0.0,0.0,0.0,0.0,0.0,0.0,0.0,0.0,0.0,0.0,0.0,0.0,0.0,0.0,0.0,0.0,0.0,0.0,0.0,0.0,0.0,0.0,0.0,0.0,0.0,0.0,0.014,0.0,0.0,0.0,0.0,0.0,0.0,0.0,0.0,0.0,0.0,0.0,0.0,0.0,0.0,0.0,0.0,0.0,0.0,0.0,0.0,0.0,0.0,0.0,0.0,0.0,0.0,0.0,0.0,0.5256,0.529,0.529,0.0,0.0,0.0,0.0,0.0,0.0,0.0,0.0,0.0,0.0,1.0867,1.1188,1.1646,0.0,0.0,1.1703,1.1681,1.1567,1.1452,1.1266,1.0889,1.0807,0.0,0.0,0.0,0.0,0.0,0.0,0.0,0.0,0.0,0.0,0.0,0.0,0.0,0.0,0.0,0.0,0.0,0.0,0.0,0.0,0.0,0.0,0.0,0.0,0.0,0.0,0.0,0.0,0.0,0.0,0.0,0.0,0.0,0.0,0.0,0.0,0.0,0.0,0.0,0.0,0.0,0.0,0.0,0.0,0.0,0.0,0.0,0.0,0.0,0.0,0.0,0.0,0.0,0.0,0.0,0.0,0.0,0.0,0.0,0.0,0.0,0.0,0.0,0.0,0.0,0.0,0.0,0.0,0.0,0.0,0.0,0.0,0.0,0.0,0.0,0.0,0.0,0.0,0.0,0.0,0.0,0.0,0.0,0.0,0.0,0.0,0.0,0.0,0.0,0.0,0.5395,0.5395,0.5412,0.0,0.0,0.0,0.0,0.0,0.0,0.0,0.0,0.0,0.0,1.0915,1.1139,1.1911,1.2343,1.208,1.2022,1.1962,1.1781,1.1693,1.153,1.1069,0.0,0.0,0.0,0.0,0.0,0.0,0.0,0.0,0.0,0.0,0.0,0.0,0.0,0.0,0.0,0.0,0.0,0.0,0.0,0.0,0.0,0.0,0.0,0.0,0.0,0.0,0.0,-0.219,0.0,0.0,-0.2093,0.0,0.0,0.0,0.0,0.0,0.0,0.0,0.0,0.0,0.0,0.0,0.0,0.0,0.0,0.0,0.0,0.0,0.0,0.0,0.0,0.0,0.0,0.0,0.0,0.0,0.0,0.0,0.0,0.0,0.0,0.0,0.0,0.0,0.0,0.0,0.0,0.0,0.0,0.0,0.0,0.0,0.0,0.0,0.0,0.0,0.0,0.0,0.0,0.0,0.0,0.0,0.0,0.0,0.0,0.0,0.0,0.0,0.0,0.0,0.5395,0.5395,0.5395,0.0,0.0,0.0,0.0,0.0,0.0,0.0,0.0,0.0,0.0,0.9084,0.9836,1.0572,1.1885,1.2677,1.2351,1.2305,1.2086,1.1542,1.1906,1.1991,0.0,0.0,0.0,0.0,0.0,0.0,0.0,0.0,0.0,0.0,0.0,0.0,0.0,0.0,0.0,0.0,0.0,0.0,0.0,0.0,0.0,0.0,0.0,0.0,0.0,0.0,0.0,-0.0737,-0.0735,0.0,0.0,0.0,0.0,0.0,0.0,0.0,0.0,0.0,0.0,0.0,0.0,0.0,0.0,0.0,0.0,0.0,0.0,0.0,0.0,0.0,0.0,0.0,0.0,0.0,0.0,0.0,0.0,0.0,0.0,0.0,0.0,0.0,0.0,0.0,0.0,0.0,0.0,0.0,0.0,0.0,0.0,0.0,0.0,0.0,0.0,0.0,0.0,0.0,0.0,0.0,0.0,0.0,0.0,0.0,0.0,0.0,0.0,0.0,0.0,0.0,0.5395,0.0,0.0,0.0,0.0,0.0,0.0,0.0,0.0,0.0,0.0,0.0,0.8723,0.9729,1.0724,1.1521,1.1992,1.264,1.3039,0.0,0.0,0.0,0.0,0.0,0.0,0.0,0.0,0.0,0.0,0.0,0.0,0.0,0.0,1.2886,1.1922,1.1557,1.1466,1.1708,0.0,0.0,0.0,0.0,0.0,0.0,0.0,0.0,0.0,0.0,0.0,0.0,0.0,0.0,0.0,0.0,0.0,0.0,0.0,0.0,0.0,0.0,0.0,0.0,0.0,0.0,0.0,0.0,0.0,0.0,0.0,0.0,0.0,0.0,0.0,0.0,0.0,0.0,0.0,0.0,0.0,0.0,0.0,0.0,0.0,0.0,0.0,0.0,0.0,0.0,0.0,0.0,0.0544,0.0586,0.0,0.0,0.0,0.0,0.0,0.0,0.0,0.0,0.0,0.0,0.0,0.0,0.0,0.0,0.0,0.0,0.0,0.0,0.0,0.0,0.0,0.0,0.0,0.5395,0.0,0.0,0.0,0.0,0.0,0.0,0.0,0.0,0.0,0.7826,0.8302,0.8962,1.0116,1.1321,1.219,1.2446,0.0,0.0,0.0,0.0,0.0,0.0,0.0,1.3013,1.2939,1.2865,1.2953,1.3454,1.3834,1.4109,1.4109,0.0,0.0,1.2857,1.2478,1.2393,1.2643,1.2658,1.2797,1.3172,1.3079,1.2946,0.0,0.0,0.0,0.0,0.0,0.0,0.0,0.0,-0.0293,0.0,0.0,0.0,0.0,0.0,0.0,0.0,0.0,0.0,0.0,0.0,0.0,0.0,0.0,0.0,0.0,0.0,0.0,0.0,0.0,0.0,0.0,0.0,0.0,0.0,0.0,0.0,0.0,0.0,0.0,0.0,0.0,0.0,0.0,0.0,0.0,0.0,0.0,0.0061,0.0031,0.0,0.0097,0.0,0.0,0.0,0.0,0.0,0.0,0.0,0.0,0.0,0.0,0.0,0.0,0.0,0.0,0.0,0.0,0.0,0.0,0.0,0.0,0.5405,0.0,0.0,0.0,0.0,0.0,0.0,0.0,0.0,0.0,0.0,0.7168,0.8163,0.9045,0.9633,0.0,0.0,0.0,0.0,1.3182,1.1963,1.2845,1.3111,1.1534,1.3075,1.4194,1.3393,0.0,0.0,1.4203,1.4142,1.4175,1.4148,1.4223,1.4142,1.4142,1.4041,1.4015,1.4041,1.4042,1.4109,1.4122,1.4109,1.3995,-0.1251,0.0,0.0,0.0,0.0,-0.0631,-0.0316,-0.0295,-0.0094,0.0,0.0,0.0,0.0,0.0,0.0,0.0,0.0,0.0,0.0,0.0,0.0,0.0,0.0,0.0,0.0,0.0,0.0,0.0,0.0,0.0,0.0,0.0,0.0,0.0,0.0,0.0,0.0,0.0,0.0,0.0,0.0,0.0,0.0,0.0,0.0,0.0,0.0,0.0595,0.0639,0.0048,0.123,0.0,0.0,0.0,0.0,0.0,0.0,0.0,0.0,0.0,0.0,0.0,0.0,0.0,0.0,0.0,0.0,0.0,0.0,0.0,0.5532,0.563,0.5677,0.0,0.0,0.0,0.0,0.0,0.0,0.0,0.0,0.0,0.8682,0.9091,0.9409,0.0,0.0,1.2623,1.2242,1.3195,1.3644,1.2749,1.3746,0.0,1.2702,1.3614,1.4509,1.4491,1.485,1.5117,1.5037,1.519,1.5308,1.5301,1.5308,1.5308,1.5261,1.4636,1.4215,1.4335,1.4374,1.4521,1.491,1.4892,1.4772,-0.0519,-0.1276,-0.085,-0.066,-0.0627,-0.0182,0.0,0.0,0.0,0.0,0.0,0.0,0.0,0.0,0.0,0.0,0.0,0.0,0.0,0.0,0.0,0.0,0.0,0.0,0.0,0.0,0.0,0.0,0.0,0.0,0.0,0.0,0.0,0.0,0.0,0.0,0.0,0.0,0.0,0.0,0.0,0.0,0.0,0.0,0.0,0.0,0.0,0.0501,0.0558,0.0049,0.1363,0.1876,0.0,0.0,0.0,0.0,0.0,0.0,0.0,0.0,0.0,0.0,0.0,0.5395,0.0,0.0,0.0,0.0,0.5436,0.5532,0.5678,0.5752,0.0,0.0,0.0,0.0,0.0,0.0,0.0,0.6061,0.7288,0.8409,0.9098,1.0079,1.087,1.1207,1.2583,1.3467,1.3218,0.0,1.4145,1.3294,1.4286,1.4686,1.3399,1.419,1.5104,1.5271,1.5451,1.5565,1.5571,1.5695,1.5801,1.5801,1.5801,1.5801,1.5801,1.5214,1.4794,1.4974,1.5014,1.5141,1.5511,1.5424,1.5364,0.0,0.0,0.0,0.0,0.0,0.0,0.0,0.0,0.0,0.0,0.0,0.0,0.0,0.0,0.0,0.0,0.0,0.0,0.0,0.0,0.0,0.0,0.0,0.0,0.0,0.0,0.0,0.0,0.0,0.0,0.0,0.0,0.0,0.0,0.0,0.0,0.0,0.0,0.0,0.0,0.0,0.0126,0.0104,0.0,0.0,0.0,0.0,0.0,0.0,0.0,0.0906,0.1408,0.1441,0.0,0.0,0.0,0.0,0.0,0.0,0.0,0.0,0.0,0.0,0.0,0.0,0.0,0.0,0.0,0.5552,0.0,0.5806,0.5833,0.0,0.0,0.0,0.589,0.6032,0.6222,0.6385,0.6498,0.0,0.0,0.8691,1.0878,1.2681,1.328,1.3842,1.4241,1.4418,1.4756,1.466,1.3595,1.457,1.4948,1.3742,1.4717,1.5728,1.5741,1.5801,1.5788,1.5788,1.5795,1.5801,1.5801,1.5801,1.5801,1.5801,1.5748,1.5801,1.5755,1.5768,1.5781,1.5781,1.5768,1.5755,0.0,0.0,0.0,0.0,0.0,0.0,0.0,0.0,0.0,0.0,0.0,0.0,0.0,0.0,0.0,0.0,0.0,0.0,0.0,0.0,0.0,0.0,0.0,0.0,0.0,0.0,0.0,0.0,0.0,0.0,0.0,0.0,0.0,0.0,0.0,0.0,0.0,0.0,0.0804,0.1206,0.1227,0.1222,0.082,0.0,0.0,0.0,0.0,0.0,0.0,0.0,0.1509,0.2359,0.2394,0.3896,0.0,0.0,0.0,0.0,0.0,0.0,0.0,0.0,0.0,0.5712,0.5715,0.0,0.5712,0.0,0.5837,0.592,0.5954,0.6103,0.0,0.0,0.6267,0.6348,0.6386,0.6525,0.6627,0.6661,0.7806,0.864,0.8708,1.0166,1.1294,1.1483,1.3397,1.4589,1.4037,1.4704,1.4945,1.4129,1.4889,1.524,1.4165,1.4899,1.5801,1.5801,1.5801,1.5801,1.5801,1.5801,1.5801,1.5801,1.5801,1.5801,1.5801,1.5801,1.5801,1.5801,1.5801,1.5801,1.5801,1.5801,1.5801,0.0,0.0,0.0,0.0,0.0,0.0,0.0,0.0,0.0,0.0,0.0,0.0,0.0,0.0,0.0,0.0,0.0,0.0,0.0,0.0,0.0,0.0,0.0,0.0,0.0,0.0,0.0,0.0,0.0,0.0,0.0,0.0,0.0,0.0,0.0,0.0,0.0,0.0,0.0584,0.0876,0.0883,0.0878,0.0588,0.0,0.0,0.0,0.0,0.0,0.0185,0.0588,0.1927,0.2878,0.3278,0.4675,0.5481,0.0,0.0,0.0,0.0,0.0,0.0,0.0,0.0,0.0,0.0,0.0,0.583,0.588,0.5961,0.6039,0.6125,0.6287,0.6395,0.6392,0.6508,0.6593,0.6593,0.6709,0.6803,0.6803,0.7965,0.8806,0.8909,1.0635,1.1882,1.1951,1.3923,1.4906,1.3951,1.471,1.5356,1.4877,1.5343,1.5605,1.483,1.5337,1.5801,1.5801,1.5801,1.5801,1.5801,1.5801,1.5801,1.5801,1.5801,1.5801,1.5801,1.5801,1.5801,1.5801,1.5801,1.5801,1.5801,1.5801,1.5801,0.0,0.0,0.0,0.0,0.0,0.0,0.0,0.0,0.0,0.0,0.0,0.0,0.0,0.0,0.0,0.0,0.0,0.0,0.0,0.0,0.0,0.0,0.0,0.0,0.0,0.0,0.0,0.0,0.0,0.0,0.0,0.0,0.0,0.0,0.0,0.0,0.0079,0.0198,0.0198,0.0198,0.0217,0.0207,0.0146,0.0,0.0,0.0,0.0,0.0,0.0353,0.1107,0.2167,0.3062,0.3837,0.4977,0.5634,0.0,0.5752,0.0,0.0,0.0,0.0,0.0,0.0,0.0,0.0,0.5861,0.5922,0.6055,0.6066,0.6149,0.6344,0.645,0.6522,0.6549,0.6637,0.6729,0.6736,0.6843,0.6935,0.6935,0.7974,0.8788,0.9111,1.1277,1.2791,1.3008,1.4315,1.4894,1.3926,1.4815,1.5764,1.5801,1.5801,1.5754,1.5706,1.5754,1.5801,1.5801,1.5801,1.5801,1.5801,1.5801,1.5801,1.5801,1.5801,1.5801,1.5801,1.5801,1.5801,1.5801,1.5801,1.5801,1.5801,1.5801,1.5801,0.0,0.0,0.0,0.0,0.0,0.0,0.0,0.0,0.0,0.0,0.0,0.0,0.0,0.0,0.0,0.0,0.0,0.0,0.0,0.0,0.0,0.0,0.0,0.0,0.0,0.0,0.0,0.0,0.0,0.0,0.0,0.0,0.0,0.0,0.0,0.0,0.0,0.0,0.1304,0.1294,0.129,0.1309,0.0892,0.0,0.0,0.0,0.0,0.0,0.0084,0.0286,0.1918,0.0,0.0,0.0,0.0,0.0,0.0,0.0,0.0,0.0,0.0,0.0,0.6245,0.6192,0.6192,0.6214,0.6253,0.6373,0.6409,0.6471,0.66,0.6641,0.6658,0.6661,0.6772,0.6864,0.6888,0.697,0.7055,0.708,0.7435,0.8001,0.8849,0.9856,1.0782,1.167,1.3161,1.4076,1.3856,1.4935,1.5778,1.5801,1.5801,1.5801,1.5801,1.5801,1.5801,1.5801,1.5801,1.5801,1.5801,1.5801,1.5801,1.5801,1.5801,1.5801,1.5801,1.5801,1.5801,1.5801,1.5801,1.5801,1.5801,1.5801,1.5801,0.0,0.0,0.0,0.0,0.0,0.0,0.0,0.0,0.0,0.0,0.0,0.0,0.0,0.0,0.0,0.0,0.0,0.0,0.0,0.0,0.0,0.0,0.0,0.0,0.0,0.0,0.0,0.0,0.0,0.0,0.0,0.0,0.0,0.0,0.0,0.0,0.028,0.0798,0.0798,0.081,0.0813,0.0804,0.0552,0.0,0.0,0.0,0.0,0.0,0.0,0.0,0.0,0.0,0.0,0.5321,0.0,0.59,0.6057,0.6142,0.6146,0.6255,0.6334,0.6402,0.6474,0.6464,0.6392,0.6454,0.6529,0.6597,0.6607,0.6637,0.6692,0.6749,0.681,0.6799,0.6924,0.6991,0.6994,0.7077,0.7117,0.7098,0.721,0.7519,0.817,0.9107,0.9873,1.0607,1.1961,1.3199,1.3878,1.4973,1.5801,1.5801,1.5801,1.5801,1.5801,1.5801,1.5801,1.5801,1.5801,1.5801,1.5801,1.5801,1.5801,1.5801,1.5801,1.5801,1.5801,1.5801,1.5801,1.5801,1.5801,1.5801,1.5801,1.5801,1.5801,0.0,0.0,0.0,0.0,0.0,0.0,0.0,0.0,0.0,0.0,0.0,0.0,0.0,0.0,0.0,0.0,0.0,0.0,0.0,0.0,0.0,0.0,0.0,0.0,0.0,0.0,0.0,0.0,0.0,0.0,0.0,0.0,0.0,0.0,0.0,0.0,0.0,0.0,0.0,0.0,0.0,0.0,0.0,0.0,0.0,0.0,0.0,0.0182,0.1036,0.258,0.3009,0.3926,0.5497,0.589,0.6049,0.6055,0.6233,0.6337,0.6337,0.6364,0.6409,0.6545,0.6654,0.6675,0.6546,0.6627,0.6712,0.6736,0.6722,0.6749,0.6776,0.6867,0.6923,0.6927,0.705,0.7095,0.7095,0.7117,0.7117,0.7121,0.7151,0.7322,0.7876,0.887,0.9849,1.0572,1.1773,1.2721,1.4004,1.517,1.5801,1.5801,1.5801,1.5801,1.5801,1.5801,1.5801,1.5801,1.5801,1.5801,1.5801,1.5801,1.5801,1.5801,1.5801,1.5801,1.5801,1.5801,1.5801,1.5801,1.5801,1.5801,1.5801,1.5801,1.5801,0.0,0.0,0.0,0.0,0.0,0.0,0.0,0.0,0.0,0.0,0.0,0.0,0.0,0.0,0.0,0.0,0.0,0.0,0.0,0.0,0.0,0.0,0.0,0.0,0.0,0.0,0.0,0.0,0.0,0.0,0.0,0.0,0.0,0.0,0.0,0.0,0.0,0.0,0.0,0.0,0.0,0.0,0.0,0.0,0.0,0.0,0.0,0.0892,0.149,0.1799,0.3501,0.4569,0.4854,0.5759,0.6269,0.6256,0.6402,0.6484,0.6484,0.6566,0.6668,0.6675,0.6789,0.6809,0.6685,0.6709,0.6756,0.6857,0.6874,0.6906,0.7018,0.707,0.708,0.7061,0.7082,0.7117,0.7117,0.7117,0.7117,0.7121,0.7239,0.7706,0.8546,0.928,1.0435,1.2215,1.2928,1.3998,1.498,1.5683,1.5808,1.5801,1.5801,1.5801,1.5801,1.5801,1.5801,1.5801,1.5801,1.5801,1.5801,1.5801,1.5801,1.5801,1.5801,1.5801,1.5801,1.5801,1.5801,1.5801,1.5801,1.5801,1.5801,1.5801,1.5801,0.0,0.0,0.0,0.0,0.0,0.0,0.0,0.0,0.0,0.0,0.0,0.0,0.0,0.0,0.0,0.0,0.0,0.0,0.0,0.0,0.0,0.0,0.0,0.0,0.0,0.0,0.0,0.0,0.0,0.0,0.0,0.0,0.0,0.0,0.0,0.0,0.0352,0.1056,0.0365,0.0311,0.0956,0.0967,0.1284,0.1912,0.1868,0.1796,0.1853,0.2209,0.2685,0.327,0.418,0.4955,0.5558,0.6097,0.6412,0.6422,0.6535,0.6617,0.6617,0.6739,0.6803,0.6809,0.6938,0.697,0.6921,0.6918,0.6948,0.6994,0.7001,0.7024,0.711,0.7117,0.7117,0.7117,0.7117,0.7117,0.7117,0.7117,0.7117,0.7102,0.7178,0.7688,0.8856,0.9254,1.0106,1.1982,1.3158,1.4136,1.4752,1.5391,1.5801,1.5801,1.5801,1.5801,1.5801,1.5801,1.5801,1.5801,1.5801,1.5801,1.5801,1.5801,1.5801,1.5801,1.5801,1.5801,1.5801,1.5801,1.5801,1.5801,1.5801,1.5801,1.5801,1.5801,1.5801,0.0,0.0,0.0,0.0,0.0,0.0,0.0,0.0,0.0,0.0,0.0,0.0,0.0,0.0,0.0,0.0,0.0,0.0,0.0,0.0,0.0,0.0,0.0,0.0,0.0,0.0,0.0,0.0,0.0,0.0,0.0,0.0,0.0,0.0,0.0,0.0309,0.0982,0.1888,0.1274,0.1349,0.22,0.221,0.2655,0.3486,0.3445,0.3382,0.3446,0.3525,0.3948,0.4742,0.5021,0.5536,0.6304,0.6484,0.6546,0.6559,0.6668,0.6766,0.68,0.6866,0.6955,0.6955,0.7034,0.7117,0.7117,0.7117,0.7117,0.7117,0.711,0.7092,0.7117,0.7117,0.7117,0.7117,0.7117,0.7117,0.7117,0.7117,0.7117,0.7117,0.7312,0.7956,0.8818,0.939,1.0361,1.196,1.3328,1.4207,1.4417,1.5218,1.5754,1.5801,1.5801,1.5801,1.5801,1.5801,1.5801,1.5801,1.5801,1.5801,1.5801,1.5801,1.5801,1.5801,1.5801,1.5801,1.5801,1.5801,1.5801,1.5801,1.5801,1.5801,1.5801,1.5801,1.5801,0.0,0.0,0.0,0.0,0.0,0.0,0.0,0.0,0.0,0.0,0.0,0.0,0.0,0.0,0.0,0.0,0.0,0.0,0.0,0.0,0.0,0.0,0.0,0.0,0.0,0.0,0.0,0.0,0.0,0.0,0.0,0.0,0.0,0.0,0.0,0.1243,0.1902,0.2023,0.308,0.3625,0.3596,0.3507,0.3483,0.3587,0.3621,0.3581,0.372,0.4433,0.4963,0.5131,0.5982,0.6527,0.6654,0.6671,0.6681,0.6685,0.6799,0.6941,0.7038,0.709,0.7071,0.7078,0.7104,0.7117,0.7117,0.7117,0.7117,0.7117,0.7117,0.7117,0.7117,0.7117,0.7117,0.7117,0.7117,0.7117,0.7117,0.7117,0.7117,0.7117,0.7907,0.8789,0.8997,1.0093,1.1654,1.3094,1.4168,1.502,1.5285,1.5528,1.5735,1.5761,1.5788,1.5788,1.5795,1.5801,1.5801,1.5801,1.5801,1.5801,1.5801,1.5801,1.5801,1.5801,1.5801,1.5801,1.5801,1.5801,1.5801,1.5801,1.5801,1.5801,1.5801,1.5801,1.5801,0.0,0.0,0.0,0.0,0.0,0.0,0.0,0.0,0.0,0.0,0.0,0.0,0.0,0.0,0.0,0.0,0.0,0.0,0.0,0.0,0.0,0.0,0.0,0.0,0.0,0.0,0.0,0.0,0.0,0.0727,0.1123,0.1275,0.1873,0.23,0.2398,0.2837,0.3465,0.4364,0.4746,0.5291,0.5851,0.5217,0.5066,0.5583,0.5599,0.5542,0.5572,0.5904,0.6046,0.6067,0.647,0.6722,0.6722,0.6766,0.6813,0.6823,0.6951,0.7034,0.7114,0.7117,0.7117,0.7117,0.7117,0.7117,0.7117,0.7117,0.7117,0.7117,0.7117,0.7117,0.7117,0.7117,0.7117,0.7117,0.7117,0.7117,0.7117,0.7117,0.7117,0.7143,0.7533,0.821,0.9045,1.0415,1.1874,1.3152,1.4087,1.4763,1.5219,1.5464,1.5484,1.5364,1.5317,1.5484,1.5718,1.5801,1.5795,1.5795,1.5801,1.5801,1.5788,1.5801,1.5801,1.5801,1.5801,1.5801,1.5801,1.5801,1.5801,1.5801,1.5801,1.5801,1.5801,1.5801,1.5801,0.0,0.0,0.0,0.0,0.0,0.0,0.0,0.0,0.0,0.0,0.0,0.0,0.0,0.0,0.0,0.0,0.0,0.0,0.0,0.0,0.0,0.0,0.0,0.0,0.0,0.0,0.0,0.0,0.0,0.1256,0.19,0.2169,0.3247,0.3914,0.4013,0.4186,0.4932,0.5907,0.6125,0.673,0.7384,0.6665,0.6446,0.702,0.7019,0.6965,0.694,0.6878,0.6824,0.6824,0.6824,0.6803,0.6803,0.6883,0.6965,0.695,0.7038,0.7117,0.7117,0.7117,0.7117,0.7117,0.7117,0.7117,0.7117,0.7117,0.7117,0.7117,0.7117,0.7117,0.7121,0.7158,0.7164,0.7127,0.7125,0.7168,0.7105,0.7117,0.7117,0.7117,0.7533,0.8269,0.9822,1.1119,1.2233,1.3555,1.4067,1.4384,1.4963,1.53,1.5304,1.5046,1.5059,1.5224,1.5538,1.5545,1.5568,1.5601,1.5598,1.5661,1.5708,1.5728,1.5801,1.5801,1.5801,1.5801,1.5801,1.5801,1.5801,1.5801,1.5801,1.5801,1.5801,1.5801,1.5801,0.0,0.0,0.0,0.0,0.0,0.0,0.0,0.0,0.0,0.0,0.0,0.0,0.0,0.0,0.0,0.0,0.0,0.0,0.0,0.0,0.0,0.0,0.0,0.0,0.0,0.0,0.0,0.0,0.0,0.1375,0.1975,0.2171,0.3541,0.4105,0.4355,0.5374,0.5919,0.6218,0.7168,0.7803,0.7766,0.7557,0.7296,0.7129,0.7085,0.7075,0.71,0.7075,0.709,0.7093,0.7055,0.7061,0.709,0.7097,0.7078,0.7104,0.711,0.7117,0.7117,0.7117,0.7117,0.7117,0.7117,0.7117,0.7117,0.7117,0.7117,0.7117,0.7117,0.7117,0.7109,0.7215,0.7265,0.7122,0.7265,0.7265,0.7131,0.7117,0.7117,0.7286,0.8067,0.9451,1.1954,1.2396,1.3061,1.4294,1.4939,1.4915,1.5099,1.5297,1.5247,1.5099,1.514,1.5314,1.5135,1.5294,1.5204,1.5247,1.5458,1.5441,1.5501,1.5605,1.5715,1.5801,1.5801,1.5801,1.5801,1.5801,1.5801,1.5801,1.5801,1.5801,1.5801,1.5801,1.5801,0.0,0.0,0.0,0.0,0.0,0.0,0.0,0.0,0.0,0.0,0.0,0.0,0.0,0.0,0.0,0.0,0.0,0.0,0.0,0.0,0.0,0.0,0.0,0.0,0.0,0.0,0.0,0.0449,0.1356,0.2561,0.3644,0.4657,0.5796,0.6467,0.6625,0.6944,0.7193,0.7316,0.7725,0.7821,0.7699,0.7624,0.7455,0.7141,0.7117,0.7117,0.7117,0.7117,0.7117,0.7117,0.7117,0.7117,0.7117,0.7117,0.7117,0.7117,0.7117,0.7117,0.7117,0.7117,0.7117,0.7117,0.7117,0.7117,0.7117,0.7117,0.7117,0.7117,0.7117,0.7117,0.7102,0.7171,0.7181,0.7141,0.7146,0.7192,0.7134,0.7121,0.7151,0.7465,0.8528,0.9841,1.0646,1.1283,1.2247,1.333,1.3683,1.4062,1.4507,1.4885,1.5073,1.4839,1.4939,1.5106,1.5055,1.5337,1.5504,1.5411,1.5451,1.5491,1.5545,1.5648,1.5781,1.5801,1.5801,1.5801,1.5801,1.5801,1.5801,1.5801,1.5801,1.5801,1.5801,1.5801,1.5801,0.0,0.0,0.0,0.0,0.0,0.0,0.0,0.0,0.0,0.0,0.0,0.0,0.0,0.0,0.0,0.0,0.0,0.0,0.0,0.0,0.0,0.0,0.0,0.0,0.0,0.0,0.0484,0.0946,0.1576,0.3485,0.4552,0.4706,0.6355,0.7014,0.6826,0.7039,0.7269,0.735,0.7687,0.7814,0.7722,0.7689,0.755,0.73,0.7219,0.7168,0.7124,0.7117,0.7117,0.7117,0.7117,0.7117,0.7117,0.7117,0.7117,0.7117,0.7117,0.7117,0.7117,0.7117,0.7117,0.7117,0.7117,0.7117,0.7117,0.7117,0.7117,0.7117,0.7117,0.7117,0.7117,0.7121,0.7117,0.7127,0.7161,0.7192,0.7214,0.7195,0.751,0.8124,0.8994,0.9824,1.0542,1.1474,1.2499,1.335,1.3689,1.3991,1.4449,1.4825,1.5019,1.4756,1.4979,1.5146,1.5213,1.5484,1.5464,1.5364,1.5458,1.5511,1.5565,1.5681,1.5788,1.5795,1.5801,1.5801,1.5801,1.5801,1.5801,1.5801,1.5801,1.5801,1.5801,1.5801,1.5801,0.0,0.0,0.0,0.0,0.0,0.0,0.0,0.0,0.0,0.0,0.0,0.0,0.0,0.0,0.0,0.0,0.0,0.0,0.0,0.0,0.0,0.0,0.0,0.0,0.0,0.0,0.1272,0.1232,0.0602,0.3573,0.4378,0.3037,0.501,0.571,0.4218,0.5737,0.6246,0.6551,0.7468,0.7961,0.7965,0.7841,0.7719,0.757,0.7454,0.7292,0.7137,0.7124,0.7117,0.7117,0.7117,0.7117,0.7117,0.7117,0.7117,0.7117,0.7117,0.7117,0.7117,0.7117,0.7117,0.7117,0.7117,0.7102,0.7148,0.7144,0.7151,0.7175,0.7168,0.7129,0.7139,0.7142,0.7148,0.7134,0.7255,0.7362,0.7376,0.7399,0.7879,0.8938,0.9429,1.0579,1.2307,1.294,1.3473,1.4581,1.5022,1.5045,1.5098,1.5224,1.5247,1.5126,1.5197,1.5384,1.5504,1.5568,1.5378,1.5253,1.5421,1.5504,1.5524,1.5625,1.5761,1.5801,1.5801,1.5801,1.5801,1.5801,1.5801,1.5801,1.5801,1.5801,1.5801,1.5801,1.5801,0.0,0.0,0.0,0.0,0.0,0.0,0.0,0.0,0.0,0.0,0.0,0.0,0.0,0.0,0.0,0.0,0.0,0.0,0.0,0.0,0.0,0.0,0.0,0.0,0.0,0.0,0.0402,0.0933,0.1511,0.2715,0.3116,0.3692,0.5097,0.5752,0.5372,0.6681,0.7385,0.7437,0.7786,0.7966,0.7871,0.7838,0.7743,0.7604,0.7474,0.7365,0.7321,0.7175,0.7121,0.7121,0.7117,0.7117,0.7121,0.7117,0.7117,0.7117,0.7117,0.7117,0.7117,0.7121,0.7102,0.7121,0.7121,0.7178,0.7282,0.7299,0.7343,0.7428,0.7432,0.7458,0.7458,0.7458,0.7344,0.7119,0.7278,0.7406,0.7444,0.7576,0.7838,0.8306,0.9212,1.0471,1.1827,1.2695,1.3915,1.49,1.518,1.5173,1.5173,1.5337,1.5378,1.532,1.5511,1.5628,1.5668,1.5695,1.5605,1.5471,1.5545,1.5571,1.5571,1.5611,1.5735,1.5801,1.5801,1.5801,1.5801,1.5801,1.5801,1.5801,1.5801,1.5801,1.5801,1.5801,1.5801,0.0,0.0,0.0,0.0,0.0,0.0,0.0,0.0,0.0,0.0,0.0,0.0,0.0,0.0,0.0,0.0,0.0,0.0,0.0,0.0,0.0,0.0,0.0,0.0,0.0,0.0,0.053,0.0882,0.131,0.2741,0.3417,0.3566,0.5074,0.5677,0.5475,0.6531,0.726,0.731,0.7711,0.7966,0.7891,0.7871,0.78,0.7689,0.7584,0.7505,0.741,0.7326,0.7213,0.7144,0.7117,0.7119,0.7195,0.7208,0.7225,0.7279,0.7264,0.7273,0.7215,0.7212,0.7175,0.7141,0.7171,0.7265,0.7386,0.743,0.7509,0.758,0.759,0.7597,0.7594,0.7597,0.7479,0.7317,0.74,0.7478,0.757,0.7743,0.8188,0.8781,0.9889,1.11,1.2294,1.3508,1.4481,1.5173,1.5284,1.5277,1.5317,1.5458,1.5511,1.5571,1.5671,1.5741,1.5781,1.5795,1.5795,1.5755,1.5741,1.5695,1.5655,1.5701,1.5801,1.5801,1.5801,1.5801,1.5801,1.5801,1.5801,1.5801,1.5801,1.5801,1.5801,1.5801,1.5801,0.0,0.0,0.0,0.0,0.0,0.0,0.0,0.0,0.0,0.0,0.0,0.0,0.0,0.0,0.0,0.0,0.0,0.0,0.0,0.0,0.0,0.0,0.0,0.0,0.0,0.0,0.1108,0.1184,0.0782,0.3444,0.4574,0.2865,0.4772,0.545,0.497,0.5547,0.6406,0.6684,0.7487,0.7982,0.8,0.8003,0.7946,0.7804,0.7787,0.7668,0.7515,0.7509,0.7421,0.7195,0.7181,0.7246,0.7379,0.7406,0.7467,0.755,0.7587,0.7509,0.7437,0.7406,0.7339,0.7219,0.7319,0.7436,0.7464,0.7546,0.7631,0.7668,0.7645,0.7651,0.7655,0.7658,0.7645,0.7631,0.7617,0.7665,0.7783,0.7918,0.846,0.9678,1.1068,1.2275,1.3382,1.4691,1.5292,1.5687,1.5715,1.5688,1.5695,1.5701,1.5768,1.5795,1.5781,1.5788,1.5801,1.5801,1.5801,1.5801,1.5801,1.5775,1.5735,1.5775,1.5801,1.5801,1.5801,1.5801,1.5801,1.5801,1.5801,1.5801,1.5801,1.5801,1.5801,1.5801,1.5849,0.0,0.0,0.0,0.0,0.0,0.0,0.0,0.0,0.0,0.0,0.0,0.0,0.0,0.0,0.0,0.0,0.0,0.0,0.0,0.0,0.0,0.0,0.0,0.0,0.0,0.0,0.058,0.0832,0.1486,0.2841,0.3367,0.3591,0.5175,0.5929,0.5699,0.6756,0.7409,0.7484,0.7736,0.7988,0.7988,0.7988,0.7996,0.7956,0.7847,0.776,0.7685,0.7628,0.7577,0.7472,0.7455,0.7492,0.7529,0.7563,0.7567,0.7611,0.7611,0.7594,0.7556,0.7563,0.7516,0.7492,0.7506,0.7587,0.7689,0.7729,0.7787,0.7861,0.7898,0.7888,0.7891,0.7885,0.7888,0.7885,0.7818,0.7811,0.7912,0.8007,0.8528,0.978,1.0386,1.1794,1.3343,1.434,1.4926,1.5581,1.5801,1.5801,1.5801,1.5801,1.5801,1.5801,1.5795,1.5801,1.5801,1.5801,1.5801,1.5801,1.5801,1.5801,1.5781,1.5795,1.5801,1.5801,1.5801,1.5801,1.5801,1.5801,1.5801,1.5801,1.5801,1.5801,1.5801,1.5801,1.5896,0.0,0.0,0.0,0.0,0.0,0.0,0.0,0.0,0.0,0.0,0.0,0.0,0.0,0.0,0.0,0.0,0.0,0.0,0.0,0.0,0.0,0.0,0.0,0.0,0.0278,0.0832,0.0832,0.1636,0.2765,0.3367,0.4119,0.4947,0.6176,0.6805,0.688,0.7509,0.7988,0.7988,0.7988,0.7988,0.7988,0.7988,0.7988,0.7978,0.7897,0.7881,0.7861,0.7743,0.7665,0.7614,0.7597,0.7624,0.7685,0.7689,0.7692,0.7746,0.776,0.7763,0.7702,0.7689,0.7658,0.7628,0.7645,0.7723,0.7801,0.7862,0.7935,0.7986,0.7988,0.7988,0.7988,0.7988,0.7988,0.7989,0.7935,0.7922,0.801,0.8549,0.9118,0.9973,1.1014,1.2086,1.3824,1.4292,1.4973,1.5557,1.5801,1.5801,1.5801,1.5801,1.5801,1.5801,1.5801,1.5801,1.5801,1.5801,1.5801,1.5801,1.5801,1.5801,1.5801,1.5801,1.5801,1.5801,1.5801,1.5801,1.5801,1.5801,1.5801,1.5801,1.5801,1.5801,1.5801,1.5801,1.5896,0.0,0.0,0.0,0.0,0.0,0.0,0.0,0.0,0.0,0.0,0.0,0.0,0.0,0.0,0.0,0.0,0.0,0.0,0.0,0.0,0.0,0.0,0.0,0.0,0.0681,0.1611,0.1988,0.2865,0.4019,0.5325,0.5954,0.6354,0.7409,0.7864,0.7786,0.7963,0.7988,0.7988,0.7988,0.7988,0.7988,0.7988,0.7988,0.7985,0.7978,0.7965,0.7962,0.7875,0.7763,0.7658,0.7645,0.7729,0.78,0.781,0.7864,0.7952,0.7938,0.7918,0.7841,0.781,0.779,0.7719,0.776,0.7807,0.7847,0.7932,0.7971,0.7985,0.7988,0.7988,0.7988,0.7988,0.7988,0.7985,0.8006,0.7985,0.8233,0.9192,1.0096,1.0485,1.259,1.3632,1.4364,1.4973,1.5801,1.5659,1.5801,1.5801,1.5801,1.5801,1.5801,1.5801,1.5801,1.5801,1.5801,1.5801,1.5801,1.5801,1.5801,1.5801,1.5801,1.5801,1.5801,1.5801,1.5801,1.5801,1.5801,1.5801,1.5801,1.5801,1.5801,1.5801,1.5801,1.5801,1.5849,0.0,0.0,0.0,0.0,0.0,0.0,0.0,0.0,0.0,0.0,0.0,0.0,0.0,0.0,0.0,0.0,0.0,0.0,0.0,0.0,0.0,0.0,0.1108,0.0706,0.0882,0.1888,0.2089,0.3318,0.515,0.5979,0.6556,0.7487,0.7686,0.7988,0.7988,0.7988,0.7988,0.7988,0.7988,0.7988,0.7988,0.7988,0.7988,0.7988,0.7988,0.7988,0.7988,0.7961,0.7952,0.7929,0.7912,0.7908,0.7939,0.7952,0.7948,0.7971,0.7988,0.7971,0.7969,0.7949,0.7952,0.7908,0.7915,0.7966,0.7966,0.7986,0.7988,0.7988,0.7988,0.7988,0.7988,0.7988,0.7988,0.7988,0.7988,0.8038,0.8233,0.9192,1.0676,1.2396,1.3368,1.4268,1.5194,1.5415,1.5801,1.5801,1.5801,1.5801,1.5801,1.5801,1.5801,1.5801,1.5801,1.5801,1.5801,1.5801,1.5801,1.5801,1.5801,1.5801,1.5801,1.5801,1.5801,1.5801,1.5801,1.5801,1.5801,1.5801,1.5801,1.5801,1.5801,1.5801,1.5801,1.5801,1.6103,0.0,0.0,0.0,0.0,0.0,0.0,0.0,0.0,0.0,0.0,0.0,0.0,0.0,0.0,0.0,0.0,0.0,0.0,0.0,0.0,0.0,0.0,0.2639,0.2438,0.2564,0.3668,0.392,0.5125,0.6431,0.6933,0.7335,0.7914,0.7988,0.7988,0.7988,0.7988,0.7988,0.7988,0.7988,0.7988,0.7988,0.7988,0.7988,0.7988,0.7988,0.7988,0.7988,0.7988,0.7988,0.7988,0.7988,0.7988,0.7988,0.7988,0.7988,0.7988,0.7988,0.7988,0.7988,0.7988,0.7982,0.7988,0.7988,0.7988,0.7988,0.7988,0.7988,0.7988,0.7988,0.7988,0.7988,0.7988,0.7988,0.7988,0.7988,0.8237,0.8874,0.9608,1.0676,1.2546,1.3397,1.4442,1.5242,1.5706,1.5801,1.5801,1.5801,1.5801,1.5801,1.5801,1.5801,1.5801,1.5801,1.5801,1.5801,1.5801,1.5801,1.5801,1.5801,1.5801,1.5801,1.5801,1.5801,1.5801,1.5801,1.5801,1.5801,1.5801,1.5801,1.5801,1.5801,1.5801,1.5801,1.5801,1.6292,0.0,0.0,0.0,0.0,0.0,0.0,0.0,0.0,0.0,0.0,0.0,0.0,0.0,0.0,0.0,0.0,0.0,0.0,0.1084,0.2188,0.2289,0.3091,0.3967,0.4293,0.4795,0.6154,0.5804,0.6581,0.7512,0.7988,0.7839,0.7988,0.7988,0.7988,0.7988,0.7988,0.7988,0.7988,0.7988,0.7988,0.7988,0.7988,0.7988,0.7988,0.7988,0.7988,0.7988,0.7988,0.7988,0.7988,0.7988,0.7988,0.7988,0.7988,0.7988,0.7988,0.7988,0.7988,0.7988,0.7988,0.7988,0.7988,0.7988,0.7988,0.7988,0.7988,0.7988,0.7988,0.7988,0.7988,0.7988,0.7988,0.7988,0.7988,0.7988,0.8627,0.9608,1.0022,1.075,1.228,1.3782,1.4997,1.5439,1.5801,1.5801,1.5801,1.5801,1.5801,1.5801,1.5801,1.5801,1.5801,1.5801,1.5801,1.5801,1.5801,1.5801,1.5801,1.5801,1.5801,1.5801,1.5801,1.5801,1.5801,1.5801,1.5801,1.5801,1.5801,1.5801,1.5801,1.5801,1.5801,1.5801,1.5801,1.6339,0.0,0.0,0.0,0.0,0.0,0.0,0.0,0.0,0.0,0.0,0.0,0.0,0.0,0.0,0.0,0.0,0.126,0.1637,0.2389,0.3491,0.3717,0.4393,0.5447,0.5699,0.6376,0.7008,0.6783,0.6883,0.7739,0.7988,0.7988,0.7988,0.7988,0.7988,0.7988,0.7988,0.7988,0.7988,0.7988,0.7988,0.7988,0.7988,0.7988,0.7988,0.7988,0.7988,0.7988,0.7988,0.7988,0.7988,0.7988,0.7988,0.7988,0.7988,0.7988,0.7988,0.7988,0.7988,0.7988,0.7988,0.7988,0.7988,0.7988,0.7988,0.7988,0.7988,0.7988,0.7988,0.7988,0.7988,0.7988,0.7988,0.7988,0.7988,0.8212,0.8627,0.9657,1.0411,1.1161,1.2982,1.4411,1.5408,1.5652,1.5801,1.5801,1.5801,1.5801,1.5801,1.5801,1.5801,1.5801,1.5801,1.5801,1.5801,1.5801,1.5801,1.5801,1.5801,1.5801,1.5801,1.5801,1.5801,1.5801,1.5801,1.5801,1.5801,1.5801,1.5801,1.5801,1.5801,1.5801,1.5801,1.5801,1.5801,1.5801,0.0,0.0,0.0,0.0,0.0,0.0,0.0,0.0,0.0,0.0,0.0,0.0,0.0,0.0,0.0,0.0,0.1887,0.2815,0.3742,0.4795,0.5122,0.5749,0.6883,0.6983,0.736,0.7686,0.7363,0.726,0.7939,0.7988,0.7988,0.7988,0.7988,0.7988,0.7988,0.7988,0.7988,0.7988,0.7988,0.7988,0.7988,0.7988,0.7988,0.7988,0.7988,0.7988,0.7988,0.7988,0.7988,0.7988,0.7988,0.7988,0.7988,0.7988,0.7988,0.7988,0.7988,0.7988,0.7988,0.7988,0.7988,0.7988,0.7988,0.7988,0.7988,0.7988,0.7988,0.7988,0.7988,0.7988,0.7988,0.8013,0.7988,0.8137,0.8581,0.9316,1.0092,1.1214,1.2522,1.3752,1.4244,1.4973,1.5706,1.5801,1.5801,1.5801,1.5801,1.5801,1.5801,1.5801,1.5801,1.5801,1.5801,1.5801,1.5801,1.5801,1.5801,1.5801,1.5801,1.5801,1.5801,1.5801,1.5801,1.5801,1.5801,1.5801,1.5801,1.5801,1.5801,1.5801,1.5801,1.5801,1.5801,1.5801,1.5801,0.0,0.0,0.0,0.0,0.0,0.0,0.0,0.0,0.0,0.0,0.0,0.0,0.0,0.0,0.0,0.1285,0.2765,0.4042,0.5122,0.6176,0.6404,0.7058,0.7686,0.7988,0.7963,0.7914,0.7914,0.7988,0.7988,0.7988,0.7988,0.7988,0.7988,0.7988,0.7988,0.7988,0.7988,0.7988,0.7988,0.7988,0.7988,0.7988,0.7988,0.7988,0.7988,0.7988,0.7988,0.7988,0.7988,0.7988,0.7988,0.7988,0.7988,0.7988,0.7988,0.7988,0.7988,0.7988,0.7988,0.7988,0.7988,0.7988,0.7988,0.7988,0.7988,0.7988,0.7988,0.7988,0.7988,0.7988,0.8038,0.8287,0.8432,0.8751,0.9632,1.0632,1.1404,1.2377,1.3464,1.4166,1.4172,1.4704,1.5629,1.5801,1.5801,1.5801,1.5801,1.5801,1.5801,1.5801,1.5801,1.5801,1.5801,1.5801,1.5801,1.5801,1.5801,1.5801,1.5801,1.5801,1.5801,1.5801,1.5801,1.5801,1.5801,1.5801,1.5801,1.5801,1.5801,1.5801,1.5801,1.5801,1.5801,1.5801,1.5801,0.0,0.0,0.0,0.0,0.0,0.0,0.0,0.0,0.0,0.0,0.0,0.0,0.0,0.0,0.1511,0.3218,0.4822,0.5675,0.6404,0.7385,0.7559,0.7662,0.7963,0.7988,0.7988,0.7988,0.7988,0.7988,0.7988,0.7988,0.7988,0.7988,0.7988,0.7988,0.7988,0.7988,0.7988,0.7988,0.7988,0.7988,0.7988,0.7988,0.7988,0.7988,0.7988,0.7988,0.7988,0.7988,0.7988,0.7988,0.7988,0.7988,0.7988,0.7988,0.7988,0.7988,0.7988,0.7988,0.7988,0.7988,0.7988,0.7988,0.7988,0.7988,0.7988,0.7988,0.7988,0.7988,0.7988,0.8137,0.8407,0.9069,0.9558,1.017,1.0896,1.211,1.3054,1.3397,1.4507,1.4926,1.5021,1.5242,1.5801,1.5801,1.5801,1.5801,1.5801,1.5801,1.5801,1.5801,1.5801,1.5801,1.5801,1.5801,1.5801,1.5801,1.5801,1.5801,1.5801,1.5801,1.5801,1.5801,1.5801,1.5801,1.5801,1.5801,1.5801,1.5801,1.5801,1.5801,1.5801,1.5801,1.5801,1.5801,1.5801,0.0,0.0,0.0,0.0,0.0,0.0,0.0,0.0,0.0,0.0,0.0,0.0857,0.1511,0.2339,0.3668,0.4849,0.6029,0.6756,0.7385,0.7864,0.7988,0.7988,0.7988,0.7988,0.7988,0.7988,0.7988,0.7988,0.7988,0.7988,0.7988,0.802,0.7992,0.7988,0.803,0.7992,0.7988,0.7988,0.7988,0.7988,0.7988,0.7988,0.7988,0.7988,0.7988,0.7988,0.7988,0.7988,0.7988,0.7988,0.7988,0.7988,0.7988,0.7988,0.7988,0.7988,0.7988,0.7988,0.7988,0.7988,0.7988,0.7988,0.7988,0.7988,0.7988,0.7988,0.7988,0.7988,0.7988,0.8308,0.8924,0.9632,1.0337,1.1116,1.2231,1.2958,1.3974,1.4704,1.5266,1.5581,1.5801,1.5801,1.5801,1.5801,1.5801,1.5801,1.5801,1.5801,1.5801,1.5801,1.5801,1.5801,1.5801,1.5801,1.5801,1.5801,1.5801,1.5801,1.5801,1.5801,1.5801,1.5801,1.5801,1.5801,1.5801,1.5801,1.5801,1.5801,1.5801,1.5801,1.5801,1.5801,1.5801,1.5801,1.6079,0.0,0.0,0.0,0.0,0.0,0.0,0.0,0.0,0.0,0.0,0.0857,0.1913,0.324,0.442,0.54,0.6029,0.6584,0.7562,0.7914,0.7988,0.7988,0.7988,0.7988,0.7988,0.7988,0.7988,0.7988,0.7988,0.7988,0.7995,0.8008,0.8067,0.8094,0.8084,0.8077,0.8081,0.8077,0.7988,0.7988,0.7988,0.7988,0.7988,0.7988,0.7988,0.7988,0.7988,0.7988,0.7988,0.7988,0.7988,0.7988,0.7988,0.7988,0.7988,0.7988,0.7988,0.7988,0.7988,0.7988,0.7988,0.7988,0.7988,0.7988,0.7988,0.7988,0.7988,0.7988,0.7988,0.8552,0.9093,0.9825,1.0485,1.1599,1.2595,1.3566,1.4022,1.4459,1.5092,1.551,1.5683,1.5801,1.5801,1.5801,1.5801,1.5801,1.5801,1.5801,1.5801,1.5801,1.5801,1.5801,1.5801,1.5801,1.5801,1.5801,1.5801,1.5801,1.5801,1.5801,1.5801,1.5801,1.5801,1.5801,1.5801,1.5801,1.5801,1.5801,1.5801,1.5801,1.5801,1.5801,1.5801,1.5801,1.5825,1.6032,0.0,0.0,0.0,0.0,0.0,0.0,0.0,0.0,0.1285,0.1837,0.2238,0.3291,0.462,0.5677,0.6151,0.6781,0.7786,0.7939,0.7988,0.7988,0.7988,0.7988,0.7988,0.7988,0.7988,0.7988,0.7988,0.7988,0.7988,0.7988,0.8098,0.8257,0.8184,0.8228,0.8218,0.817,0.8101,0.8037,0.7988,0.7988,0.7988,0.7988,0.7988,0.7988,0.7988,0.7988,0.7988,0.7988,0.7988,0.7988,0.7988,0.7988,0.7988,0.7988,0.7988,0.7988,0.7988,0.7988,0.7988,0.7988,0.7988,0.7988,0.7988,0.7988,0.7988,0.8066,0.8041,0.8357,0.9238,0.9973,1.0896,1.1911,1.2976,1.3854,1.4537,1.4926,1.5218,1.5361,1.573,1.5778,1.5801,1.5801,1.5801,1.5801,1.5801,1.5801,1.5801,1.5801,1.5801,1.5801,1.5801,1.5801,1.5801,1.5801,1.5801,1.5801,1.5801,1.5801,1.5801,1.5801,1.5801,1.5801,1.5801,1.5801,1.5801,1.5801,1.5801,1.5801,1.5801,1.5801,1.5801,1.5801,1.5991,1.6126,1.6126,0.0,0.0,0.0,0.0,0.0,0.0,0.0,0.0,0.1436,0.3042,0.447,0.5047,0.5977,0.6908,0.7235,0.7459,0.7988,0.7988,0.7988,0.7988,0.7988,0.7988,0.7988,0.7988,0.7988,0.7988,0.7988,0.7988,0.7988,0.7988,0.8136,0.8204,0.8187,0.8108,0.8101,0.815,0.8071,0.8044,0.7988,0.7988,0.7988,0.7988,0.7988,0.7988,0.7988,0.7988,0.7988,0.7988,0.7988,0.7988,0.7988,0.7988,0.7988,0.7988,0.7988,0.7988,0.7988,0.7988,0.7988,0.7988,0.7988,0.7988,0.7988,0.7988,0.8063,0.863,0.9118,0.9632,1.0239,1.095,1.2541,1.3295,1.3998,1.4872,1.5384,1.5706,1.5801,1.5801,1.5801,1.5801,1.5801,1.5801,1.5801,1.5801,1.5801,1.5801,1.5801,1.5801,1.5801,1.5801,1.5801,1.5801,1.5801,1.5801,1.5801,1.5801,1.5801,1.5801,1.5801,1.5801,1.5801,1.5801,1.5801,1.5801,1.5801,1.5801,1.5801,1.5801,1.5801,1.5801,1.5801,1.5801,1.6062,1.6315,1.6504,0.0,0.0,0.0,0.0,0.0,0.0429,0.0605,0.0908,0.2541,0.4395,0.6581,0.6656,0.7061,0.7814,0.7963,0.7939,0.7988,0.7988,0.7988,0.7988,0.7988,0.7988,0.7988,0.7988,0.7988,0.7988,0.7988,0.7988,0.7988,0.7988,0.8108,0.818,0.8104,0.806,0.8091,0.8033,0.7992,0.7988,0.7988,0.7988,0.7988,0.7988,0.7988,0.7988,0.7988,0.7988,0.7988,0.7988,0.7988,0.7988,0.7988,0.7988,0.7988,0.7988,0.7988,0.7988,0.7988,0.7988,0.7988,0.7988,0.7988,0.7988,0.7988,0.7988,0.8258,0.8874,0.8949,0.9266,1.044,1.1921,1.3266,1.356,1.4388,1.5194,1.5534,1.5801,1.5801,1.5801,1.5801,1.5801,1.5808,1.5808,1.5808,1.5815,1.5815,1.5808,1.5801,1.5801,1.5801,1.5801,1.5801,1.5801,1.5801,1.5801,1.5801,1.5801,1.5801,1.5801,1.5801,1.5801,1.5801,1.5801,1.5801,1.5801,1.5801,1.5801,1.5801,1.5801,1.5801,1.5801,1.5801,1.5801,1.5879,1.618,1.6873,0.0,0.0,0.0,0.0,0.0278,0.1411,0.1887,0.2264,0.4497,0.6406,0.7637,0.7789,0.7814,0.7988,0.7988,0.7988,0.7988,0.7988,0.7988,0.7988,0.805,0.803,0.7998,0.8027,0.8044,0.7995,0.7992,0.8017,0.8037,0.8054,0.816,0.8225,0.8194,0.8118,0.8267,0.8094,0.8027,0.7995,0.8005,0.8037,0.7988,0.7988,0.7988,0.7988,0.7988,0.7988,0.7988,0.7988,0.7988,0.7988,0.7988,0.7988,0.7988,0.7988,0.7988,0.7988,0.7988,0.7988,0.7988,0.7988,0.7988,0.7988,0.7988,0.7988,0.8013,0.8237,0.8577,0.9143,1.0067,1.1092,1.2086,1.3277,1.4633,1.5367,1.5683,1.5801,1.5801,1.5808,1.5808,1.5939,1.5875,1.5821,1.5821,1.5845,1.5845,1.5821,1.5808,1.5801,1.5801,1.5801,1.5801,1.5801,1.5801,1.5801,1.5801,1.5801,1.5801,1.5801,1.5801,1.5801,1.5801,1.5801,1.5801,1.5801,1.5801,1.5801,1.5801,1.5801,1.5801,1.5801,1.5801,1.5825,1.5855,1.618,1.6967,0.0,0.0,0.0958,0.1335,0.1385,0.1787,0.2489,0.3543,0.5225,0.6758,0.7786,0.7988,0.7988,0.7988,0.7988,0.7988,0.7988,0.7988,0.7988,0.7998,0.8104,0.8081,0.8071,0.8091,0.813,0.8037,0.802,0.8099,0.8223,0.8174,0.8269,0.8372,0.8357,0.8313,0.8332,0.8269,0.8303,0.8214,0.8187,0.8128,0.8005,0.7988,0.7988,0.7988,0.7988,0.7988,0.7988,0.7988,0.7988,0.7988,0.7988,0.7988,0.7988,0.7988,0.7988,0.7988,0.7988,0.7988,0.7988,0.7988,0.7988,0.7988,0.7988,0.7988,0.8013,0.892,0.9192,0.9653,1.0843,1.2061,1.3392,1.4465,1.5486,1.5605,1.5801,1.5801,1.5801,1.5808,1.5841,1.6072,1.6126,1.6126,1.6119,1.6092,1.6066,1.5939,1.5888,1.5828,1.5808,1.5801,1.5801,1.5801,1.5801,1.5801,1.5801,1.5801,1.5801,1.5801,1.5801,1.5801,1.5801,1.5801,1.5801,1.5801,1.5801,1.5801,1.5801,1.5801,1.5801,1.5801,1.5801,1.5801,1.5825,1.641,1.7365,0.0681,0.0857,0.2138,0.2991,0.3342,0.3392,0.4143,0.5395,0.6329,0.7235,0.7864,0.7988,0.7988,0.7988,0.7988,0.7988,0.7988,0.7988,0.7988,0.8037,0.8197,0.815,0.8126,0.8174,0.815,0.8054,0.7998,0.8071,0.8163,0.8267,0.8366,0.8485,0.8584,0.8557,0.8499,0.8462,0.8417,0.8318,0.8267,0.8184,0.806,0.7988,0.7988,0.7988,0.7988,0.7988,0.7988,0.7988,0.7988,0.7988,0.7988,0.7988,0.7988,0.7988,0.7988,0.7988,0.7988,0.7988,0.7988,0.7988,0.7988,0.7988,0.7988,0.7988,0.8063,0.8627,0.9365,1.0239,1.1862,1.2928,1.383,1.4926,1.541,1.5512,1.5848,1.5855,1.5999,1.5995,1.6112,1.6337,1.6478,1.6471,1.6444,1.6397,1.6357,1.6166,1.5975,1.5915,1.5848,1.5815,1.5808,1.5801,1.5801,1.5801,1.5801,1.5801,1.5801,1.5801,1.5801,1.5801,1.5801,1.5801,1.5801,1.5808,1.5815,1.5821,1.5808,1.5808,1.5848,1.5835,1.5801,1.5801,1.5801,1.6501,1.7409,0.1988,0.2214,0.349,0.4768,0.5802,0.5829,0.6681,0.7864,0.791,0.7939,0.7988,0.7988,0.7988,0.7988,0.7988,0.7988,0.7988,0.7988,0.7988,0.806,0.8201,0.8136,0.8133,0.818,0.8157,0.806,0.803,0.806,0.8039,0.8336,0.8469,0.8557,0.8737,0.873,0.8686,0.8601,0.8505,0.84,0.8376,0.8245,0.8071,0.804,0.8037,0.803,0.7988,0.7988,0.7988,0.7988,0.7988,0.7988,0.7988,0.7988,0.7988,0.7988,0.7988,0.7988,0.7988,0.7988,0.7988,0.7988,0.7988,0.8013,0.8212,0.8088,0.8159,0.8478,0.9262,1.0047,1.1234,1.2444,1.356,1.428,1.4977,1.5362,1.5887,1.6041,1.6246,1.6346,1.646,1.6632,1.6754,1.678,1.6759,1.6712,1.6645,1.6413,1.6266,1.6213,1.6082,1.5835,1.5821,1.5801,1.5801,1.5801,1.5808,1.5828,1.5801,1.5801,1.5801,1.5801,1.5801,1.5815,1.5801,1.5808,1.5835,1.5835,1.5815,1.5861,1.5935,1.5921,1.5999,1.5961,1.6032,1.6365,1.7148,0.2013,0.2238,0.447,0.565,0.6104,0.7008,0.7686,0.7963,0.7988,0.7988,0.7988,0.7988,0.7988,0.7988,0.7988,0.7988,0.7988,0.7988,0.7988,0.8074,0.8219,0.8143,0.8143,0.8177,0.8153,0.8067,0.8015,0.8115,0.8334,0.8567,0.8706,0.8814,0.8855,0.8862,0.8828,0.8791,0.8618,0.8482,0.8472,0.8323,0.8163,0.8126,0.8102,0.804,0.7988,0.7988,0.7988,0.7988,0.7988,0.7988,0.7988,0.7988,0.7988,0.7988,0.7988,0.7988,0.7988,0.7988,0.7988,0.7992,0.7992,0.8262,0.8772,0.8676,0.8602,0.8871,0.9632,1.0609,1.1668,1.3145,1.4207,1.488,1.5397,1.5813,1.6226,1.6386,1.654,1.6613,1.6759,1.6966,1.7113,1.7108,1.7086,1.704,1.6953,1.6707,1.6553,1.6493,1.6366,1.6095,1.5981,1.5968,1.5955,1.6001,1.5895,1.5881,1.5835,1.5801,1.5881,1.5921,1.5915,1.5915,1.5841,1.5888,1.6035,1.5961,1.5821,1.5948,1.6202,1.6266,1.6306,1.6266,1.6299,1.6615,1.7204,0.3115,0.3844,0.5902,0.6808,0.6933,0.7637,0.7988,0.7988,0.7988,0.7988,0.7988,0.7988,0.7988,0.7988,0.7988,0.7988,0.7988,0.7988,0.7988,0.805,0.8191,0.8118,0.8115,0.817,0.816,0.8077,0.8077,0.8155,0.8378,0.8608,0.876,0.8889,0.8909,0.8869,0.8818,0.8757,0.8625,0.8533,0.8462,0.8387,0.8282,0.8163,0.8074,0.8044,0.7992,0.7995,0.7988,0.7988,0.7988,0.7988,0.7988,0.7988,0.7988,0.7988,0.7988,0.8002,0.8116,0.8064,0.8044,0.8088,0.8064,0.8382,0.9274,0.941,0.9653,0.9998,1.1005,1.2037,1.3203,1.4297,1.5071,1.5792,1.6109,1.6446,1.6593,1.674,1.6807,1.6867,1.708,1.7326,1.7401,1.7434,1.7421,1.7367,1.7286,1.7052,1.6859,1.6785,1.6633,1.644,1.6353,1.6333,1.6268,1.6248,1.6128,1.6075,1.6128,1.6175,1.6279,1.6262,1.6148,1.6155,1.6222,1.6293,1.6346,1.6259,1.6148,1.6348,1.658,1.6593,1.6632,1.6638,1.6648,1.6767,1.751,0.4845,0.6004,0.7434,0.7889,0.7988,0.7988,0.7988,0.7988,0.7988,0.7988,0.7988,0.7988,0.7988,0.7988,0.7988,0.7988,0.7988,0.7988,0.7988,0.7992,0.815,0.8118,0.8088,0.8135,0.8104,0.8098,0.8147,0.8187,0.8179,0.8415,0.872,0.8896,0.8879,0.8838,0.8815,0.876,0.8628,0.8577,0.8509,0.8442,0.8265,0.8136,0.8012,0.7995,0.8002,0.8012,0.7995,0.7988,0.7988,0.7988,0.7988,0.7988,0.7988,0.7988,0.7988,0.806,0.8167,0.817,0.816,0.8211,0.8432,0.8776,0.9405,1.0447,1.1182,1.1589,1.255,1.3276,1.4324,1.5189,1.5959,1.6346,1.6645,1.6819,1.6926,1.7066,1.7141,1.7214,1.7301,1.7474,1.7515,1.7548,1.7548,1.7481,1.7441,1.7286,1.7206,1.7093,1.6993,1.68,1.668,1.6647,1.654,1.6468,1.6482,1.6455,1.6542,1.6627,1.664,1.6593,1.6435,1.6515,1.668,1.664,1.6611,1.6658,1.664,1.682,1.6894,1.6846,1.6879,1.6966,1.7029,1.7057,1.7808,0.5702,0.6107,0.7437,0.7988,0.7988,0.7988,0.7988,0.7988,0.7988,0.7988,0.7988,0.7988,0.7988,0.7988,0.7988,0.7988,0.7988,0.7988,0.7988,0.7988,0.8077,0.8084,0.8023,0.8064,0.8054,0.804,0.8074,0.8221,0.8374,0.8564,0.8696,0.8865,0.8841,0.8777,0.8804,0.874,0.8652,0.8598,0.8587,0.8412,0.8172,0.8279,0.828,0.8152,0.8084,0.8084,0.806,0.7988,0.7988,0.7988,0.7988,0.7988,0.7988,0.7992,0.7992,0.8044,0.8208,0.8255,0.8352,0.8565,0.901,1.0108,1.1138,1.2425,1.3251,1.3556,1.3997,1.4622,1.5258,1.6064,1.6635,1.6877,1.708,1.7153,1.722,1.7347,1.7474,1.7501,1.7528,1.7561,1.7602,1.7615,1.7615,1.7595,1.7568,1.7535,1.7515,1.7442,1.7428,1.7294,1.702,1.6907,1.6734,1.6693,1.6767,1.6834,1.6901,1.6854,1.6814,1.6774,1.6747,1.6827,1.6914,1.6847,1.6832,1.6919,1.7046,1.7201,1.7228,1.7133,1.7153,1.726,1.7334,1.7392,1.8229,0.6354,0.6958,0.769,0.7988,0.7988,0.7988,0.7988,0.7988,0.7988,0.7988,0.7988,0.7988,0.7988,0.7988,0.7988,0.7988,0.7988,0.7988,0.7988,0.7988,0.7988,0.7995,0.7988,0.802,0.7995,0.7995,0.8111,0.8292,0.8547,0.8645,0.873,0.8811,0.8791,0.8781,0.8825,0.873,0.8689,0.8683,0.8639,0.8463,0.8199,0.8319,0.8366,0.8201,0.8143,0.8108,0.806,0.7988,0.7988,0.7988,0.7988,0.7988,0.8012,0.8091,0.8118,0.8214,0.8326,0.8464,0.8636,0.9197,0.9924,1.1119,1.271,1.3926,1.4365,1.4713,1.5595,1.615,1.6214,1.689,1.7083,1.7315,1.7361,1.7414,1.7441,1.7515,1.7555,1.7568,1.7575,1.7588,1.7615,1.7615,1.7615,1.7615,1.7588,1.7588,1.7602,1.7582,1.7608,1.7615,1.7374,1.7207,1.7027,1.7048,1.7188,1.7208,1.7201,1.7128,1.7053,1.714,1.7168,1.7134,1.7128,1.7147,1.7173,1.7254,1.7394,1.7455,1.7482,1.7375,1.7461,1.7561,1.7622,1.7721,1.8415,0.6955,0.7939,0.7988,0.7988,0.7988,0.7988,0.7988,0.7988,0.7988,0.7988,0.7988,0.7988,0.7988,0.7988,0.7988,0.7988,0.7988,0.7988,0.7988,0.7988,0.7988,0.7988,0.8027,0.8044,0.8084,0.8148,0.8255,0.8448,0.8679,0.8689,0.8703,0.8757,0.8774,0.8825,0.8737,0.8706,0.8696,0.8679,0.8642,0.8591,0.8479,0.841,0.8355,0.8277,0.8177,0.8081,0.8074,0.8074,0.8077,0.8091,0.8118,0.8125,0.8148,0.8245,0.8301,0.8405,0.9002,0.9086,0.9331,1.0463,1.1076,1.2092,1.3878,1.4912,1.533,1.6036,1.6896,1.7149,1.7188,1.728,1.7474,1.7568,1.7582,1.7588,1.7602,1.7615,1.7615,1.7615,1.7615,1.7615,1.7615,1.7615,1.7615,1.7615,1.7615,1.7615,1.7615,1.7615,1.7615,1.7615,1.7508,1.7448,1.7388,1.7461,1.7548,1.7495,1.7428,1.7434,1.7367,1.7515,1.7582,1.7448,1.7408,1.7495,1.7535,1.7515,1.7521,1.7568,1.7582,1.7555,1.7588,1.7635,1.7749,1.7909,1.8472,0.7739,0.7988,0.7988,0.7988,0.7988,0.7988,0.7988,0.7988,0.7988,0.7988,0.7988,0.7988,0.7988,0.7988,0.7988,0.7988,0.7988,0.7988,0.7988,0.7988,0.7988,0.7988,0.805,0.8153,0.8282,0.8376,0.8411,0.8543,0.8676,0.8696,0.8743,0.8835,0.8757,0.8781,0.8858,0.8794,0.8754,0.8757,0.8798,0.8767,0.871,0.8621,0.8495,0.8451,0.8418,0.8397,0.8397,0.8397,0.8397,0.8397,0.8374,0.836,0.8374,0.8449,0.8562,0.9052,0.9644,1.025,1.0812,1.175,1.2421,1.38,1.5246,1.5747,1.6267,1.6918,1.7435,1.7442,1.7474,1.7474,1.7595,1.7595,1.7602,1.7602,1.7615,1.7615,1.7615,1.7615,1.7615,1.7615,1.7615,1.7615,1.7615,1.7615,1.7615,1.7615,1.7615,1.7615,1.7615,1.7615,1.7622,1.7655,1.7642,1.7615,1.7602,1.7622,1.7595,1.7628,1.7675,1.7789,1.7782,1.7628,1.7622,1.7682,1.7689,1.7642,1.7655,1.7648,1.7622,1.7615,1.7608,1.7635,1.7782,1.7996,1.8462]},{"header":{"parameterUnit":"m.s-1","parameterCategory":1,"la1":31.0,"la2":29.5877,"lo1":-88.7671,"lo2":-86.6584,"dy":0.0162,"dx":0.0185,"nx":115,"ny":88,"refTime":"2024-04-10T12:00:00:Z","depth":0,"parameterNumber":3,"parameterNumberName":"V-component_of_WINDS"},"data":[0.0,0.0,0.0,0.0,0.0,0.0,0.0,0.0,0.0,0.0,0.0,0.0,0.0,0.0,0.0,0.0,0.0,0.0,0.0,0.0,0.0,0.0,0.0,0.0,0.0,0.0,0.0,0.0,0.0,0.0,0.0,0.0,0.0,0.0,0.0,0.0,0.0,0.0,0.0,0.0,0.0,0.0,0.0,0.0,0.0,0.0,0.0,0.0,0.0,0.0,0.0,0.0,0.0,0.0,0.0,0.0,0.0,0.0,0.0,0.0,0.0,0.0,0.0,0.0,0.0,0.0,0.0,0.0,0.0,0.0,0.0,0.0,0.0,0.0,0.0,0.0,0.0,0.0,0.0,0.0,0.0,0.0,0.0,0.0,0.0,0.0,0.0,0.0,0.0,0.0,0.0,0.0,0.0,0.0,0.0,0.0,0.0,0.0,0.0,0.0,0.0,0.0,0.0,0.0,0.0,0.0,0.0,0.0,0.0,0.0,0.0,0.0,0.0,0.0,0.0,0.0,0.0,0.0,0.0,0.0,0.0,0.0,0.0,0.0,0.0,0.0,0.0,0.0,0.0,0.0,0.0,0.0,0.0,0.0,0.0,0.0,0.0,0.0,0.0,0.0,0.0,0.0,0.0,0.0,0.0,0.0,0.0,0.0,0.0,0.0,0.0,0.0,0.0,0.0,0.0,0.0,0.0,0.0,0.0,0.0,0.0,0.0,0.0,0.0,0.0,0.0,0.0,0.0,0.0,0.0,0.0,0.0,0.0,0.0,0.0,0.0,0.0,0.0,0.0,0.0,0.0,0.0,0.0,0.0,0.0,0.0,0.0,0.0,0.0,0.0,0.0,0.0,0.0,0.0,0.0,0.0,0.0,0.0,0.0,0.0,0.0,0.0,0.0,0.0,0.0,0.0,0.0,0.0,0.0,0.0,0.0,0.0,0.0,0.0,0.0,0.0,0.0,0.0,0.0,0.0,0.0,0.0,0.0,0.0,0.0,0.0,0.0,0.0,0.0,0.0,0.0,0.0,0.0,0.0,0.0,0.0,0.0,0.0,0.0,0.0,0.0,0.0,0.0,0.0,0.0,0.0,0.0,0.0,0.0,0.0,0.0,0.0,0.0,0.0,0.0,0.0,0.0,0.0,0.0,0.0,0.0,0.0,0.0,0.0,0.0,0.0,0.0,0.0,0.0,0.0,0.0,0.0,0.0,0.0,0.0,0.0,0.0,0.0,0.0,0.0,0.0,0.0,0.0,0.0,0.0,0.0,0.0,0.0,0.0,0.0,0.0,0.0,0.0,0.0,0.0,0.0,0.0,0.0,0.0,0.0,0.0,0.0,0.0,0.0,0.0,0.0,0.0,0.0,0.0,0.0,0.0,0.0,0.0,0.0,0.0,0.0,0.0,0.0,0.0,0.0,0.0,0.0,0.0,0.0,0.0,0.0,0.0,0.0,0.0,0.0,0.0,0.0,0.0,0.0,0.0,0.0,0.0,0.0,0.0,0.0,0.0,0.0,0.0,0.0,0.0,0.0,0.0,0.0,0.0,0.0,0.0,0.0,0.0,0.0,0.0,0.0,0.0,0.0,0.0,0.0,0.0,0.0,0.0,0.0,0.0,0.0,0.0,0.0,0.0,0.0,0.0,0.0,0.0,0.0,0.0,0.0,0.0,0.0,0.0,0.0,0.0,0.0,0.0,0.0,0.0,0.0,0.0,0.0,0.0,0.0,0.0,0.0,0.0,0.0,0.0,0.0,0.0,0.0,0.0,0.0,0.0,0.0,0.0,0.0,0.0,0.0,0.0,0.0,0.0,0.0,0.0,0.0,0.0,0.0,0.0,0.0,0.0,0.0,0.0,0.0,0.0,0.0,0.0,0.0,0.0,0.0,0.0,0.0,0.0,0.0,0.0,0.0,0.0,0.0,0.0,0.0,0.0,0.0,0.0,0.0,0.0,0.0,0.0,0.0,0.0,0.0,0.0,0.0,0.0,0.0,0.0,0.0,0.0,0.0,0.0,0.0,0.0,0.0,0.0,0.0,0.0,0.0,0.0,0.0,0.0,0.0,0.0,0.0,0.0,0.0,0.0,0.0,0.0,0.0,0.0,0.0,0.0,0.0,0.0,0.0,0.0,0.0,0.0,0.0,0.0,0.0,0.0,0.0,0.0,0.0,0.0,0.0,0.0,0.0,0.0,0.0,0.0,0.0,0.0,0.0,0.0,0.0,0.0,0.0,0.0,0.0,0.0,0.0,0.0,0.0,0.0,0.0,0.0,0.0,0.0,0.0,0.0,0.0,0.0,0.0,0.0,0.0,0.0,0.0,0.0,0.0,0.0,0.0,0.0,0.0,0.0,0.0,0.0,0.0,0.0,0.0,0.0,0.0,0.0,0.0,0.0,0.0,0.0,0.0,0.0,0.0,0.0,0.0,0.0,0.0,0.0,0.0,0.0,0.0,0.0,0.0,0.0,0.0,0.0,0.0,0.0,0.0,0.0,0.0,0.0,0.0,0.0,0.0,0.0,0.0,0.0,0.0,0.0,0.0,0.0,0.0,0.0,0.0,0.0,0.0,0.0,0.0,0.0,0.0,0.0,0.0,0.0,0.0,0.0,0.0,0.0,0.0,0.0,0.0,0.0,0.0,0.0,0.0,0.0,0.0,0.0,0.0,0.0,0.0,0.0,0.0,0.0,0.0,0.0,0.0,0.0,0.0,0.0,0.0,0.0,0.0,0.0,0.0,0.0,0.0,0.0,0.0,0.0,0.0,0.0,0.0,0.0,0.0,0.0,0.0,0.0,0.0,0.0,0.0,0.0,0.0,0.0,0.0,0.0,0.0,0.0,0.0,0.0,0.0,0.0,0.0,0.0,0.0,0.0,0.0,0.0,0.0,0.0,0.0,0.0,0.0,0.0,0.0,0.0,0.0,0.0,0.0,0.0,0.0,0.0,0.0,0.0,0.0,0.0,0.0,0.0,0.0,0.0,0.0,0.0,0.0,0.0,0.0,0.0,0.0,0.0,0.0,0.0,0.0,0.0,0.0,0.0,0.0,0.0,0.0,0.0,0.0,0.0,0.0,0.0,0.0,0.0,0.0,0.0,0.0,0.0,0.0,0.0,0.0,0.0,0.0,0.0,0.0,0.0,0.0,0.0,0.0,0.0,0.0,0.0,0.0,0.0,0.0,0.0,0.0,0.0,0.0,0.0,0.0,0.0,0.0,0.0,0.0,0.0,0.0,0.0,0.0,0.0,0.0,0.0,0.0,0.0,0.0,0.0,0.0,0.0,0.0,0.0,0.0,0.0,0.0,0.0,0.0,0.0,0.0,0.0,0.0,0.0,0.0,0.0,0.0,0.0,0.0,0.0,0.0,0.0,0.0,0.0,0.0,0.0,0.0,0.0,0.0,0.0,0.0,0.0,0.0,0.0,0.0,0.0,0.0,0.0,0.0,0.0,0.0,0.0,0.0,0.0,0.0,0.0,0.0,0.0,0.0,0.0,0.0,0.0,0.0,0.0,0.0,0.0,0.0,0.0,0.0,0.0,0.0,0.0,0.0,0.0,0.0,0.0,0.0,0.0,0.0,0.0,0.0,0.0,0.0,0.0,0.0,0.0,0.0,0.0,0.0,0.0,0.0,0.0,0.0,0.0,0.0,0.0,0.0,0.0,0.0,0.0,0.0,0.0,0.0,0.0,0.0,0.0,0.0,0.0,0.0,0.0,0.0,0.0,0.0,0.0,0.0,0.0,0.0,0.0,0.0,0.0,0.0,0.0,0.0,0.0,0.0,0.0,0.0,0.0,0.0,0.0,0.0,0.0,0.0,0.0,0.0,0.0,0.0,0.0,0.0,0.0,0.0,0.0,0.0,0.0,0.0,0.0,0.0,0.0,0.0,0.0,0.0,0.0,0.0,0.0,0.0,0.0,0.0,0.0,0.0,0.0,0.0,0.0,0.0,0.0,0.0,0.0,0.0,0.0,0.0,0.0,0.0,0.0,0.0,0.0,0.0,0.0,0.0,0.0,0.0,0.0,0.0,0.0,0.0,0.0,0.0,0.0,0.0,0.0,0.0,0.0,0.0,0.0,0.0,0.0,0.0,0.0,0.0,0.0,0.0,0.0,0.0,0.0,0.0,0.0,0.0,0.0,0.0,0.0,0.0,0.0,0.0,0.0,0.0,0.0,0.0,0.0,0.0,0.0,0.0,0.0,0.0,0.0,0.0,0.0,0.0,0.0,0.0,0.0,0.0,0.0,0.0,0.0,0.0,0.0,0.0,0.0,0.0,2.4258,0.0,0.0,0.0,0.0,0.0,0.0,0.0,0.0,0.0,0.0,0.0,0.0,0.0,0.0,0.0,0.0,0.0,0.0,0.0,0.0,0.0,0.0,0.0,0.0,0.0,0.0,0.0,0.0,0.0,0.0,0.0,0.0,0.0,0.0,0.0,0.0,0.0,0.0,0.0,0.0,0.0,0.0,0.0,0.0,0.0,0.0,0.0,0.0,0.0,0.0,0.0,0.0,0.0,0.0,0.0,0.0,0.0,0.0,0.0,0.0,0.0,0.0,0.0,0.0,0.0,0.0,0.0,0.0,0.0,0.0,0.0,0.0,0.0,0.0,0.0,0.0,0.0,0.0,0.0,0.0,0.0,0.0,0.0,0.0,0.0,0.0,0.0,0.0,0.0,0.0,0.0,0.0,0.0,0.0,0.0,0.0,0.0,0.0,0.0,0.0,0.0,0.0,0.0,0.0,0.0,0.0,0.0,0.0,0.0,0.0,2.5703,2.5684,2.5254,2.4805,2.4414,0.0,0.0,0.0,0.0,0.0,0.0,0.0,0.0,0.0,0.0,0.0,0.0,0.0,0.0,0.0,0.0,0.0,0.0,0.0,0.0,0.0,0.0,0.0,0.0,0.0,0.0,0.0,0.0,0.0,0.0,0.0,0.0,0.0,0.0,0.0,0.0,0.0,0.0,0.0,0.0,0.0,0.0,0.0,0.0,0.0,0.0,0.0,0.0,0.0,0.0,0.0,0.0,0.0,0.0,0.0,0.0,0.0,0.0,0.0,0.0,0.0,0.0,0.0,0.0,0.0,0.0,0.0,0.0,0.0,0.0,0.0,0.0,0.0,0.0,0.0,0.0,0.0,0.0,0.0,0.0,0.0,0.0,0.0,0.0,0.0,0.0,0.0,0.0,0.0,0.0,0.0,0.0,0.0,0.0,0.0,0.0,0.0,0.0,0.0,0.0,0.0,0.0,0.0,0.0,0.0,0.0,0.0,0.0,0.0,0.0,0.0,0.0,2.5059,2.4687,2.4687,0.0,0.0,0.0,0.0,0.0,0.0,0.0,0.0,0.0,0.0,0.0,0.0,0.0,0.0,0.0,0.0,0.0,0.0,0.0,0.0,0.0,0.0,0.0,0.0,0.0,0.0,0.0,0.0,0.0,0.0,0.0,0.0,0.0,0.0,0.0,0.0,0.0,0.0,0.0,0.0,0.0,0.0,0.0,0.0,0.0,0.0,0.0,0.0,0.0,0.0,0.0,0.0,0.0,0.0,0.0,0.0,0.0,0.0,0.0,0.0,0.0,0.0,0.0,0.0,0.0,0.0,0.0,0.0,0.0,0.0,0.0,0.0,0.0,0.0,0.0,0.0,0.0,0.0,0.0,0.0,0.0,0.0,0.0,0.0,0.0,0.0,0.0,0.0,0.0,0.0,0.0,0.0,0.0,0.0,0.0,0.0,0.0,0.0,0.0,0.0,0.0,0.0,0.0,0.0,0.0,0.0,0.0,0.0,0.0,0.0,2.5703,2.5703,2.5605,0.0,2.5586,0.0,0.0,0.0,0.0,0.0,0.0,0.0,0.0,0.0,0.0,0.0,0.0,0.0,0.0,0.0,0.0,0.0,0.0,0.0,0.0,0.0,0.0,0.0,0.0,0.0,0.0,0.0,0.0,0.0,0.0,0.0,0.0,0.0,0.0,0.0,0.0,0.0,0.0,0.0,0.0,0.0,0.0,0.0,0.0,0.0,0.0,0.0,0.0,0.0,0.0,0.0,0.0,0.0,0.0,0.0,0.0,0.0,0.0,0.0,0.0,0.0,0.0,0.0,0.0,0.0,0.0,0.0,0.0,0.0,0.0,0.0,0.0,0.0,0.0,0.0,0.0,0.0,0.0,0.0,0.0,0.0,0.0,0.0,0.0,0.0,0.0,0.0,0.0,0.0,0.0,0.0,0.0,0.0,0.0,0.0,0.0,0.0,0.0,0.0,0.0,0.0,0.0,0.0,0.0,0.0,0.0,0.0,0.0,0.0,0.0,2.5703,2.5703,2.5703,2.5703,0.0,0.0,0.0,0.0,0.0,0.0,0.0,0.0,0.0,0.0,0.0,0.0,0.0,0.0,0.0,0.0,0.0,0.0,0.0,0.0,0.0,0.0,0.0,0.0,0.0,0.0,0.0,0.0,0.0,0.0,0.0,0.0,0.0,0.0,0.0,0.0,0.0,0.0,0.0,0.0,0.0,0.0,0.0,0.0,0.0,0.0,0.0,0.0,0.0,0.0,0.0,0.0,0.0,0.0,0.0,0.0,0.0,0.0,0.0,0.0,0.0,0.0,0.0,0.0,0.0,0.0,0.0,0.0,0.0,0.0,0.0,0.0,0.0,0.0,0.0,0.0,0.0,0.0,0.0,0.0,0.0,0.0,0.0,0.0,0.0,0.0,0.0,0.0,0.0,0.0,0.0,0.0,0.0,0.0,0.0,0.0,0.0,0.0,0.0,0.0,0.0,0.0,0.0,0.0,0.0,0.0,0.0,0.0,0.0,0.0,2.5703,2.5586,2.5352,2.5332,2.5332,2.5332,0.0,0.0,0.0,0.0,0.0,0.0,0.0,0.0,0.0,0.0,0.0,0.0,0.0,0.0,0.0,0.0,0.0,0.0,0.0,0.0,0.0,0.0,0.0,0.0,0.0,0.0,0.0,0.0,0.0,0.0,0.0,0.0,0.0,0.0,0.0,0.0,0.0,0.0,0.0,0.0,0.0,0.0,0.0,0.0,0.0,0.0,0.0,0.0,0.0,0.0,0.0,0.0,0.0,0.0,0.0,0.0,0.0,0.0,0.0,0.0,0.0,0.0,0.0,0.0,0.0,0.0,0.0,0.0,0.0,0.0,0.0,0.0,0.0,0.0,0.0,0.0,0.0,0.0,0.0,0.0,0.0,0.0,0.0,0.0,0.0,0.0,0.0,0.0,0.0,0.0,0.0,0.0,0.0,0.0,0.0,0.0,0.0,0.0,0.0,0.0,0.0,0.0,0.0,0.0,0.0,0.0,0.0,0.0,2.5703,2.5684,2.5312,2.4512,2.4473,2.4473,0.0,0.0,0.0,0.0,0.0,0.0,0.0,0.0,0.0,0.0,0.0,0.0,0.0,0.0,0.0,0.0,0.0,0.0,0.0,0.0,0.0,0.0,0.0,0.0,0.0,0.0,0.0,0.0,0.0,0.0,0.0,0.0,0.0,0.0,0.0,0.0,0.0,0.0,0.0,0.0,0.0,0.0,0.0,0.0,0.0,0.0,0.0,0.0,0.0,0.0,0.0,0.0,0.0,0.0,0.0,0.0,0.0,0.0,0.0,0.0,0.0,0.0,0.0,0.0,0.0,0.0,0.0,0.0,0.0,0.0,0.0,0.0,0.0,0.0,0.0,0.0,0.0,0.0,0.0,0.0,0.0,0.0,0.0,0.0,0.0,0.0,0.0,0.0,0.0,0.0,0.0,0.0,0.0,0.0,0.0,0.0,0.0,0.0,0.0,0.0,0.0,0.0,0.0,0.0,0.0,0.0,0.0,0.0,0.0,2.5664,2.5137,2.4727,2.4394,2.3867,2.3828,0.0,0.0,0.0,0.0,0.0,0.0,0.0,0.0,0.0,0.0,0.0,0.0,0.0,0.0,0.0,0.0,0.0,0.0,0.0,0.0,0.0,0.0,0.0,0.0,0.0,0.0,0.0,0.0,0.0,0.0,0.0,0.0,0.0,0.0,0.0,0.0,0.0,0.0,0.0,0.0,0.0,0.0,0.0,0.0,0.0,0.0,0.0,0.0,0.0,0.0,0.0,0.0,0.0,0.0,0.0,0.0,0.0,0.0,0.0,0.0,0.0,0.0,0.0,0.0,0.0,0.0,0.0,0.0,0.0,0.0,0.0,0.0,0.0,0.0,0.0,0.0,0.0,0.0,0.0,0.0,0.0,0.0,0.0,0.0,0.0,0.0,0.0,0.0,0.0,0.0,0.0,0.0,0.0,0.0,0.0,0.0,0.0,0.0,0.0,0.0,0.0,0.0,0.0,0.0,0.0,0.0,0.0,0.0,0.0,2.4844,0.0,2.3594,2.3574,2.3027,2.3105,0.0,0.0,0.0,0.0,0.0,0.0,0.0,0.0,0.0,0.0,0.0,0.0,0.0,0.0,0.0,0.0,0.0,0.0,0.0,0.0,0.0,0.0,0.0,0.0,0.0,0.0,0.0,0.0,0.0,0.0,0.0,0.0,0.0,0.0,0.0,0.0,0.0,0.0,0.0,0.0,0.0,0.0,0.0,0.0,0.0,0.0,0.0,0.0,0.0,0.0,0.0,0.0,0.0,0.0,0.0,0.0,0.0,0.0,0.0,0.0,0.0,0.0,0.0,0.0,0.0,0.0,0.0,0.0,0.0,0.0,0.0,0.0,0.0,0.0,0.0,0.0,0.0,0.0,0.0,0.0,0.0,0.0,0.0,0.0,0.0,0.0,0.0,0.0,0.0,0.0,0.0,0.0,0.0,0.0,0.0,0.0,0.0,0.0,0.0,0.0,0.0,0.0,0.0,0.0,0.0,0.0,0.0,0.0,2.4023,2.3164,2.2441,2.2109,2.1934,2.2012,2.2324,0.0,0.0,0.0,0.0,0.0,0.0,0.0,0.0,0.0,0.0,0.0,0.0,0.0,0.0,0.0,0.0,0.0,0.0,0.0,0.0,0.0,0.0,0.0,0.0,0.0,0.0,0.0,0.0,0.0,0.0,0.0,0.0,0.0,0.0,0.0,0.0,0.0,0.0,0.0,0.0,0.0,0.0,0.0,0.0,0.0,0.0,0.0,0.0,0.0,0.0,0.0,0.0,0.0,0.0,0.0,0.0,0.0,0.0,0.0,0.0,0.0,0.0,0.0,0.0,0.0,0.0,0.0,0.0,0.0,0.0,0.0,0.0,0.0,0.0,0.0,0.0,0.0,0.0,0.0,0.0,0.0,0.0,0.0,0.0,0.0,0.0,0.0,0.0,0.0,0.0,0.0,0.0,0.0,0.0,0.0,0.0,0.0,0.0,0.0,0.0,0.0,0.0,0.0,0.0,0.0,0.0,0.0,0.0,0.0,2.4004,2.375,2.334,2.2773,2.2773,2.3184,0.0,0.0,0.0,0.0,0.0,0.0,0.0,0.0,0.0,0.0,0.0,0.0,0.0,0.0,0.0,0.0,0.0,0.0,0.0,0.0,0.0,0.0,0.0,0.0,0.0,0.0,0.0,0.0,0.0,0.0,0.0,0.0,0.0,0.0,0.0,0.0,0.0,0.0,0.0,0.0,0.0,0.0,0.0,0.0,0.0,0.0,0.0,0.0,0.0,0.0,0.0,0.0,0.0,0.0,0.0,0.0,0.0,0.0,0.0,0.0,0.0,0.0,0.0,0.0,0.0,0.0,0.0,0.0,0.0,0.0,0.0,0.0,0.0,0.0,0.0,0.0,0.0,0.0,0.0,0.0,0.0,0.0,0.0,0.0,0.0,0.0,0.0,0.0,0.0,0.0,0.0,0.0,0.0,0.0,0.0,0.0,0.0,0.0,0.0,0.0,0.0,0.0,0.0,0.0,0.0,0.0,0.0,0.0,0.0,2.4394,2.4102,2.3691,2.3105,2.3164,2.3574,2.4355,0.0,0.0,0.0,0.0,0.0,0.0,0.0,0.0,0.0,0.0,0.0,0.0,0.0,0.0,0.0,0.0,0.0,0.0,0.0,0.0,0.0,0.0,0.0,0.0,0.0,0.0,0.0,0.0,0.0,0.0,0.0,0.0,0.0,0.0,0.0,0.0,0.0,0.0,0.0,0.0,0.0,0.0,0.0,0.0,0.0,0.0,0.0,0.0,0.0,0.0,0.0,0.0,0.0,0.0,0.0,0.0,0.0,0.0,0.0,0.0,0.0,0.0,0.0,0.0,0.0,0.0,0.0,0.0,0.0,0.0,0.0,0.0,0.0,0.0,0.0,0.0,0.0,0.0,0.0,0.0,0.0,0.0,0.0,0.0,0.0,0.0,0.0,0.0,0.0,0.0,0.0,0.0,0.0,0.0,0.0,0.0,0.0,0.0,0.0,0.0,0.0,0.0,0.0,0.0,0.0,0.0,0.0,0.0,2.4492,2.373,2.332,2.3184,2.332,2.3691,0.0,0.0,0.0,0.0,0.0,0.0,0.0,0.0,0.0,0.0,0.0,0.0,0.0,0.0,0.0,0.0,0.0,0.0,0.0,0.0,0.0,0.0,0.0,0.0,0.0,0.0,0.0,0.0,0.0,0.0,0.0,0.0,0.0,0.0,0.0,0.0,0.0,0.0,0.0,0.0,0.0,0.0,0.0,0.0,0.0,0.0,0.0,0.0,0.0,0.0,0.0,0.0,0.0,0.0,0.0,0.0,0.0,0.0,0.0,0.0,0.0,0.0,0.0,0.0,0.0,0.0,0.0,0.0,0.0,0.0,0.0,0.0,0.0,0.0,0.0,0.0,0.0,0.0,0.0,0.0,0.0,0.0,0.0,0.0,0.0,0.0,0.0,0.0,0.0,0.0,0.0,0.0,0.0,0.0,0.0,0.0,0.0,0.0,0.0,0.0,0.0,0.0,0.0,0.0,0.0,0.0,0.0,0.0,0.0,2.5371,2.5137,2.4727,2.4102,2.4707,2.5156,0.0,0.0,0.0,0.0,0.0,0.0,0.0,0.0,0.0,0.0,0.0,0.0,0.0,0.0,0.0,0.0,0.0,0.0,0.0,0.0,0.0,0.0,0.0,0.0,0.0,0.0,0.0,0.0,0.0,0.0,0.0,0.0,0.0,0.0,0.0,0.0,0.0,0.0,0.0,0.0,0.0,0.0,0.0,0.0,0.0,0.0,0.0,0.0,0.0,0.0,0.0,0.0,0.0,0.0,0.0,0.0,0.0,0.0,0.0,0.0,0.0,0.0,0.0,0.0,0.0,0.0,0.0,0.0,0.0,0.0,0.0,0.0,0.0,0.0,0.0,0.0,0.0,0.0,0.0,0.0,0.0,0.0,0.0,0.0,0.0,0.0,0.0,0.0,0.0,0.0,0.0,0.0,0.0,0.0,0.0,0.0,0.0,0.0,0.0,0.0,0.0,0.0,0.0,0.0,0.0,0.0,0.0,0.0,2.5703,2.5703,2.5703,2.5449,2.4961,2.5449,2.5703,0.0,0.0,0.0,0.0,0.0,0.0,0.0,0.0,0.0,0.0,0.0,0.0,0.0,0.0,0.0,0.0,0.0,0.0,0.0,0.0,0.0,0.0,0.0,0.0,0.0,0.0,0.0,0.0,0.0,0.0,0.0,0.0,0.0,0.0,0.0,0.0,0.0,0.0,0.0,0.0,0.0,0.0,0.0,0.0,0.0,0.0,0.0,0.0,0.0,0.0,0.0,0.0,0.0,0.0,0.0,0.0,0.0,0.0,0.0,0.0,0.0,0.0,0.0,0.0,0.0,0.0,0.0,0.0,0.0,0.0,0.0,0.0,0.0,0.0,0.0,0.0,0.0,0.0,0.0,0.0,0.0,0.0,0.0,0.0,0.0,0.0,0.0,0.0,0.0,0.0,0.0,0.0,0.0,0.0,0.0,0.0,0.0,0.0,0.0,0.0,0.0,0.0,0.0,0.0,0.0,0.0,0.0,0.0,2.582,2.584,2.582,2.584,2.584,2.5742,2.5703,0.0,0.0,0.0,0.0,0.0,0.0,0.0,0.0,0.0,0.0,0.0,0.0,0.0,0.0,0.0,0.0,0.0,0.0,0.0,0.0,0.0,0.0,0.0,0.0,0.0,0.0,0.0,0.0,0.0,0.0,0.0,0.0,0.0,0.0,0.0,0.0,0.0,0.0,0.0,0.0,0.0,0.0,0.0,0.0,0.0,0.0,0.0,0.0,0.0,0.0,0.0,0.0,0.0,0.0,0.0,0.0,0.0,0.0,0.0,0.0,0.0,0.0,0.0,0.0,0.0,0.0,0.0,0.0,0.0,0.0,0.0,0.0,0.0,0.0,0.0,0.0,0.0,0.0,0.0,0.0,0.0,0.0,0.0,0.0,0.0,0.0,0.0,0.0,0.0,0.0,0.0,0.0,0.0,0.0,0.0,0.0,0.0,0.0,0.0,0.0,0.0,0.0,0.0,0.0,0.0,0.0,0.0,0.0,2.6719,2.6719,2.6719,2.6719,2.6719,2.6055,2.5703,0.0,0.0,0.0,0.0,0.0,0.0,0.0,0.0,0.0,0.0,0.0,0.0,0.0,0.0,0.0,0.0,0.0,0.0,0.0,0.0,0.0,0.0,0.0,0.0,0.0,0.0,0.0,0.0,0.0,0.0,0.0,0.0,0.0,0.0,0.0,0.0,0.0,0.0,0.0,0.0,0.0,0.0,0.0,0.0,0.0,0.0,0.0,0.0,2.43,0.0,0.0,0.0,0.0,0.0,0.0,0.0,0.0,0.0,0.0,0.0,0.0,0.0,0.0,0.0,0.0,0.0,0.0,0.0,0.0,0.0,0.0,0.0,0.0,0.0,0.0,0.0,0.0,0.0,0.0,0.0,0.0,0.0,0.0,0.0,0.0,0.0,0.0,0.0,0.0,0.0,0.0,0.0,0.0,0.0,0.0,0.0,0.0,0.0,0.0,0.0,0.0,0.0,0.0,0.0,0.0,0.0,0.0,0.0,2.7187,2.7598,2.7207,2.7012,2.6973,2.6131,2.5661,0.0,0.0,0.0,0.0,0.0,0.0,0.0,0.0,0.0,0.0,0.0,0.0,0.0,0.0,0.0,0.0,0.0,0.0,0.0,0.0,0.0,0.0,0.0,0.0,0.0,0.0,0.0,0.0,0.0,0.0,0.0,0.0,0.0,0.0,0.0,0.0,0.0,0.0,0.0,0.0,0.0,0.0,0.0,0.0,0.0,0.0,0.0,0.0,0.0,0.0,0.0,0.0,0.0,0.0,0.0,0.0,0.0,0.0,0.0,0.0,0.0,0.0,0.0,0.0,0.0,0.0,0.0,0.0,0.0,0.0,0.0,0.0,0.0,0.0,0.0,0.0,0.0,0.0,0.0,0.0,0.0,0.0,0.0,0.0,0.0,0.0,0.0,0.0,0.0,0.0,0.0,0.0,0.0,0.0,0.0,0.0,0.0,0.0,0.0,0.0,0.0,0.0,0.0,0.0,0.0,0.0,0.0,2.7148,2.7617,2.8437,2.7656,2.7207,2.7187,2.6159,2.563,2.5703,0.0,0.0,0.0,0.0,0.0,0.0,0.0,0.0,0.0,0.0,0.0,0.0,0.0,0.0,0.0,0.0,0.0,0.0,0.0,0.0,0.0,0.0,0.0,0.0,0.0,0.0,0.0,0.0,0.0,0.0,0.0,0.0,0.0,0.0,0.0,0.0,0.0,0.0,2.4218,2.4897,0.0,0.0,0.0,0.0,0.0,0.0,0.0,0.0,2.5731,0.0,0.0,0.0,0.0,0.0,0.0,0.0,0.0,0.0,0.0,0.0,0.0,0.0,0.0,0.0,0.0,0.0,0.0,0.0,0.0,0.0,0.0,0.0,0.0,0.0,0.0,0.0,0.0,0.0,0.0,0.0,0.0,0.0,0.0,0.0,0.0,0.0,0.0,0.0,0.0,0.0,0.0,0.0,0.0,0.0,0.0,0.0,0.0,0.0,0.0,0.0,0.0,0.0,0.0,0.0,0.0,2.6992,2.7715,2.8516,2.9355,2.8535,2.8086,2.8047,2.6413,2.5588,2.5703,0.0,0.0,0.0,0.0,0.0,0.0,0.0,0.0,0.0,0.0,0.0,0.0,0.0,0.0,0.0,0.0,0.0,0.0,0.0,0.0,0.0,0.0,0.0,0.0,0.0,0.0,0.0,0.0,0.0,0.0,0.0,0.0,0.0,0.0,0.0,0.0,0.0,0.0,0.0,2.4897,2.565,0.0,0.0,0.0,0.0,0.0,0.0,0.0,0.0,2.7334,0.0,0.0,0.0,0.0,0.0,0.0,0.0,0.0,0.0,0.0,0.0,0.0,0.0,0.0,0.0,0.0,0.0,0.0,0.0,0.0,0.0,0.0,0.0,0.0,0.0,0.0,0.0,0.0,0.0,0.0,0.0,0.0,0.0,0.0,0.0,0.0,0.0,0.0,0.0,0.0,0.0,0.0,0.0,0.0,0.0,0.0,0.0,0.0,0.0,0.0,0.0,0.0,0.0,0.0,0.0,2.7617,2.8086,2.8945,3.0176,2.8984,2.8281,2.8262,2.6522,2.5601,0.0,0.0,0.0,0.0,0.0,0.0,0.0,0.0,0.0,0.0,0.0,0.0,0.0,0.0,0.0,0.0,0.0,0.0,0.0,0.0,0.0,0.0,0.0,0.0,0.0,0.0,0.0,0.0,0.0,0.0,0.0,0.0,0.0,0.0,0.0,0.0,0.0,0.0,0.0,0.0,2.5159,2.5686,2.6497,0.0,0.0,0.0,0.0,0.0,0.0,2.7021,2.7664,0.0,0.0,0.0,0.0,0.0,0.0,0.0,0.0,0.0,0.0,0.0,0.0,0.0,0.0,0.0,0.0,0.0,0.0,0.0,0.0,0.0,0.0,0.0,0.0,0.0,0.0,0.0,0.0,0.0,0.0,0.0,0.0,0.0,0.0,0.0,0.0,0.0,0.0,0.0,0.0,0.0,0.0,0.0,0.0,0.0,0.0,0.0,0.0,0.0,0.0,0.0,0.0,0.0,0.0,0.0,2.8223,2.8281,2.9062,3.0488,2.9101,2.8223,2.8008,2.6436,2.5631,0.0,0.0,0.0,0.0,0.0,0.0,0.0,0.0,0.0,0.0,0.0,0.0,0.0,0.0,0.0,0.0,0.0,0.0,0.0,0.0,0.0,0.0,0.0,0.0,0.0,0.0,0.0,0.0,0.0,0.0,0.0,0.0,0.0,0.0,0.0,0.0,0.0,0.0,0.0,0.0,0.0,2.6109,2.6741,2.6699,0.0,0.0,0.0,0.0,2.6846,2.764,0.0,0.0,0.0,0.0,0.0,0.0,0.0,0.0,0.0,0.0,0.0,0.0,0.0,0.0,0.0,0.0,0.0,0.0,0.0,0.0,0.0,0.0,0.0,0.0,0.0,0.0,0.0,0.0,0.0,0.0,0.0,0.0,0.0,0.0,0.0,0.0,0.0,0.0,0.0,0.0,0.0,0.0,0.0,0.0,0.0,0.0,0.0,0.0,0.0,0.0,0.0,0.0,0.0,0.0,0.0,0.0,2.8223,2.8281,2.8769,2.9648,2.8789,2.793,2.7168,2.6162,2.5603,0.0,0.0,0.0,0.0,0.0,0.0,0.0,0.0,0.0,0.0,0.0,0.0,0.0,0.0,0.0,0.0,0.0,0.0,0.0,0.0,0.0,0.0,0.0,0.0,0.0,0.0,0.0,0.0,0.0,0.0,0.0,0.0,0.0,0.0,0.0,0.0,0.0,0.0,0.0,0.0,0.0,2.7554,2.7646,2.7071,2.6869,0.0,0.0,2.7664,2.7664,2.8925,0.0,0.0,0.0,0.0,0.0,0.0,0.0,0.0,0.0,0.0,0.0,0.0,0.0,0.0,0.0,0.0,0.0,0.0,0.0,0.0,0.0,0.0,0.0,0.0,0.0,0.0,0.0,0.0,0.0,0.0,0.0,0.0,0.0,0.0,0.0,0.0,0.0,0.0,0.0,0.0,0.0,0.0,0.0,0.0,0.0,0.0,0.0,0.0,0.0,0.0,0.0,0.0,0.0,0.0,0.0,2.6562,2.8223,2.8281,2.8945,3.0234,2.9004,2.8125,2.7734,2.6385,2.566,0.0,0.0,0.0,0.0,0.0,0.0,0.0,0.0,0.0,0.0,0.0,0.0,0.0,0.0,0.0,0.0,0.0,0.0,0.0,0.0,0.0,0.0,0.0,0.0,0.0,0.0,0.0,0.0,0.0,0.0,0.0,0.0,0.0,0.0,0.0,0.0,0.0,0.0,0.0,0.0,0.0,0.0,2.7811,2.8282,0.0,0.0,0.0,2.9182,2.9163,0.0,0.0,0.0,0.0,0.0,0.0,0.0,0.0,0.0,0.0,0.0,0.0,0.0,0.0,0.0,0.0,0.0,0.0,0.0,0.0,0.0,0.0,0.0,0.0,0.0,0.0,0.0,0.0,0.0,0.0,0.0,0.0,0.0,0.0,0.0,0.0,0.0,0.0,0.0,0.0,0.0,0.0,0.0,0.0,0.0,0.0,0.0,0.0,0.0,0.0,0.0,0.0,0.0,0.0,0.0,0.0,0.0,2.8242,2.8281,2.9043,3.0469,2.9101,2.8203,2.7969,2.6484,0.0,0.0,0.0,0.0,0.0,0.0,0.0,0.0,0.0,0.0,0.0,0.0,0.0,0.0,0.0,0.0,0.0,0.0,0.0,0.0,0.0,0.0,0.0,0.0,0.0,0.0,0.0,0.0,0.0,0.0,0.0,0.0,0.0,0.0,0.0,0.0,0.0,0.0,0.0,0.0,0.0,0.0,2.8482,2.8404,2.9604,3.0509,0.0,0.0,3.043,3.024,3.0369,3.0149,0.0,0.0,0.0,0.0,0.0,0.0,0.0,0.0,0.0,0.0,0.0,0.0,0.0,0.0,0.0,0.0,0.0,0.0,0.0,0.0,0.0,0.0,0.0,0.0,0.0,0.0,0.0,0.0,0.0,0.0,0.0,0.0,0.0,0.0,0.0,0.0,0.0,0.0,0.0,0.0,0.0,0.0,0.0,0.0,0.0,0.0,0.0,0.0,0.0,0.0,0.0,0.0,0.0,0.0,0.0,2.8223,2.8281,2.875,2.9629,2.8769,2.791,2.709,2.6172,2.5662,0.0,0.0,0.0,0.0,0.0,0.0,0.0,0.0,0.0,0.0,0.0,0.0,0.0,0.0,0.0,0.0,0.0,0.0,0.0,0.0,0.0,0.0,0.0,0.0,0.0,0.0,0.0,0.0,0.0,0.0,0.0,0.0,0.0,0.0,0.0,0.0,0.0,0.0,0.0,0.0,0.0,3.0335,3.0086,3.0785,3.1323,0.0,0.0,3.1054,3.0314,3.0834,3.0785,2.9262,0.0,0.0,0.0,0.0,0.0,0.0,0.0,0.0,0.0,0.0,0.0,0.0,0.0,0.0,0.0,0.0,0.0,0.0,0.0,0.0,0.0,0.0,0.0,0.0,0.0,0.0,0.0,0.0,0.0,0.0,0.0,0.0,0.0,0.0,0.0,0.0,0.0,0.0,0.0,0.0,0.0,0.0,0.0,0.0,0.0,0.0,0.0,0.0,0.0,0.0,0.0,0.0,0.0,2.6562,2.8262,2.8281,2.8711,2.9531,2.875,2.7891,2.7031,2.6172,2.5703,0.0,0.0,0.0,0.0,0.0,0.0,0.0,0.0,0.0,0.0,0.0,0.0,0.0,0.0,0.0,0.0,0.0,0.0,0.0,0.0,0.0,0.0,0.0,0.0,0.0,0.0,0.0,0.0,2.9714,2.9907,2.9907,0.0,0.0,0.0,0.0,0.0,0.0,0.0,0.0,0.0,0.0,3.1064,3.095,3.2051,0.0,0.0,3.2155,3.2039,3.1727,3.1519,3.1005,2.9916,2.9592,0.0,0.0,0.0,0.0,0.0,0.0,0.0,0.0,0.0,0.0,0.0,0.0,0.0,0.0,0.0,0.0,0.0,0.0,0.0,0.0,0.0,0.0,0.0,0.0,0.0,0.0,0.0,0.0,0.0,0.0,0.0,0.0,0.0,0.0,0.0,0.0,0.0,0.0,0.0,0.0,0.0,0.0,0.0,0.0,0.0,0.0,0.0,0.0,0.0,0.0,0.0,0.0,2.6816,2.8281,2.8555,2.9121,2.998,2.8887,2.8027,2.7383,2.6289,2.5703,0.0,0.0,0.0,0.0,0.0,0.0,0.0,0.0,0.0,0.0,0.0,0.0,0.0,0.0,0.0,0.0,0.0,0.0,0.0,0.0,0.0,0.0,0.0,0.0,0.0,0.0,0.0,0.0,3.0404,3.0404,3.0401,0.0,0.0,0.0,0.0,0.0,0.0,0.0,0.0,0.0,0.0,3.2328,3.2293,3.3347,3.3855,3.3078,3.2974,3.2809,3.2314,3.218,3.1678,3.0411,0.0,0.0,0.0,0.0,0.0,0.0,0.0,0.0,0.0,0.0,0.0,0.0,0.0,0.0,0.0,0.0,0.0,0.0,0.0,0.0,0.0,0.0,0.0,0.0,0.0,0.0,0.0,2.5512,0.0,0.0,2.552,0.0,0.0,0.0,0.0,0.0,0.0,0.0,0.0,0.0,0.0,0.0,0.0,0.0,0.0,0.0,0.0,0.0,0.0,0.0,0.0,0.0,0.0,2.7402,2.832,2.9141,2.9961,3.0762,2.918,2.8301,2.8184,2.6602,2.5703,2.5703,0.0,0.0,0.0,0.0,0.0,0.0,0.0,0.0,0.0,0.0,0.0,0.0,0.0,0.0,0.0,0.0,0.0,0.0,0.0,0.0,0.0,0.0,0.0,0.0,0.0,0.0,3.0404,3.0404,3.0404,0.0,0.0,0.0,0.0,0.0,0.0,0.0,0.0,0.0,0.0,3.3537,3.4443,3.4245,3.4639,3.4711,3.3935,3.3807,3.3263,3.1819,3.2767,3.2944,0.0,0.0,0.0,0.0,0.0,0.0,0.0,0.0,0.0,0.0,0.0,0.0,0.0,0.0,0.0,0.0,0.0,0.0,0.0,0.0,0.0,0.0,0.0,0.0,0.0,0.0,0.0,2.5966,2.6415,0.0,0.0,0.0,0.0,0.0,0.0,0.0,0.0,0.0,0.0,0.0,2.918,2.9766,0.0,0.0,0.0,0.0,0.0,0.0,0.0,0.0,0.0,0.0,0.0,0.0,2.7715,2.9101,2.9434,2.9746,3.0019,2.9473,2.8613,2.7461,2.6855,2.6289,2.5723,0.0,0.0,0.0,0.0,0.0,0.0,0.0,0.0,0.0,0.0,0.0,0.0,0.0,0.0,0.0,0.0,0.0,0.0,0.0,0.0,0.0,0.0,0.0,0.0,0.0,3.0404,0.0,0.0,0.0,0.0,0.0,0.0,0.0,0.0,0.0,0.0,0.0,3.1388,3.2582,3.3501,3.4247,3.4705,3.5388,3.5764,0.0,0.0,0.0,0.0,0.0,0.0,0.0,0.0,0.0,0.0,0.0,0.0,0.0,0.0,3.5404,3.2699,3.1751,3.1556,3.2112,0.0,0.0,0.0,0.0,0.0,0.0,0.0,0.0,0.0,0.0,0.0,0.0,0.0,0.0,2.6934,0.0,2.6855,0.0,0.0,0.0,0.0,0.0,0.0,0.0,0.0,2.9648,3.0215,3.0508,3.0781,3.1055,0.0,3.1035,3.0312,0.0,0.0,0.0,0.0,0.0,0.0,0.0,0.0,2.8613,2.998,3.0059,3.0215,3.0469,2.9922,2.9062,2.7949,2.7617,2.7051,2.6191,2.6948,2.7533,0.0,0.0,0.0,0.0,0.0,0.0,0.0,0.0,0.0,0.0,0.0,0.0,0.0,0.0,0.0,0.0,0.0,0.0,0.0,0.0,0.0,0.0,0.0,3.0404,0.0,0.0,0.0,0.0,0.0,0.0,0.0,0.0,0.0,3.1101,3.1462,3.2315,3.3812,3.4457,3.5091,3.5891,0.0,0.0,0.0,0.0,0.0,0.0,0.0,3.5814,3.5488,3.5286,3.5587,3.6901,3.801,3.8699,3.8699,0.0,0.0,3.5206,3.4284,3.4107,3.4619,3.4718,3.5041,3.6068,3.5874,3.5569,0.0,0.0,0.0,0.0,0.0,0.0,0.0,0.0,2.828,2.8301,0.0,2.8281,0.0,0.0,0.0,0.0,0.0,2.9238,0.0,0.0,3.0625,3.1426,3.2129,3.1387,3.1445,3.2148,3.1367,3.0937,3.0879,3.0039,0.0,0.0,0.0,0.0,0.0,0.0,3.0059,3.0898,3.0996,3.1367,3.209,3.0547,2.9668,2.9551,2.873,2.7891,2.7109,2.7871,2.8711,2.9531,2.959,0.0,0.0,0.0,0.0,0.0,0.0,0.0,0.0,0.0,0.0,0.0,0.0,0.0,0.0,0.0,0.0,0.0,0.0,0.0,0.0,3.0462,0.0,0.0,0.0,0.0,0.0,0.0,0.0,0.0,0.0,0.0,3.1599,3.2587,3.4054,3.5716,0.0,0.0,0.0,0.0,3.7683,3.8087,3.784,3.748,3.7075,3.8587,3.9064,3.6861,0.0,0.0,3.8956,3.8854,3.8946,3.8872,3.9011,3.8854,3.8854,3.8579,3.8505,3.8579,3.8516,3.8699,3.8799,3.8699,3.845,3.0971,0.0,0.0,0.0,0.0,2.8235,2.8983,3.0038,2.8828,2.8984,3.0078,2.8828,0.0,0.0,0.0,0.0,0.0,0.0,3.1172,3.2305,3.2578,3.2812,3.3047,3.2812,3.2812,3.3027,3.2226,3.1816,3.1797,3.0957,3.0078,2.9219,0.0,0.0,0.0,0.0,3.0957,3.1816,3.2402,3.2539,3.2207,3.1719,3.0859,2.9629,2.875,2.8184,2.793,2.8705,2.929,2.959,3.0053,0.0,0.0,0.0,0.0,0.0,0.0,0.0,0.0,0.0,0.0,0.0,0.0,0.0,0.0,0.0,0.0,0.0,0.0,0.0,3.1272,3.183,3.2199,0.0,0.0,0.0,0.0,0.0,0.0,0.0,0.0,0.0,3.3724,3.4001,3.4886,0.0,0.0,3.6987,3.8532,3.8526,3.8866,4.0358,4.0277,0.0,4.0209,4.0034,3.9863,3.9745,4.0799,4.1534,4.1313,4.1735,4.2129,4.2111,4.2129,4.2129,4.2001,4.0212,3.9056,3.9386,3.9559,3.9963,4.0965,4.0846,4.0516,3.3961,3.1165,3.0535,3.0266,3.0267,3.0312,3.0918,3.1836,3.0781,3.0918,3.1836,3.0781,3.0312,3.0312,3.0332,0.0,0.0,0.0,3.2441,3.3379,3.3379,3.3594,3.3887,3.3555,3.3594,3.3867,3.3086,3.2676,3.2676,3.2148,3.1621,3.1074,0.0,0.0,3.0625,3.1465,3.2324,3.3164,3.334,3.332,3.3203,3.2539,3.1543,3.0176,2.9609,2.916,2.8848,2.9605,3.0073,3.0117,3.0458,3.0665,0.0,0.0,0.0,0.0,0.0,0.0,0.0,0.0,0.0,0.0,0.0,3.0404,0.0,0.0,0.0,0.0,3.0734,3.1272,3.2099,3.2622,0.0,0.0,0.0,0.0,0.0,0.0,0.0,3.4372,3.533,3.6064,3.6239,3.6343,3.6624,3.7237,3.7269,3.7768,3.9219,0.0,4.0222,4.1845,4.1785,4.1688,4.2017,4.1653,4.1497,4.1956,4.2451,4.2763,4.2782,4.3194,4.3488,4.3488,4.3488,4.3488,4.3488,4.1872,4.0716,4.1211,4.1322,4.167,4.2616,4.2378,4.2213,3.6992,3.6074,3.4473,3.373,3.3594,3.3613,3.3652,3.3691,3.3613,3.3613,3.3594,3.3535,3.3496,3.3496,3.3496,0.0,3.3691,3.3691,3.3769,3.3809,3.3809,3.4199,3.4844,3.418,3.416,3.4766,3.3984,3.3574,3.3496,3.3418,3.3379,3.3379,3.2715,3.2363,3.2344,3.3086,3.3906,3.4687,3.3965,3.3965,3.4648,3.3047,3.1797,3.1035,3.0937,3.0527,2.9785,3.0469,3.0918,3.0898,3.0768,3.071,3.0689,0.0,0.0,0.0,0.0,0.0,0.0,0.0,0.0,0.0,0.0,0.0,0.0,0.0,0.0,0.0,3.1388,0.0,3.2929,3.3083,0.0,0.0,0.0,3.351,3.4318,3.5176,3.5981,3.6734,0.0,0.0,3.8704,3.906,3.8883,3.7897,3.8422,3.9192,4.0021,4.075,4.1614,4.2713,4.2617,4.2507,4.285,4.3124,4.3286,4.3322,4.3488,4.3451,4.3451,4.3469,4.3488,4.3488,4.3488,4.3488,4.3488,4.3341,4.3488,4.3359,4.3396,4.3433,4.3433,4.3396,4.3359,3.8769,3.793,3.7539,3.6621,3.541,3.5391,3.5762,3.6289,3.5664,3.5371,3.5332,3.4668,3.4394,3.4394,3.4375,3.5117,3.6367,3.6367,3.6719,3.7344,3.7363,3.7129,3.6719,3.7148,3.6758,3.5723,3.5469,3.5039,3.4375,3.373,3.3379,3.3418,3.3887,3.3769,3.3164,3.3965,3.4492,3.4707,3.5108,3.5077,3.4588,3.2926,3.1982,3.1894,3.125,3.0801,3.0586,3.0781,3.0918,3.0898,3.0725,3.0612,3.0629,3.0494,0.0,0.0,0.0,0.0,0.0,0.0,0.0,0.0,0.0,3.2292,3.2311,0.0,3.2292,0.0,3.3103,3.3683,3.3875,3.4503,0.0,0.0,3.5427,3.5888,3.61,3.6888,3.7465,3.7657,3.8155,3.8575,3.878,3.9756,4.0384,4.0128,4.0333,4.0914,4.1952,4.2033,4.2425,4.3403,4.3396,4.3336,4.3596,4.3578,4.3488,4.3488,4.3488,4.3488,4.3488,4.3488,4.3488,4.3488,4.3488,4.3488,4.3488,4.3488,4.3488,4.3488,4.3488,4.3488,4.3488,4.3488,4.3488,4.0195,3.9766,3.9746,3.9199,3.8242,3.75,3.7441,3.7812,3.7363,3.7168,3.7129,3.666,3.6426,3.6426,3.6445,3.6953,3.7851,3.7871,3.8144,3.8594,3.8613,3.834,3.7891,3.8359,3.8086,3.7168,3.7148,3.6894,3.6426,3.5957,3.5703,3.5723,3.5801,3.582,3.5703,3.543,3.5273,3.5293,3.5718,3.5692,3.5184,3.3524,3.2651,3.2695,3.1543,3.0918,3.0918,3.0918,3.0859,3.0815,3.0682,3.0587,3.0547,3.0819,3.0984,0.0,0.0,0.0,0.0,0.0,0.0,0.0,0.0,0.0,0.0,0.0,3.3064,3.3452,3.3914,3.4356,3.4737,3.5542,3.6038,3.6019,3.6792,3.7273,3.7273,3.8046,3.8584,3.8584,3.9039,3.9519,3.9876,4.0664,4.1354,4.168,4.199,4.2314,4.27,4.2796,4.3067,4.3668,4.3631,4.3538,4.3767,4.3612,4.3488,4.3488,4.3488,4.3488,4.3488,4.3488,4.3488,4.3488,4.3488,4.3488,4.3488,4.3488,4.3488,4.3488,4.3488,4.3488,4.3488,4.3488,4.3488,4.1289,4.1191,4.1191,4.125,4.125,3.9726,3.9023,3.8945,3.8926,3.8867,3.875,3.8652,3.8652,3.8769,3.875,3.8828,3.8926,3.8945,3.8945,3.8926,3.8945,3.8887,3.8769,3.8887,3.8809,3.8613,3.8711,3.8711,3.8613,3.8613,3.8613,3.8555,3.7851,3.7851,3.8516,3.709,3.6328,3.6308,3.6308,3.6249,3.6113,3.4452,3.3515,3.334,3.1777,3.0918,3.0918,3.0918,3.0857,3.0742,3.0744,3.0746,3.0699,3.1425,3.1849,0.0,3.2622,0.0,0.0,0.0,0.0,0.0,0.0,0.0,0.0,3.3237,3.3583,3.4452,3.451,3.4872,3.575,3.6465,3.6869,3.6904,3.7642,3.8161,3.82,3.8934,3.9454,3.9454,3.9974,4.0583,4.0992,4.1543,4.2165,4.2548,4.3095,4.3332,4.3099,4.3256,4.346,4.3488,4.3488,4.3505,4.3522,4.3505,4.3488,4.3488,4.3488,4.3488,4.3488,4.3488,4.3488,4.3488,4.3488,4.3488,4.3488,4.3488,4.3488,4.3488,4.3488,4.3488,4.3488,4.3488,4.3488,4.1797,4.1211,4.1191,4.1582,4.2148,4.1816,4.1308,4.0703,4.0723,4.0312,3.9609,3.8906,3.8984,3.9629,3.9648,4.0039,4.0684,4.0703,4.0703,4.0703,4.0703,4.0332,3.9726,4.0371,3.9961,3.8711,3.9316,3.9297,3.8613,3.8613,3.8613,3.8613,3.8437,3.8437,3.8574,0.0,0.0,0.0,3.7946,3.7634,3.695,3.5269,3.407,3.3398,3.1758,0.0,3.0918,3.0918,3.0879,3.0878,3.1367,0.0,0.0,0.0,0.0,0.0,0.0,0.0,0.0,0.0,0.0,0.0,3.5192,3.5003,3.5003,3.5019,3.535,3.6142,3.6234,3.658,3.743,3.7661,3.7757,3.7777,3.853,3.905,3.9065,3.9785,4.0265,4.0281,4.0991,4.1163,4.0649,4.2064,4.3045,4.2529,4.3216,4.381,4.3778,4.3607,4.3496,4.3488,4.3488,4.3488,4.3488,4.3488,4.3488,4.3488,4.3488,4.3488,4.3488,4.3488,4.3488,4.3488,4.3488,4.3488,4.3488,4.3488,4.3488,4.3488,4.3488,4.3488,4.3488,4.3488,4.3488,4.2168,4.1797,4.1797,4.2285,0.0,4.3047,4.2812,4.2402,4.1973,4.1328,4.0527,4.0078,4.0351,4.1113,4.0723,4.0996,4.1777,4.1387,4.1191,4.1211,4.1621,4.1348,4.0566,4.1387,4.1133,3.9922,4.0312,4.0332,3.9902,3.9902,3.9883,3.9863,3.9473,3.9453,3.9883,3.9883,3.9433,3.8507,3.8507,3.8097,3.7257,3.5967,3.4898,3.4043,3.2812,0.0,0.0,0.0,0.0,0.0,0.0,0.0,0.0,3.313,0.0,3.3567,3.4353,3.4834,3.4853,3.525,3.5692,3.6077,3.6481,3.6542,3.6138,3.6484,3.6907,3.7292,3.735,3.7523,3.795,3.8396,3.8623,3.8684,3.9396,3.99,3.9919,4.0262,4.0492,4.0516,4.0893,4.1194,4.1548,4.2392,4.3303,4.3551,4.3968,4.4204,4.4016,4.3718,4.3488,4.3488,4.3488,4.3488,4.3488,4.3488,4.3488,4.3488,4.3488,4.3488,4.3488,4.3488,4.3488,4.3488,4.3488,4.3488,4.3488,4.3488,4.3488,4.3488,4.3488,4.3488,4.3488,4.3488,4.3488,4.2617,4.2617,4.2461,4.2988,4.3926,4.3945,4.3926,4.3848,0.0,0.0,0.0,4.1465,4.1855,4.2558,4.1777,4.1777,4.2363,4.1719,4.1406,4.1465,4.2266,4.2187,4.1465,4.209,4.1973,4.1211,4.1191,4.1191,4.1191,4.1191,4.1191,4.1133,4.0488,4.0547,4.1367,4.1406,4.0703,3.9336,3.9121,3.8652,3.7773,3.6914,3.5957,3.4961,3.4082,3.3574,3.3418,3.3378,3.3324,3.324,3.3341,3.3324,3.3181,3.3946,3.4414,3.4452,3.5234,3.5712,3.5712,3.5865,3.6234,3.6885,3.7738,3.7853,3.7004,3.7584,3.8065,3.82,3.8242,3.8277,3.843,3.9069,3.9515,3.9534,4.0108,4.0496,4.0496,4.0492,4.0492,4.0512,4.0685,4.1131,4.2241,4.2642,4.3088,4.4142,4.4322,4.4364,4.3997,4.367,4.3488,4.3488,4.3488,4.3488,4.3488,4.3488,4.3488,4.3488,4.3488,4.3488,4.3488,4.3488,4.3488,4.3488,4.3488,4.3488,4.3488,4.3488,4.3488,4.3488,4.3488,4.3488,4.3488,4.3488,4.3488,4.3535,4.3457,4.2715,4.334,4.4805,4.4805,4.4824,4.4687,4.3105,4.2754,4.3281,4.2558,4.2715,4.3476,4.2617,4.2285,4.2383,4.2285,4.2226,4.2266,4.3125,4.3047,4.2266,4.2344,4.1973,4.125,4.1191,4.1191,4.1191,4.1191,4.1191,4.1191,4.1074,4.1426,4.2168,4.2226,4.2109,4.1855,4.1191,4.041,3.9551,3.8691,3.7461,3.5879,3.498,3.4141,3.3418,3.3386,3.3287,3.3291,3.3843,3.4129,3.4129,3.4879,3.5327,3.5369,3.6077,3.6538,3.6538,3.7238,3.7696,3.7853,3.8627,3.8742,3.7911,3.7927,3.8315,3.9011,3.9107,3.9419,4.0054,4.0223,4.0281,4.0304,4.0419,4.0492,4.0492,4.0492,4.0492,4.0512,4.1185,4.12,4.0974,4.2295,4.305,4.26,4.347,4.3978,4.3736,4.3531,4.3506,4.3488,4.3488,4.3488,4.3488,4.3488,4.3488,4.3488,4.3488,4.3488,4.3488,4.3488,4.3488,4.3488,4.3488,4.3488,4.3488,4.3488,4.3488,4.3488,4.3488,4.3488,4.3488,4.3488,4.3488,4.4414,4.4355,4.3965,4.4531,4.5703,4.5703,4.5703,4.5586,4.4355,4.375,4.3672,4.3281,4.3594,4.4297,4.3496,4.3359,4.3789,4.332,4.3105,4.3144,4.3496,4.3242,4.2461,4.2383,4.1992,4.123,4.1191,4.1191,4.1191,4.1191,4.1406,4.1855,4.2324,4.25,4.2441,4.2871,4.3084,4.3014,4.1834,4.0741,3.9832,3.9402,3.8572,3.7256,3.6397,3.5756,3.5362,3.4871,3.4603,3.4553,3.4828,3.4983,3.4971,3.5714,3.6135,3.6192,3.6946,3.7407,3.7407,3.8219,3.8703,3.8742,3.9473,3.9785,3.9377,3.9358,3.9531,3.9919,3.9958,4.0092,4.0454,4.0492,4.0492,4.0492,4.0492,4.0492,4.0492,4.0492,4.0492,4.0535,4.0839,4.0984,4.0788,4.174,4.2607,4.2483,4.3462,4.3914,4.3772,4.3614,4.3488,4.3488,4.3488,4.3488,4.3488,4.3488,4.3488,4.3488,4.3488,4.3488,4.3488,4.3488,4.3488,4.3488,4.3488,4.3488,4.3488,4.3488,4.3488,4.3488,4.3488,4.3488,4.3488,4.3488,4.3488,4.5117,4.5293,4.5078,4.5508,4.6289,4.6289,4.6289,4.623,4.5566,4.4922,4.4316,4.4082,4.4473,4.5156,4.4394,4.4375,4.4863,4.4297,4.3984,4.3984,4.3984,4.3535,4.2734,4.2519,4.1973,4.1269,4.1191,4.1191,4.1191,4.1191,4.1601,4.2422,4.3457,4.3652,4.3027,4.3632,4.3915,4.3787,4.2442,4.1208,4.0291,4.0076,3.952,3.8632,3.7949,3.7484,3.7282,3.6608,3.6231,3.6175,3.6157,3.6101,3.6094,3.6657,3.7004,3.7081,3.7815,3.8373,3.8565,3.9188,3.9569,3.9569,4.015,4.0492,4.0492,4.0492,4.0492,4.0492,4.0454,4.0477,4.0492,4.0492,4.0492,4.0492,4.0492,4.0492,4.0492,4.0492,4.0492,4.0492,4.0438,4.0575,4.0936,4.1289,4.2043,4.3219,4.3594,4.3644,4.3802,4.3654,4.3505,4.3488,4.3488,4.3488,4.3488,4.3488,4.3488,4.3488,4.3488,4.3488,4.3488,4.3488,4.3488,4.3488,4.3488,4.3488,4.3488,4.3488,4.3488,4.3488,4.3488,4.3488,4.3488,4.3488,4.3488,4.5449,4.5996,4.5332,4.5508,4.6269,4.6289,4.6289,4.6289,4.6191,4.6152,4.5898,4.5234,4.5351,4.5996,4.5254,4.4941,4.5039,4.4922,4.4883,4.4824,4.4883,4.4414,4.3457,4.2754,4.1973,4.1269,4.1191,4.1191,4.1191,4.123,4.1601,4.2519,4.4062,4.4805,4.4726,4.469,4.4686,4.4661,4.37,4.2776,4.1897,4.112,4.0318,3.9505,3.9404,3.8976,3.8198,3.7984,3.786,3.7857,3.7771,3.774,3.7738,3.7834,3.7892,3.7911,3.8684,3.9492,4.0169,4.0339,4.0362,4.04,4.0416,4.0492,4.0492,4.0492,4.0492,4.0492,4.0492,4.0492,4.0492,4.0492,4.0492,4.0492,4.0492,4.0492,4.0492,4.0492,4.0492,4.0492,4.0326,4.0163,4.0477,4.1344,4.2473,4.342,4.3205,4.2937,4.3237,4.3399,4.3304,4.3378,4.3451,4.3451,4.3469,4.3488,4.3488,4.3488,4.3488,4.3488,4.3488,4.3488,4.3488,4.3488,4.3488,4.3488,4.3488,4.3488,4.3488,4.3488,4.3488,4.3488,4.3488,4.3488,4.3488,4.5976,4.6269,4.5918,4.5957,4.6269,4.6289,4.6289,4.6289,4.6289,4.6289,4.6269,4.5918,4.5957,4.6269,4.5918,4.5781,4.5781,4.5781,4.5488,4.498,4.4473,4.375,4.291,4.207,4.1504,4.123,4.1191,4.1191,4.1269,4.1634,4.2016,4.2481,4.4003,4.4824,4.4819,4.4773,4.4964,4.5318,4.4002,4.3094,4.2647,4.1923,4.1075,4.02,3.9685,3.9279,3.888,3.8357,3.8038,3.8035,3.8028,3.8004,3.8004,3.8492,3.8761,3.8819,3.955,4.015,4.0473,4.0492,4.0492,4.0492,4.0492,4.0492,4.0492,4.0492,4.0492,4.0492,4.0492,4.0492,4.0492,4.0492,4.0492,4.0492,4.0492,4.0492,4.0492,4.0492,4.0492,4.0508,4.0397,4.0465,4.0906,4.1969,4.2635,4.2851,4.28,4.3026,4.239,4.2488,4.2543,4.2213,4.2084,4.2543,4.3185,4.3488,4.3469,4.3469,4.3488,4.3488,4.3451,4.3488,4.3488,4.3488,4.3488,4.3488,4.3488,4.3488,4.3488,4.3488,4.3488,4.3488,4.3488,4.3488,4.3488,4.6289,4.6289,4.6289,4.6289,4.6289,4.6289,4.6289,4.6289,4.6289,4.6289,4.6289,4.6289,4.6289,4.6289,4.6289,4.6289,4.6289,4.6289,4.5957,4.5254,4.4238,4.3379,4.2695,4.168,4.1308,4.1504,4.1543,4.166,4.1933,4.2618,4.2985,4.3188,4.4354,4.5025,4.5017,4.5021,4.5259,4.5635,4.4463,4.3723,4.34,4.2686,4.1731,4.0589,3.9935,3.9627,3.9611,3.9008,3.87,3.87,3.87,3.8703,3.8703,3.9284,3.9627,3.9669,4.0169,4.0492,4.0492,4.0492,4.0492,4.0492,4.0492,4.0492,4.0492,4.0492,4.0492,4.0492,4.0492,4.0492,4.0512,4.0723,4.0762,4.055,4.0669,4.0781,4.0554,4.0492,4.0492,4.0492,4.0397,4.0532,4.1008,4.1586,4.1801,4.2028,4.258,4.2989,4.1818,4.1966,4.2047,4.1268,4.1305,4.1827,4.269,4.2708,4.2845,4.2937,4.2855,4.3102,4.3231,4.3286,4.3488,4.3488,4.3488,4.3488,4.3488,4.3488,4.3488,4.3488,4.3488,4.3488,4.3488,4.3488,4.3488,4.6289,4.6289,4.6289,4.6289,4.6289,4.6289,4.6289,4.6289,4.6289,4.6289,4.6289,4.6289,4.6289,4.6289,4.6289,4.6289,4.6289,4.6289,4.623,4.5918,4.4453,4.3672,4.3535,4.2012,4.1621,4.2305,4.2363,4.2715,4.3476,4.4217,4.4683,4.4693,4.5311,4.5773,4.575,4.5622,4.5732,4.5692,4.5414,4.4972,4.4186,4.341,4.2186,4.0689,4.0439,4.0381,4.0396,4.0381,4.0339,4.0358,4.0265,4.0304,4.0339,4.0377,4.04,4.0416,4.0454,4.0492,4.0492,4.0492,4.0492,4.0492,4.0492,4.0492,4.0492,4.0492,4.0492,4.0492,4.0492,4.0492,4.0573,4.105,4.12,4.065,4.12,4.12,4.0569,4.0492,4.0492,4.0542,4.0553,4.0634,4.0519,3.9691,4.0649,4.1514,4.1681,4.1399,4.1769,4.2029,4.1819,4.1415,4.1525,4.2002,4.1444,4.1947,4.1772,4.1819,4.247,4.2496,4.2662,4.2873,4.3249,4.3488,4.3488,4.3488,4.3488,4.3488,4.3488,4.3488,4.3488,4.3488,4.3488,4.3488,4.3488,4.6289,4.6289,4.6289,4.6289,4.6289,4.6289,4.6289,4.6289,4.6289,4.6289,4.6289,4.6289,4.6289,4.6289,4.6289,4.6289,4.6289,4.6289,4.6016,4.5391,4.4238,4.3711,4.3574,4.248,4.2422,4.3125,4.3242,4.3357,4.3592,4.3831,4.4147,4.4542,4.4783,4.5125,4.5516,4.5113,4.5094,4.5549,4.5105,4.4355,4.3662,4.3239,4.2277,4.0627,4.0492,4.0492,4.0492,4.0492,4.0492,4.0492,4.0492,4.0492,4.0492,4.0492,4.0492,4.0492,4.0492,4.0492,4.0492,4.0492,4.0492,4.0492,4.0492,4.0492,4.0492,4.0492,4.0492,4.0492,4.0492,4.0492,4.0535,4.08,4.0858,4.0627,4.0785,4.0916,4.0589,4.0512,4.0685,4.1283,4.1915,4.2308,4.173,4.1744,4.1594,4.1177,4.1267,4.1057,4.0404,4.0828,4.1342,4.07,4.0975,4.1434,4.1224,4.2139,4.2598,4.2341,4.2451,4.2561,4.2708,4.3065,4.3433,4.3488,4.3488,4.3488,4.3488,4.3488,4.3488,4.3488,4.3488,4.3488,4.3488,4.3488,4.3488,4.6289,4.6289,4.6289,4.6289,4.6289,4.6289,4.6289,4.6289,4.6289,4.6289,4.6289,4.6289,4.6289,4.6289,4.6289,4.6289,4.6289,4.6289,4.5996,4.5371,4.4512,4.4121,4.3984,4.3223,4.3262,4.4043,4.4392,4.4462,4.4445,4.4277,4.4475,4.5008,4.4865,4.5082,4.5506,4.5079,4.5101,4.5444,4.5032,4.4455,4.3936,4.3605,4.2816,4.1531,4.107,4.0781,4.0531,4.0492,4.0492,4.0492,4.0492,4.0492,4.0492,4.0492,4.0492,4.0492,4.0492,4.0492,4.0492,4.0492,4.0492,4.0492,4.0492,4.0492,4.0492,4.0492,4.0492,4.0492,4.0492,4.0492,4.0492,4.0512,4.0492,4.055,4.0743,4.0916,4.0912,4.0935,4.1275,4.1915,4.2656,4.2873,4.2481,4.2542,4.211,4.1089,4.1512,4.1143,4.0383,4.0663,4.1195,4.0543,4.1085,4.1544,4.1727,4.2543,4.2488,4.2213,4.247,4.2616,4.2763,4.3157,4.3451,4.3469,4.3488,4.3488,4.3488,4.3488,4.3488,4.3488,4.3488,4.3488,4.3488,4.3488,4.3488,4.6289,4.6289,4.6289,4.6289,4.6289,4.6289,4.6289,4.6289,4.6289,4.6289,4.6289,4.6289,4.6289,4.6289,4.6289,4.6289,4.6289,4.6289,4.6269,4.6074,4.5293,4.4961,4.4941,4.4121,4.416,4.5019,4.5705,4.6077,4.6012,4.572,4.5728,4.5954,4.5742,4.568,4.59,4.5696,4.5708,4.5705,4.5544,4.5441,4.546,4.4609,4.3778,4.2931,4.2139,4.1354,4.0608,4.0531,4.0492,4.0492,4.0492,4.0492,4.0492,4.0492,4.0492,4.0492,4.0492,4.0492,4.0492,4.0492,4.0492,4.0492,4.0492,4.0535,4.0666,4.0646,4.0685,4.0819,4.0781,4.0689,4.0746,4.0766,4.0666,4.0589,4.1143,4.1619,4.1696,4.1831,4.2002,4.2508,4.2862,4.2331,4.1882,4.1915,4.1932,4.1973,4.1983,4.1975,4.1623,4.1827,4.1819,4.1489,4.1754,4.2268,4.2598,4.2845,4.2249,4.1837,4.2296,4.2598,4.2653,4.2928,4.3378,4.3488,4.3488,4.3488,4.3488,4.3488,4.3488,4.3488,4.3488,4.3488,4.3488,4.3488,4.3488,4.6289,4.6289,4.6289,4.6289,4.6289,4.6289,4.6289,4.6289,4.6289,4.6289,4.6289,4.6289,4.6289,4.6289,4.6289,4.6289,4.6289,4.6289,4.6289,4.6152,4.541,4.5351,4.5644,4.5,4.5039,4.5801,4.6111,4.6221,4.6167,4.6033,4.6008,4.5946,4.585,4.5812,4.5819,4.5725,4.5657,4.5668,4.561,4.5321,4.4782,4.4451,4.3912,4.3124,4.2254,4.1639,4.1389,4.0819,4.0512,4.0512,4.0492,4.0492,4.0512,4.0492,4.0492,4.0492,4.0492,4.0492,4.0492,4.0512,4.0535,4.0512,4.0512,4.0839,4.1296,4.1393,4.1643,4.2124,4.2281,4.2297,4.2297,4.2297,4.1781,4.0631,4.1277,4.1869,4.2081,4.2831,4.3479,4.375,4.4047,4.3825,4.3013,4.2602,4.2198,4.1715,4.1635,4.1617,4.1617,4.2139,4.2249,4.2021,4.2616,4.301,4.3121,4.3194,4.2873,4.2506,4.2708,4.2782,4.2782,4.2892,4.3304,4.3488,4.3488,4.3488,4.3488,4.3488,4.3488,4.3488,4.3488,4.3488,4.3488,4.3488,4.3488,4.6289,4.6289,4.6289,4.6289,4.6289,4.6289,4.6289,4.6289,4.6289,4.6289,4.6289,4.6289,4.6289,4.6289,4.6289,4.6289,4.6289,4.6289,4.6289,4.625,4.5781,4.582,4.6211,4.5781,4.5723,4.6191,4.6247,4.6222,4.6173,4.6051,4.5986,4.5955,4.5872,4.5821,4.5826,4.5747,4.5677,4.5669,4.5622,4.5321,4.4898,4.4782,4.4378,4.3605,4.3008,4.2427,4.1889,4.1546,4.117,4.0646,4.0492,4.0631,4.0935,4.1012,4.1108,4.1416,4.1458,4.1377,4.105,4.1031,4.0819,4.0627,4.08,4.12,4.1754,4.2004,4.2585,4.2989,4.3047,4.3085,4.3066,4.3085,4.2551,4.1627,4.197,4.2412,4.2793,4.3912,4.4586,4.4653,4.472,4.4415,4.3775,4.3252,4.2813,4.2116,4.1992,4.1974,4.2084,4.247,4.2616,4.2782,4.3057,4.3322,4.3433,4.3469,4.3469,4.3359,4.3322,4.3194,4.3084,4.3212,4.3488,4.3488,4.3488,4.3488,4.3488,4.3488,4.3488,4.3488,4.3488,4.3488,4.3488,4.3488,4.3488,4.6289,4.6289,4.6289,4.6289,4.6289,4.6289,4.6289,4.6289,4.6289,4.6289,4.6289,4.6289,4.6289,4.6289,4.6289,4.6289,4.6289,4.6289,4.6289,4.6289,4.6191,4.625,4.625,4.6172,4.6191,4.6269,4.6178,4.6176,4.6224,4.6004,4.5925,4.6024,4.5885,4.5829,4.5845,4.5798,4.5765,4.5745,4.566,4.5556,4.5513,4.5532,4.5205,4.4397,4.4162,4.3489,4.2485,4.2585,4.2224,4.0935,4.0858,4.1223,4.1716,4.1869,4.2216,4.2816,4.3028,4.2585,4.2043,4.1869,4.1623,4.107,4.1508,4.1904,4.2196,4.2797,4.3278,4.3489,4.3493,4.3393,4.3412,4.3431,4.3355,4.3278,4.3201,4.347,4.4282,4.5051,4.5231,4.5046,4.4806,4.4449,4.4027,4.3669,4.3483,4.3321,4.3249,4.3176,4.3194,4.3212,4.3396,4.3469,4.3433,4.3451,4.3488,4.3488,4.3488,4.3488,4.3488,4.3414,4.3304,4.3414,4.3488,4.3488,4.3488,4.3488,4.3488,4.3488,4.3488,4.3488,4.3488,4.3488,4.3488,4.3488,4.347,4.6289,4.6289,4.6289,4.6289,4.6289,4.6289,4.6289,4.6289,4.6289,4.6289,4.6289,4.6289,4.6289,4.6289,4.6289,4.6289,4.6289,4.6289,4.6289,4.6289,4.6289,4.6289,4.6289,4.6289,4.6289,4.6289,4.6227,4.6203,4.6148,4.6045,4.599,4.5954,4.5861,4.5809,4.5799,4.5714,4.5653,4.564,4.5618,4.5594,4.5594,4.5594,4.5494,4.5263,4.4648,4.4147,4.3585,4.3258,4.297,4.2512,4.2416,4.2489,4.2701,4.2754,4.2912,4.3162,4.3162,4.3066,4.2854,4.2754,4.2624,4.2489,4.2566,4.3028,4.3605,4.3835,4.4301,4.4724,4.4936,4.4878,4.4898,4.4859,4.4878,4.4859,4.4335,4.4297,4.5013,4.5413,4.5457,4.5164,4.4988,4.46,4.4161,4.3889,4.3734,4.3546,4.3488,4.3488,4.3488,4.3488,4.3488,4.3488,4.3469,4.3488,4.3488,4.3488,4.3488,4.3488,4.3488,4.3488,4.3433,4.3469,4.3488,4.3488,4.3488,4.3488,4.3488,4.3488,4.3488,4.3488,4.3488,4.3488,4.3488,4.3488,4.3453,4.6289,4.6289,4.6289,4.6289,4.6289,4.6289,4.6289,4.6289,4.6289,4.6289,4.6289,4.6289,4.6289,4.6289,4.6289,4.6289,4.6289,4.6289,4.6289,4.6289,4.6289,4.6289,4.6289,4.6289,4.6288,4.6223,4.6203,4.6123,4.603,4.599,4.5929,4.5867,4.5757,4.5707,4.5696,4.5636,4.5594,4.5594,4.5594,4.5594,4.5594,4.5594,4.5594,4.5537,4.5075,4.484,4.4724,4.4051,4.347,4.3181,4.3085,4.3239,4.3585,4.3605,4.3763,4.407,4.4147,4.4028,4.3682,4.3605,4.3431,4.3258,4.3355,4.3797,4.4239,4.4586,4.5148,4.5436,4.5594,4.5594,4.5594,4.5594,4.5594,4.5455,4.5148,4.5071,4.5571,4.5433,4.5322,4.5102,4.4799,4.4521,4.4013,4.3904,4.3718,4.3555,4.3488,4.3488,4.3488,4.3488,4.3488,4.3488,4.3488,4.3488,4.3488,4.3488,4.3488,4.3488,4.3488,4.3488,4.3488,4.3488,4.3488,4.3488,4.3488,4.3488,4.3488,4.3488,4.3488,4.3488,4.3488,4.3488,4.3488,4.3488,4.3453,4.6289,4.6289,4.6289,4.6289,4.6289,4.6289,4.6289,4.6289,4.6289,4.6289,4.6289,4.6289,4.6289,4.6289,4.6289,4.6289,4.6289,4.6289,4.6289,4.6289,4.6289,4.6289,4.625,4.6289,4.6225,4.6144,4.6109,4.6024,4.5938,4.5844,4.5806,4.5752,4.5653,4.5616,4.561,4.5599,4.5594,4.5594,4.5594,4.5594,4.5594,4.5594,4.5594,4.5575,4.5537,4.546,4.5302,4.4801,4.4167,4.3431,4.3355,4.3835,4.4378,4.4436,4.4744,4.5244,4.5306,4.5051,4.4609,4.4436,4.4182,4.3778,4.4147,4.4417,4.4648,4.5128,4.5498,4.5575,4.5594,4.5594,4.5594,4.5594,4.5594,4.5575,4.5552,4.5575,4.5531,4.5307,4.5074,4.4966,4.4361,4.4073,4.3881,4.3718,4.3488,4.3539,4.3488,4.3488,4.3488,4.3488,4.3488,4.3488,4.3488,4.3488,4.3488,4.3488,4.3488,4.3488,4.3488,4.3488,4.3488,4.3488,4.3488,4.3488,4.3488,4.3488,4.3488,4.3488,4.3488,4.3488,4.3488,4.3488,4.3488,4.3488,4.347,4.6289,4.6289,4.6289,4.6289,4.6289,4.6289,4.6289,4.6289,4.6289,4.6289,4.6289,4.6289,4.6289,4.6289,4.6289,4.6289,4.6289,4.6289,4.6289,4.6289,4.6289,4.623,4.6178,4.6225,4.6202,4.6133,4.6105,4.6013,4.5864,4.5803,4.5743,4.566,4.5627,4.5594,4.5594,4.5594,4.5594,4.5594,4.5594,4.5594,4.5594,4.5594,4.5594,4.5594,4.5594,4.5594,4.5594,4.5441,4.5244,4.5109,4.5013,4.4994,4.5167,4.5244,4.5364,4.5498,4.5594,4.5498,4.534,4.5225,4.5244,4.4994,4.5032,4.5321,4.5321,4.5436,4.5594,4.5594,4.5594,4.5594,4.5594,4.5594,4.5594,4.5594,4.5594,4.5586,4.5531,4.5307,4.49,4.4416,4.4154,4.3912,4.3662,4.3605,4.3488,4.3488,4.3488,4.3488,4.3488,4.3488,4.3488,4.3488,4.3488,4.3488,4.3488,4.3488,4.3488,4.3488,4.3488,4.3488,4.3488,4.3488,4.3488,4.3488,4.3488,4.3488,4.3488,4.3488,4.3488,4.3488,4.3488,4.3488,4.3488,4.3488,4.3356,4.6289,4.6289,4.6289,4.6289,4.6289,4.6289,4.6289,4.6289,4.6289,4.6289,4.6289,4.6289,4.6289,4.6289,4.6289,4.6289,4.6289,4.6289,4.6269,4.623,4.6211,4.6133,4.6038,4.6049,4.6042,4.5967,4.5966,4.5867,4.5761,4.5708,4.5665,4.5607,4.5594,4.5594,4.5594,4.5594,4.5594,4.5594,4.5594,4.5594,4.5594,4.5594,4.5594,4.5594,4.5594,4.5594,4.5594,4.5594,4.5594,4.5594,4.5594,4.5594,4.5594,4.5594,4.5594,4.5594,4.5594,4.5594,4.5594,4.5594,4.5556,4.5594,4.5594,4.5594,4.5594,4.5594,4.5594,4.5594,4.5594,4.5594,4.5594,4.5594,4.5594,4.5594,4.5594,4.555,4.539,4.5201,4.49,4.4394,4.4165,4.3876,4.3646,4.3522,4.3488,4.3488,4.3488,4.3488,4.3488,4.3488,4.3488,4.3488,4.3488,4.3488,4.3488,4.3488,4.3488,4.3488,4.3488,4.3488,4.3488,4.3488,4.3488,4.3488,4.3488,4.3488,4.3488,4.3488,4.3488,4.3488,4.3488,4.3488,4.3488,4.3488,4.3286,4.6289,4.6289,4.6289,4.6289,4.6289,4.6289,4.6289,4.6289,4.6289,4.6289,4.6289,4.6289,4.6289,4.6289,4.6289,4.6289,4.6269,4.625,4.6198,4.6081,4.6076,4.6009,4.5923,4.5893,4.5863,4.578,4.5825,4.574,4.5656,4.5594,4.562,4.5594,4.5594,4.5594,4.5594,4.5594,4.5594,4.5594,4.5594,4.5594,4.5594,4.5594,4.5594,4.5594,4.5594,4.5594,4.5594,4.5594,4.5594,4.5594,4.5594,4.5594,4.5594,4.5594,4.5594,4.5594,4.5594,4.5594,4.5594,4.5594,4.5594,4.5594,4.5594,4.5594,4.5594,4.5594,4.5594,4.5594,4.5594,4.5594,4.5594,4.5594,4.5594,4.5594,4.5594,4.5438,4.5201,4.5091,4.4883,4.4468,4.4046,4.371,4.3597,4.3488,4.3488,4.3488,4.3488,4.3488,4.3488,4.3488,4.3488,4.3488,4.3488,4.3488,4.3488,4.3488,4.3488,4.3488,4.3488,4.3488,4.3488,4.3488,4.3488,4.3488,4.3488,4.3488,4.3488,4.3488,4.3488,4.3488,4.3488,4.3488,4.3488,4.3488,4.3268,4.6289,4.6289,4.6289,4.6289,4.6289,4.6289,4.6289,4.6289,4.6289,4.6289,4.6289,4.6289,4.6289,4.6289,4.6289,4.625,4.6174,4.6143,4.6071,4.5961,4.5944,4.5884,4.581,4.5799,4.5729,4.5696,4.573,4.5715,4.5637,4.5594,4.5594,4.5594,4.5594,4.5594,4.5594,4.5594,4.5594,4.5594,4.5594,4.5594,4.5594,4.5594,4.5594,4.5594,4.5594,4.5594,4.5594,4.5594,4.5594,4.5594,4.5594,4.5594,4.5594,4.5594,4.5594,4.5594,4.5594,4.5594,4.5594,4.5594,4.5594,4.5594,4.5594,4.5594,4.5594,4.5594,4.5594,4.5594,4.5594,4.5594,4.5594,4.5594,4.5594,4.5594,4.5555,4.5438,4.5191,4.4983,4.4762,4.4269,4.3865,4.3587,4.3521,4.3488,4.3488,4.3488,4.3488,4.3488,4.3488,4.3488,4.3488,4.3488,4.3488,4.3488,4.3488,4.3488,4.3488,4.3488,4.3488,4.3488,4.3488,4.3488,4.3488,4.3488,4.3488,4.3488,4.3488,4.3488,4.3488,4.3488,4.3488,4.3488,4.3488,4.3488,4.3488,4.6289,4.6289,4.6289,4.6289,4.6289,4.6289,4.6289,4.6289,4.6289,4.6289,4.6289,4.6289,4.6289,4.6289,4.6289,4.6211,4.6114,4.6027,4.5942,4.5863,4.5847,4.5793,4.5715,4.57,4.5661,4.5627,4.568,4.5677,4.5603,4.5594,4.5594,4.5594,4.5594,4.5594,4.5594,4.5594,4.5594,4.5594,4.5594,4.5594,4.5594,4.5594,4.5594,4.5594,4.5594,4.5594,4.5594,4.5594,4.5594,4.5594,4.5594,4.5594,4.5594,4.5594,4.5594,4.5594,4.5594,4.5594,4.5594,4.5594,4.5594,4.5594,4.5594,4.5594,4.5594,4.5594,4.5594,4.5594,4.5594,4.5594,4.5594,4.559,4.5594,4.5568,4.5467,4.5282,4.5055,4.4769,4.4401,4.4035,4.392,4.3718,4.3522,4.3488,4.3488,4.3488,4.3488,4.3488,4.3488,4.3488,4.3488,4.3488,4.3488,4.3488,4.3488,4.3488,4.3488,4.3488,4.3488,4.3488,4.3488,4.3488,4.3488,4.3488,4.3488,4.3488,4.3488,4.3488,4.3488,4.3488,4.3488,4.3488,4.3488,4.3488,4.3488,4.6289,4.6289,4.6289,4.6289,4.6289,4.6289,4.6289,4.6289,4.6289,4.6289,4.6289,4.6289,4.6289,4.6289,4.625,4.6173,4.603,4.5916,4.5847,4.5757,4.5745,4.5688,4.5627,4.5594,4.5599,4.5607,4.5607,4.5594,4.5594,4.5594,4.5594,4.5594,4.5594,4.5594,4.5594,4.5594,4.5594,4.5594,4.5594,4.5594,4.5594,4.5594,4.5594,4.5594,4.5594,4.5594,4.5594,4.5594,4.5594,4.5594,4.5594,4.5594,4.5594,4.5594,4.5594,4.5594,4.5594,4.5594,4.5594,4.5594,4.5594,4.5594,4.5594,4.5594,4.5594,4.5594,4.5594,4.5594,4.5594,4.5594,4.5586,4.5541,4.5495,4.5415,4.5196,4.4931,4.4701,4.4441,4.4124,4.3924,4.3943,4.3788,4.3529,4.3488,4.3488,4.3488,4.3488,4.3488,4.3488,4.3488,4.3488,4.3488,4.3488,4.3488,4.3488,4.3488,4.3488,4.3488,4.3488,4.3488,4.3488,4.3488,4.3488,4.3488,4.3488,4.3488,4.3488,4.3488,4.3488,4.3488,4.3488,4.3488,4.3488,4.3488,4.3488,4.6289,4.6289,4.6289,4.6289,4.6289,4.6289,4.6289,4.6289,4.6289,4.6289,4.6289,4.6289,4.6289,4.625,4.6147,4.602,4.588,4.5802,4.5745,4.5657,4.5628,4.5631,4.5599,4.5594,4.5594,4.5594,4.5594,4.5594,4.5594,4.5594,4.5594,4.5594,4.5594,4.5594,4.5594,4.5594,4.5594,4.5594,4.5594,4.5594,4.5594,4.5594,4.5594,4.5594,4.5594,4.5594,4.5594,4.5594,4.5594,4.5594,4.5594,4.5594,4.5594,4.5594,4.5594,4.5594,4.5594,4.5594,4.5594,4.5594,4.5594,4.5594,4.5594,4.5594,4.5594,4.5594,4.5594,4.5594,4.5594,4.5568,4.5499,4.5332,4.5211,4.5058,4.4847,4.4515,4.4247,4.4165,4.3833,4.3734,4.3701,4.3646,4.3488,4.3488,4.3488,4.3488,4.3488,4.3488,4.3488,4.3488,4.3488,4.3488,4.3488,4.3488,4.3488,4.3488,4.3488,4.3488,4.3488,4.3488,4.3488,4.3488,4.3488,4.3488,4.3488,4.3488,4.3488,4.3488,4.3488,4.3488,4.3488,4.3488,4.3488,4.3488,4.3488,4.6289,4.6289,4.6289,4.6289,4.6289,4.6289,4.6289,4.6289,4.6289,4.6289,4.6289,4.6222,4.6147,4.6073,4.5967,4.5897,4.5796,4.5714,4.5657,4.5616,4.5594,4.5594,4.5594,4.5594,4.5594,4.5594,4.5594,4.5594,4.5594,4.5594,4.5594,4.5629,4.5614,4.5594,4.5686,4.5614,4.5594,4.5594,4.5594,4.5594,4.5594,4.5594,4.5594,4.5594,4.5594,4.5594,4.5594,4.5594,4.5594,4.5594,4.5594,4.5594,4.5594,4.5594,4.5594,4.5594,4.5594,4.5594,4.5594,4.5594,4.5594,4.5594,4.5594,4.5594,4.5594,4.5594,4.5594,4.5594,4.5594,4.5517,4.5381,4.5196,4.5,4.4793,4.4482,4.4276,4.3986,4.3788,4.3637,4.3546,4.3488,4.3488,4.3488,4.3488,4.3488,4.3488,4.3488,4.3488,4.3488,4.3488,4.3488,4.3488,4.3488,4.3488,4.3488,4.3488,4.3488,4.3488,4.3488,4.3488,4.3488,4.3488,4.3488,4.3488,4.3488,4.3488,4.3488,4.3488,4.3488,4.3488,4.3488,4.3488,4.3488,4.3488,4.3365,4.6289,4.6289,4.6289,4.6289,4.6289,4.6289,4.6289,4.6289,4.625,4.625,4.6203,4.6113,4.598,4.5901,4.5835,4.5796,4.5759,4.5647,4.5607,4.5594,4.5594,4.5594,4.5594,4.5594,4.5594,4.5594,4.5594,4.5594,4.5594,4.5633,4.571,4.5898,4.6052,4.5994,4.5956,4.5975,4.5956,4.5594,4.5594,4.5594,4.5594,4.5594,4.5594,4.5594,4.5594,4.5594,4.5594,4.5594,4.5594,4.5594,4.5594,4.5594,4.5594,4.5594,4.5594,4.5594,4.5594,4.5594,4.5594,4.5594,4.5594,4.5594,4.5594,4.5594,4.5594,4.5594,4.5594,4.5594,4.5452,4.5327,4.5134,4.4966,4.4651,4.438,4.4113,4.3971,4.3849,4.3677,4.3572,4.3531,4.3488,4.3488,4.3488,4.3488,4.3488,4.3488,4.3488,4.3488,4.3488,4.3488,4.3488,4.3488,4.3488,4.3488,4.3488,4.3488,4.3488,4.3488,4.3488,4.3488,4.3488,4.3488,4.3488,4.3488,4.3488,4.3488,4.3488,4.3488,4.3488,4.3488,4.3488,4.3488,4.3488,4.3479,4.3383,4.6289,4.6289,4.6289,4.6289,4.6289,4.6289,4.6289,4.6269,4.6173,4.6116,4.6078,4.5976,4.5881,4.5821,4.576,4.5711,4.561,4.5603,4.5594,4.5594,4.5594,4.5594,4.5594,4.5594,4.5594,4.5594,4.5594,4.5594,4.5594,4.5594,4.6071,4.6678,4.6413,4.6663,4.6605,4.6336,4.609,4.5725,4.5594,4.5594,4.5594,4.5594,4.5594,4.5594,4.5594,4.5594,4.5594,4.5594,4.5594,4.5594,4.5594,4.5594,4.5594,4.5594,4.5594,4.5594,4.5594,4.5594,4.5594,4.5594,4.5594,4.5594,4.5594,4.5594,4.5594,4.5601,4.5605,4.5508,4.5278,4.5102,4.4847,4.4548,4.425,4.4024,4.3844,4.3734,4.3654,4.3604,4.3513,4.3496,4.3488,4.3488,4.3488,4.3488,4.3488,4.3488,4.3488,4.3488,4.3488,4.3488,4.3488,4.3488,4.3488,4.3488,4.3488,4.3488,4.3488,4.3488,4.3488,4.3488,4.3488,4.3488,4.3488,4.3488,4.3488,4.3488,4.3488,4.3488,4.3488,4.3488,4.3488,4.3488,4.3418,4.3347,4.3347,4.6289,4.6289,4.6289,4.6289,4.6289,4.6289,4.6289,4.6269,4.6169,4.6032,4.5896,4.5856,4.5783,4.5711,4.568,4.5644,4.5594,4.5594,4.5594,4.5594,4.5594,4.5594,4.5594,4.5594,4.5594,4.5594,4.5594,4.5594,4.5594,4.5594,4.6144,4.6528,4.6432,4.6129,4.609,4.622,4.5917,4.5763,4.5594,4.5594,4.5594,4.5594,4.5594,4.5594,4.5594,4.5594,4.5594,4.5594,4.5594,4.5594,4.5594,4.5594,4.5594,4.5594,4.5594,4.5594,4.5594,4.5594,4.5594,4.5594,4.5594,4.5594,4.5594,4.5594,4.5581,4.5457,4.5322,4.5196,4.5022,4.4855,4.4375,4.4175,4.3978,4.3732,4.3595,4.3522,4.3488,4.3488,4.3488,4.3488,4.3488,4.3488,4.3488,4.3488,4.3488,4.3488,4.3488,4.3488,4.3488,4.3488,4.3488,4.3488,4.3488,4.3488,4.3488,4.3488,4.3488,4.3488,4.3488,4.3488,4.3488,4.3488,4.3488,4.3488,4.3488,4.3488,4.3488,4.3488,4.3488,4.3488,4.3488,4.3488,4.3392,4.3277,4.3205,4.6289,4.6289,4.6289,4.6289,4.6289,4.6267,4.6226,4.6221,4.6082,4.5903,4.574,4.5729,4.5708,4.5625,4.5599,4.5603,4.5594,4.5594,4.5594,4.5594,4.5594,4.5594,4.5594,4.5594,4.5594,4.5594,4.5594,4.5594,4.5594,4.5594,4.6129,4.6394,4.6109,4.5859,4.6033,4.5706,4.5614,4.5594,4.5594,4.5594,4.5594,4.5594,4.5594,4.5594,4.5594,4.5594,4.5594,4.5594,4.5594,4.5594,4.5594,4.5594,4.5594,4.5594,4.5594,4.5594,4.5594,4.5594,4.5594,4.5594,4.5594,4.5594,4.5594,4.5594,4.5527,4.539,4.5376,4.5292,4.4996,4.4586,4.4164,4.4095,4.3873,4.3662,4.3563,4.3488,4.3488,4.3488,4.3488,4.3488,4.3506,4.3506,4.3506,4.3524,4.3524,4.3506,4.3488,4.3488,4.3488,4.3488,4.3488,4.3488,4.3488,4.3488,4.3488,4.3488,4.3488,4.3488,4.3488,4.3488,4.3488,4.3488,4.3488,4.3488,4.3488,4.3488,4.3488,4.3488,4.3488,4.3488,4.3488,4.3488,4.348,4.3348,4.3041,4.6289,4.6289,4.6289,4.6289,4.6269,4.617,4.6094,4.6077,4.5913,4.5765,4.5635,4.5629,4.5625,4.5594,4.5594,4.5594,4.5594,4.5594,4.5594,4.5594,4.5802,4.5686,4.5652,4.5667,4.5763,4.5633,4.5614,4.5609,4.5725,4.5821,4.6278,4.6644,4.6471,4.6186,4.6735,4.6052,4.5667,4.5633,4.5691,4.5725,4.5594,4.5594,4.5594,4.5594,4.5594,4.5594,4.5594,4.5594,4.5594,4.5594,4.5594,4.5594,4.5594,4.5594,4.5594,4.5594,4.5594,4.5594,4.5594,4.5594,4.5594,4.5594,4.5594,4.5594,4.559,4.555,4.5448,4.5317,4.5061,4.48,4.4521,4.4201,4.3812,4.3622,4.3531,4.3488,4.3488,4.3506,4.3506,4.3791,4.369,4.3543,4.3543,4.3534,4.3534,4.3543,4.3506,4.3488,4.3488,4.3488,4.3488,4.3488,4.3488,4.3488,4.3488,4.3488,4.3488,4.3488,4.3488,4.3488,4.3488,4.3488,4.3488,4.3488,4.3488,4.3488,4.3488,4.3488,4.3488,4.3488,4.3488,4.3479,4.3489,4.3348,4.3004,4.6289,4.6289,4.6201,4.6172,4.6171,4.6118,4.6046,4.5977,4.5856,4.5734,4.561,4.5594,4.5594,4.5594,4.5594,4.5594,4.5594,4.5594,4.5594,4.5652,4.6109,4.5975,4.5917,4.6033,4.6105,4.5725,4.5629,4.5932,4.6485,4.6355,4.6894,4.7331,4.7394,4.7144,4.7101,4.6894,4.7086,4.6586,4.6432,4.6244,4.5691,4.5594,4.5594,4.5594,4.5594,4.5594,4.5594,4.5594,4.5594,4.5594,4.5594,4.5594,4.5594,4.5594,4.5594,4.5594,4.5594,4.5594,4.5594,4.5594,4.5594,4.5594,4.5594,4.5594,4.559,4.5362,4.5307,4.5171,4.484,4.4528,4.4146,4.3868,4.358,4.3538,4.3488,4.3488,4.3488,4.3506,4.3598,4.4158,4.4305,4.4305,4.4287,4.4213,4.414,4.3791,4.3726,4.3561,4.3506,4.3488,4.3488,4.3488,4.3488,4.3488,4.3488,4.3488,4.3488,4.3488,4.3488,4.3488,4.3488,4.3488,4.3488,4.3488,4.3488,4.3488,4.3488,4.3488,4.3488,4.3488,4.3488,4.3488,4.3479,4.3241,4.2845,4.6225,4.6222,4.6083,4.6016,4.5992,4.5988,4.5907,4.5796,4.5756,4.568,4.5616,4.5594,4.5594,4.5594,4.5594,4.5594,4.5594,4.5594,4.5594,4.5725,4.649,4.622,4.6086,4.6355,4.622,4.5821,4.5652,4.5917,4.6297,4.6735,4.7293,4.7966,4.8682,4.8529,4.8202,4.799,4.7582,4.7024,4.6735,4.6413,4.5859,4.5594,4.5594,4.5594,4.5594,4.5594,4.5594,4.5594,4.5594,4.5594,4.5594,4.5594,4.5594,4.5594,4.5594,4.5594,4.5594,4.5594,4.5594,4.5594,4.5594,4.5594,4.5594,4.5594,4.5581,4.5438,4.5272,4.5022,4.4561,4.4264,4.4031,4.3734,4.3669,4.3654,4.3616,4.3635,4.3956,4.402,4.4268,4.481,4.5195,4.5177,4.5104,4.4975,4.4865,4.4415,4.3965,4.38,4.3616,4.3524,4.3506,4.3488,4.3488,4.3488,4.3488,4.3488,4.3488,4.3488,4.3488,4.3488,4.3488,4.3488,4.3488,4.3506,4.3524,4.3543,4.3506,4.3506,4.3616,4.3579,4.3488,4.3488,4.3488,4.3269,4.2954,4.6109,4.6099,4.5942,4.5846,4.5806,4.5822,4.5725,4.5616,4.5588,4.5603,4.5594,4.5594,4.5594,4.5594,4.5594,4.5594,4.5594,4.5594,4.5594,4.5859,4.6509,4.6144,4.6124,4.6394,4.6259,4.5859,4.5686,4.5859,4.5883,4.7278,4.8029,4.8529,4.9707,4.9668,4.926,4.8779,4.8082,4.7485,4.7351,4.6759,4.5917,4.5744,4.5725,4.5686,4.5594,4.5594,4.5594,4.5594,4.5594,4.5594,4.5594,4.5594,4.5594,4.5594,4.5594,4.5594,4.5594,4.5594,4.5594,4.5594,4.5594,4.559,4.5555,4.5577,4.5544,4.5466,4.5273,4.5085,4.4744,4.4402,4.4095,4.4031,4.3964,4.3914,4.3872,4.4149,4.4635,4.4911,4.5223,4.5617,4.603,4.6104,4.5966,4.5838,4.5654,4.5094,4.469,4.4544,4.4259,4.3579,4.3543,4.3488,4.3488,4.3488,4.3506,4.3561,4.3488,4.3488,4.3488,4.3488,4.3488,4.3524,4.3488,4.3506,4.3579,4.3579,4.3524,4.3653,4.3855,4.3818,4.3956,4.3928,4.4048,4.3696,4.3395,4.6108,4.6078,4.5896,4.5805,4.5786,4.5696,4.5627,4.5599,4.5594,4.5594,4.5594,4.5594,4.5594,4.5594,4.5594,4.5594,4.5594,4.5594,4.5594,4.5936,4.6466,4.6182,4.6182,4.6374,4.624,4.5898,4.5748,4.6167,4.7418,4.8586,4.9375,5.0149,5.038,5.0418,5.0226,5.0014,4.8875,4.8105,4.8048,4.7201,4.6297,4.6086,4.5951,4.5744,4.5594,4.5594,4.5594,4.5594,4.5594,4.5594,4.5594,4.5594,4.5594,4.5594,4.5594,4.5594,4.5594,4.5594,4.5594,4.5614,4.5614,4.5546,4.5391,4.5429,4.5443,4.5371,4.5196,4.5057,4.4814,4.4465,4.4465,4.4471,4.4481,4.45,4.458,4.5021,4.5443,4.5645,4.5966,4.6535,4.6938,4.7003,4.6865,4.6737,4.6498,4.5902,4.548,4.5314,4.4966,4.4295,4.3983,4.3947,4.391,4.4038,4.3745,4.3708,4.3579,4.3488,4.3708,4.3818,4.38,4.38,4.3598,4.3726,4.413,4.3928,4.3543,4.3892,4.4589,4.469,4.48,4.469,4.4554,4.4291,4.417,4.5988,4.5953,4.5793,4.5726,4.5708,4.5635,4.5594,4.5594,4.5594,4.5594,4.5594,4.5594,4.5594,4.5594,4.5594,4.5594,4.5594,4.5594,4.5594,4.5802,4.6451,4.6186,4.6167,4.6336,4.6278,4.5956,4.5956,4.6398,4.7668,4.8817,4.9683,5.0572,5.0688,5.0457,5.0168,4.9822,4.9072,4.8394,4.799,4.7567,4.6971,4.6297,4.5936,4.5763,4.5614,4.5633,4.5594,4.5594,4.5594,4.5594,4.5594,4.5594,4.5594,4.5594,4.5594,4.5671,4.6028,4.5879,4.5763,4.6013,4.5879,4.5643,4.533,4.5243,4.5171,4.5096,4.5082,4.502,4.4753,4.458,4.4798,4.4984,4.51,4.5186,4.559,4.5993,4.6177,4.6342,4.6847,4.7443,4.7728,4.7819,4.7783,4.7636,4.7333,4.6691,4.6241,4.6039,4.57,4.5168,4.4929,4.4874,4.4773,4.4718,4.4387,4.424,4.4387,4.4516,4.4727,4.4754,4.4442,4.4461,4.4644,4.4764,4.4911,4.4672,4.4442,4.4993,4.5553,4.559,4.5617,4.5636,4.5507,4.5297,4.5246,4.5858,4.5799,4.5648,4.5612,4.5594,4.5594,4.5594,4.5594,4.5594,4.5594,4.5594,4.5594,4.5594,4.5594,4.5594,4.5594,4.5594,4.5594,4.5594,4.5614,4.622,4.6186,4.6013,4.6283,4.6109,4.6071,4.6201,4.6432,4.6533,4.7879,4.961,5.0611,5.0515,5.0284,4.999,4.9683,4.9091,4.8644,4.8259,4.7875,4.6874,4.6144,4.5729,4.5633,4.5671,4.5729,4.5633,4.5594,4.5594,4.5594,4.5594,4.5594,4.5594,4.5594,4.5594,4.5859,4.6317,4.6336,4.6278,4.6567,4.6487,4.6086,4.5463,4.5476,4.5481,4.5117,4.5062,4.518,4.5002,4.515,4.5381,4.5762,4.5966,4.6131,4.6425,4.681,4.7095,4.7214,4.7452,4.7929,4.8039,4.8131,4.8131,4.7948,4.7838,4.7333,4.7113,4.6883,4.6608,4.6159,4.5828,4.5736,4.5443,4.5323,4.536,4.5287,4.5525,4.5681,4.5718,4.559,4.5232,4.5452,4.5828,4.5718,4.5562,4.5691,4.5718,4.6214,4.6416,4.6205,4.6296,4.6535,4.647,4.6314,4.624,4.5818,4.5806,4.5668,4.5594,4.5594,4.5594,4.5594,4.5594,4.5594,4.5594,4.5594,4.5594,4.5594,4.5594,4.5594,4.5594,4.5594,4.5594,4.5594,4.5594,4.5956,4.5994,4.5648,4.5879,4.5821,4.5744,4.5936,4.6624,4.749,4.8567,4.9476,5.0438,5.0303,4.9938,5.0091,4.9726,4.9226,4.8918,4.8702,4.786,4.6494,4.6951,4.711,4.6379,4.5994,4.5994,4.5859,4.5594,4.5594,4.5594,4.5594,4.5594,4.5594,4.5614,4.5614,4.5763,4.6547,4.6817,4.6919,4.7218,4.7314,4.7051,4.6617,4.6372,4.6021,4.5402,4.5166,4.5337,4.5519,4.5758,4.6094,4.6526,4.6847,4.7049,4.7232,4.7581,4.7929,4.8003,4.8076,4.8168,4.8278,4.8315,4.8315,4.826,4.8186,4.8095,4.8039,4.7921,4.7801,4.7434,4.6682,4.6452,4.5975,4.5865,4.6067,4.625,4.6434,4.6305,4.6195,4.6085,4.6012,4.6232,4.6471,4.6287,4.6168,4.6406,4.6755,4.726,4.7333,4.6994,4.7049,4.7342,4.7544,4.7461,4.7334,4.5752,4.5704,4.5646,4.5594,4.5594,4.5594,4.5594,4.5594,4.5594,4.5594,4.5594,4.5594,4.5594,4.5594,4.5594,4.5594,4.5594,4.5594,4.5594,4.5594,4.5594,4.5633,4.5594,4.5629,4.5633,4.5633,4.6148,4.7028,4.8471,4.9029,4.9668,5.013,4.9856,4.9957,5.0207,4.9668,4.9437,4.9399,4.9149,4.8149,4.6648,4.7182,4.7293,4.6509,4.6182,4.6129,4.5859,4.5594,4.5594,4.5594,4.5594,4.5594,4.5729,4.6033,4.6186,4.6586,4.7221,4.7851,4.776,4.7874,4.8108,4.7686,4.7023,4.6454,4.6442,4.5964,4.6188,4.6328,4.6347,4.6562,4.7095,4.7572,4.7617,4.7764,4.7838,4.8039,4.815,4.8186,4.8205,4.8241,4.8315,4.8315,4.8315,4.8315,4.8241,4.8241,4.8278,4.8306,4.8296,4.8315,4.7654,4.7195,4.6783,4.6838,4.7223,4.7278,4.726,4.7058,4.6773,4.7012,4.7168,4.7076,4.7058,4.703,4.7104,4.7324,4.7709,4.7957,4.8031,4.7737,4.7893,4.8168,4.8333,4.8442,4.8287,4.5684,4.5603,4.5594,4.5594,4.5594,4.5594,4.5594,4.5594,4.5594,4.5594,4.5594,4.5594,4.5594,4.5594,4.5594,4.5594,4.5594,4.5594,4.5594,4.5594,4.5594,4.5594,4.5667,4.5763,4.5994,4.636,4.6817,4.7913,4.9221,4.9437,4.9514,4.9663,4.9918,5.0207,4.9707,4.9375,4.9317,4.9221,4.9009,4.8721,4.8086,4.7543,4.7235,4.6793,4.6374,4.5975,4.5936,4.5936,4.5956,4.6033,4.6186,4.6225,4.636,4.6759,4.6928,4.7365,4.813,4.8432,4.8426,4.8573,4.8337,4.7831,4.7038,4.6762,4.6832,4.6905,4.7141,4.7196,4.7223,4.7397,4.7929,4.8186,4.8223,4.8241,4.8278,4.8315,4.8315,4.8315,4.8315,4.8315,4.8315,4.8315,4.8315,4.8315,4.8315,4.8315,4.8315,4.8315,4.8315,4.8315,4.8021,4.7856,4.7691,4.7893,4.8131,4.8067,4.7884,4.7819,4.7636,4.8039,4.8223,4.7856,4.7746,4.7984,4.8095,4.8039,4.8058,4.8186,4.8223,4.8233,4.8241,4.837,4.8765,4.8873,4.8997,4.5637,4.5594,4.5594,4.5594,4.5594,4.5594,4.5594,4.5594,4.5594,4.5594,4.5594,4.5594,4.5594,4.5594,4.5594,4.5594,4.5594,4.5594,4.5594,4.5594,4.5594,4.5594,4.5802,4.624,4.6971,4.7351,4.7702,4.8452,4.936,4.9476,4.9745,5.0265,4.9663,4.9957,5.0399,5.0034,4.9644,4.9663,4.9894,4.988,4.9553,4.8894,4.8024,4.7774,4.774,4.7625,4.7625,4.7625,4.7625,4.7625,4.749,4.7413,4.749,4.7615,4.7794,4.7962,4.8762,4.8878,4.8897,4.9062,4.8795,4.8525,4.7988,4.7929,4.792,4.7776,4.7902,4.7921,4.7929,4.7929,4.826,4.826,4.8278,4.8278,4.8315,4.8315,4.8315,4.8315,4.8315,4.8315,4.8315,4.8315,4.8315,4.8315,4.8315,4.8315,4.8315,4.8315,4.8315,4.8315,4.8333,4.8425,4.8471,4.8315,4.8278,4.8416,4.8343,4.8351,4.848,4.8792,4.8773,4.8351,4.8333,4.8581,4.8517,4.8388,4.8425,4.8406,4.8333,4.8315,4.8296,4.8453,4.894,4.9361,4.9543]}]]